Date StartTime U_cm/s V_cm/s W_cm/s Ustd_cm/s Vstd_cm/s Wstd_cm/s Uvar_(cm/s)^2 Vvar_(cm/s)^2 Wvar_(cm/s)^2 KE_(m/s)^2 TurbulentKE_(m/s)^2 HorizWindSpeed_cm/s FrictionSpeec_cm/s DragCoef SpeedOfSound_m/s SonicTemperature_C Pressure_mb 
09/03/2013  00:00:00        6.977        0.010        2.237       17.176        5.815       10.078      295.006       33.813      101.557        0.024        0.022        6.977        5.710        0.670      344.466       21.306      861.168
09/03/2013  00:01:00      -53.411        2.480       -9.578        9.570        8.000        8.311       91.579       64.004       69.071        0.159        0.011       53.468        2.910        0.003      344.380       21.157      861.175
09/03/2013  00:02:00      -65.246      -14.442       -3.747       24.834       14.062        8.790      616.733      197.747       77.269        0.269        0.045       66.825        9.481        0.020      344.395       21.184      861.179
09/03/2013  00:03:00     -113.812      -18.288      -15.240       31.334       25.270       17.123      981.830      638.578      293.206        0.772        0.096      115.272       16.260        0.020      344.370       21.142      861.172
09/03/2013  00:04:00     -121.938      -39.688       -4.858       39.542       39.379       22.618     1563.562     1550.744      511.578        1.005        0.181      128.234       15.003        0.014      344.274       20.977      861.169
09/03/2013  00:05:00     -127.455      -86.918        1.390       47.590       36.624       31.276     2264.764     1341.319      978.171        1.419        0.229      154.271       19.581        0.016      344.295       21.012      861.193
09/03/2013  00:06:00      -91.398      -72.934        5.845       67.786       56.480       30.843     4594.939     3189.979      951.315        1.122        0.437      116.932       37.608        0.103      344.290       21.004      861.225
09/03/2013  00:07:00     -139.104      -85.145       -4.284       62.579       60.267       38.488     3916.137     3632.072     1481.338        1.782        0.451      163.094       27.473        0.028      344.365       21.131      861.235
09/03/2013  00:08:00     -106.170      -97.782       10.958       70.404       53.771       38.045     4956.729     2891.340     1447.458        1.512        0.465      144.337       39.872        0.076      344.385       21.166      861.243
09/03/2013  00:09:00     -137.350     -112.414       -0.820       55.031       43.880       33.383     3028.375     1925.424     1114.397        1.878        0.303      177.487       27.925        0.025      344.422       21.227      861.247
09/03/2013  00:10:00     -130.063     -115.220       -1.336       64.280       57.662       36.397     4131.935     3324.900     1324.760        1.949        0.439      173.759       33.831        0.038      344.376       21.150      861.251
09/03/2013  00:11:00     -106.880      -88.238       -2.017       88.938       56.194       42.405     7909.950     3157.761     1798.143        1.604        0.643      138.598       35.790        0.067      344.398       21.189      861.248
09/03/2013  00:12:00     -149.331      -74.974       -4.961       74.000       59.438       42.898     5475.941     3532.907     1840.232        1.940        0.542      167.095       42.579        0.065      344.399       21.188      861.235
09/03/2013  00:13:00     -131.947      -15.443       -6.230       38.502       25.938       21.680     1482.441      672.755      470.036        1.016        0.131      132.848       18.848        0.020      344.394       21.182      861.236
09/03/2013  00:14:00     -113.859      -45.428        4.829       38.308       35.924       23.761     1467.531     1290.530      564.589        0.919        0.166      122.587       21.090        0.030      344.359       21.122      861.248
09/03/2013  00:15:00     -114.227      -36.410        2.424       41.727       28.324       18.661     1741.106      802.268      348.244        0.863        0.145      119.889       18.365        0.023      344.365       21.132      861.248
09/03/2013  00:16:00      -79.311       -9.497        2.967       39.029       22.662       21.897     1523.258      513.570      479.464        0.445        0.126       79.878       22.310        0.078      344.310       21.038      861.240
09/03/2013  00:17:00     -113.447       -4.029       -9.597       25.187       23.014       14.684      634.393      529.634      215.607        0.718        0.069      113.518       12.110        0.011      344.350       21.106      861.235
09/03/2013  00:18:00     -105.882        3.561      -11.265       29.017       26.416       14.069      842.004      697.793      197.938        0.654        0.087      105.942       12.395        0.014      344.349       21.106      861.215
09/03/2013  00:19:00      -78.139       32.068       -7.701       30.929       15.578       12.859      956.591      242.680      165.361        0.428        0.068       84.463       12.896        0.023      344.369       21.139      861.195
09/03/2013  00:20:00     -107.912       39.569      -17.374       17.717       24.327       17.687      313.909      591.806      312.826        0.737        0.061      114.938       11.673        0.010      344.450       21.278      861.187
09/03/2013  00:21:00     -102.832       28.895      -15.603       18.322       22.916       17.135      335.711      525.165      293.625        0.640        0.058      106.815       11.221        0.011      344.462       21.297      861.187
09/03/2013  00:22:00     -105.149        1.868       -6.497       21.101       18.294       12.671      445.256      334.669      160.561        0.602        0.047      105.165       11.451        0.012      344.450       21.278      861.196
09/03/2013  00:23:00      -70.211      -17.225       -6.847       15.435       20.178       11.647      238.232      407.161      135.653        0.303        0.039       72.293        9.225        0.016      344.352       21.112      861.220
09/03/2013  00:24:00      -77.023      -35.310       -5.803       17.384       18.193       11.424      302.189      330.989      130.510        0.399        0.038       84.731        4.775        0.003      344.327       21.068      861.235
09/03/2013  00:25:00      -89.459      -36.424       -5.308       17.279       13.542       13.816      298.570      183.396      190.894        0.502        0.034       96.590       12.970        0.018      344.284       20.997      861.231
09/03/2013  00:26:00      -83.845      -24.137       -7.585       16.938       16.705        9.925      286.895      279.047       98.499        0.417        0.033       87.250        5.899        0.005      344.305       21.030      861.219
09/03/2013  00:27:00      -68.311      -10.224       -7.630       17.257       19.359       10.294      297.794      374.775      105.968        0.280        0.039       69.072        8.670        0.016      344.281       20.988      861.212
09/03/2013  00:28:00      -92.649      -17.357       -9.453       19.417       10.938       12.314      377.030      119.639      151.625        0.481        0.032       94.261        9.742        0.011      344.196       20.844      861.209
09/03/2013  00:29:00      -98.233      -11.860       -6.147       19.927       14.233       12.621      397.091      202.584      159.298        0.529        0.038       98.947       11.364        0.013      344.231       20.903      861.210
09/03/2013  00:30:00     -102.583      -34.840       -5.013       12.855       16.295        8.638      165.241      265.528       74.607        0.613        0.025      108.338        4.040        0.001      344.252       20.939      861.198
09/03/2013  00:31:00      -82.601      -34.600       -0.272       16.453       18.674       10.289      270.712      348.724      105.863        0.437        0.036       89.554        5.166        0.003      344.245       20.929      861.182
09/03/2013  00:32:00      -48.807      -17.225       -2.831       23.718       18.629       10.784      562.556      347.030      116.285        0.186        0.051       51.758        8.860        0.029      344.183       20.822      861.182
09/03/2013  00:33:00      -95.626      -25.385       -9.002       14.740       11.122        8.804      217.271      123.708       77.502        0.514        0.021       98.938        5.418        0.003      344.268       20.965      861.189
09/03/2013  00:34:00      -79.376      -41.181       -8.727       26.182       19.985       13.241      685.504      399.382      175.317        0.467        0.063       89.423        9.147        0.010      344.214       20.874      861.208
09/03/2013  00:35:00      -11.463      -36.515       13.632       28.293       29.438       22.518      800.498      866.598      507.066        0.191        0.109       38.272       12.988        0.115      344.128       20.726      861.234
09/03/2013  00:36:00      -79.727      -91.587        3.897       51.362       34.960       26.664     2638.059     1222.194      710.956        0.966        0.229      121.428       31.181        0.066      344.205       20.859      861.270
09/03/2013  00:37:00     -107.905     -107.905       -9.937       36.710       35.850       19.930     1347.595     1285.193      397.225        1.321        0.152      152.600       18.591        0.015      344.228       20.899      861.285
09/03/2013  00:38:00     -107.815      -73.481        1.136       49.571       36.091       22.026     2457.239     1302.568      485.127        1.063        0.212      130.474       19.823        0.023      344.314       21.045      861.274
09/03/2013  00:39:00      -95.595      -45.587        2.455       32.692       25.316       16.748     1068.741      640.898      280.511        0.661        0.100      105.908       17.273        0.027      344.273       20.975      861.262
09/03/2013  00:40:00      -48.079      -36.852        0.749       22.711       16.001       15.656      515.798      256.020      245.120        0.234        0.051       60.578       10.473        0.030      344.296       21.014      861.255
09/03/2013  00:41:00      -39.630       -2.961       -0.633       26.135       13.383       14.015      683.013      179.104      196.407        0.132        0.053       39.740       13.338        0.113      344.260       20.954      861.240
09/03/2013  00:42:00      -42.940       -7.440       -0.817        9.705       13.033        6.680       94.178      169.856       44.629        0.110        0.015       43.580        2.443        0.003      344.311       21.039      861.208
09/03/2013  00:43:00      -36.188       27.101       -7.822        7.897       18.657        6.276       62.360      348.097       39.390        0.128        0.022       45.211        2.587        0.003      344.266       20.963      861.172
09/03/2013  00:44:00      -35.435       38.122       -8.987        8.393       12.546        6.058       70.438      157.408       36.702        0.153        0.013       52.048        4.701        0.008      344.197       20.845      861.166
09/03/2013  00:45:00      -51.999       54.683      -14.052       10.739       18.809        8.746      115.321      353.788       76.496        0.322        0.027       75.460        6.001        0.006      344.122       20.718      861.176
09/03/2013  00:46:00      -48.026       -1.156        0.842       15.472       27.760       12.664      239.390      770.636      160.368        0.174        0.059       48.040        7.102        0.022      344.009       20.524      861.200
09/03/2013  00:47:00      -67.512      -26.007       -2.836       22.538       20.505       11.601      507.969      420.442      134.594        0.315        0.053       72.348       12.066        0.028      344.095       20.671      861.239
09/03/2013  00:48:00      -76.790      -44.194       -2.838       42.416       24.727       16.186     1799.112      611.410      261.988        0.526        0.134       88.599       16.873        0.036      344.102       20.684      861.266
09/03/2013  00:49:00     -114.501      -32.372       -5.766       16.979       18.073       13.682      288.279      326.622      187.197        0.750        0.040      118.989        8.756        0.005      344.029       20.556      861.286
09/03/2013  00:50:00     -129.756      -44.060      -11.273       18.759       17.840       13.277      351.906      318.260      176.273        0.988        0.042      137.033        4.711        0.001      344.036       20.568      861.301
09/03/2013  00:51:00     -103.771      -18.951       -5.424       40.669       26.954       23.826     1653.947      726.521      567.677        0.705        0.147      105.487       26.675        0.064      343.947       20.419      861.298
09/03/2013  00:52:00      -97.183      -28.706        0.794       42.969       31.660       17.624     1846.372     1002.330      310.606        0.671        0.158      101.334       11.421        0.013      343.997       20.502      861.298
09/03/2013  00:53:00      -54.164       50.583       -9.591       22.379       29.483       16.332      500.800      869.247      266.745        0.361        0.082       74.111       14.600        0.039      344.020       20.542      861.290
09/03/2013  00:54:00      -37.623       95.203       -4.735       42.358       45.720       20.316     1794.239     2090.301      412.752        0.740        0.215      102.367       25.825        0.064      344.072       20.630      861.272
09/03/2013  00:55:00       27.875      114.600      -10.460       21.555       25.022       20.036      464.619      626.086      401.431        0.776        0.075      117.941       13.182        0.012      344.000       20.507      861.244
09/03/2013  00:56:00       38.652       87.629      -16.975       29.006       33.228       17.809      841.375     1104.068      317.153        0.586        0.113       95.775       10.630        0.012      344.017       20.537      861.221
09/03/2013  00:57:00       48.311       59.735      -13.145       27.019       34.987       18.464      730.019     1224.080      340.934        0.418        0.115       76.826       20.965        0.074      343.952       20.426      861.214
09/03/2013  00:58:00       40.053       83.290      -10.644       23.911       31.439       18.516      571.713      988.432      342.849        0.528        0.095       92.421       16.471        0.032      343.977       20.470      861.206
09/03/2013  00:59:00       17.928      153.547      -16.018       35.395       47.285       29.465     1252.834     2235.909      868.211        1.425        0.218      154.590       28.891        0.035      344.254       20.942      861.188
09/03/2013  01:00:00        6.259      170.688      -21.729       22.518       29.366       14.548      507.042      862.357      211.657        1.561        0.079      170.803       12.875        0.006      344.310       21.039      861.184
09/03/2013  01:01:00      -33.717      117.639      -14.156       24.468       37.284       15.082      598.660     1390.065      227.469        0.870        0.111      122.375       10.735        0.008      344.168       20.795      861.187
09/03/2013  01:02:00      -60.273       84.966      -20.552       28.359       22.500       15.470      804.206      506.240      239.316        0.641        0.077      104.173        9.074        0.008      344.196       20.843      861.188
09/03/2013  01:03:00      -83.912       85.078      -19.383       30.882       54.716       24.901      953.697     2993.885      620.084        0.961        0.228      119.497       28.495        0.057      344.141       20.751      861.194
09/03/2013  01:04:00     -102.845       86.000      -23.443       28.474       37.524       22.819      810.778     1408.020      520.728        1.063        0.137      134.064       17.123        0.016      344.158       20.778      861.205
09/03/2013  01:05:00      -90.219       76.697      -20.636       29.361       41.275       20.599      862.048     1703.644      424.333        0.872        0.150      118.415       16.371        0.019      344.211       20.867      861.231
09/03/2013  01:06:00      -35.267       15.997        0.962       22.914       18.297       10.775      525.052      334.782      116.106        0.124        0.049       38.726       11.225        0.084      344.065       20.619      861.264
09/03/2013  01:07:00       16.839      -61.928        5.081       16.482       29.882       14.956      271.655      892.928      223.681        0.277        0.069       64.176        4.345        0.005      344.174       20.804      861.292
09/03/2013  01:08:00      -13.982      -36.641       17.257       40.804       46.299       24.332     1664.996     2143.605      592.043        0.312        0.220       39.218       21.873        0.311      344.062       20.614      861.320
09/03/2013  01:09:00       -6.082      -26.985        3.882       30.908       22.459       22.907      955.302      504.424      524.720        0.138        0.099       27.662       20.279        0.537      343.935       20.396      861.342
09/03/2013  01:10:00      -14.145       -6.880        3.316       11.918        9.544       11.122      142.044       91.091      123.691        0.031        0.018       15.729        8.813        0.314      343.971       20.459      861.351
09/03/2013  01:11:00      -11.341        4.345       -3.766        8.888        7.919        5.389       79.001       62.708       29.041        0.017        0.009       12.145        0.631        0.003      343.945       20.414      861.366
09/03/2013  01:12:00       -6.484       14.631       -1.761       11.689        8.333        5.818      136.630       69.445       33.845        0.025        0.012       16.003        2.993        0.035      343.925       20.382      861.380
09/03/2013  01:13:00      -13.575       49.755       -1.686       12.298       34.170        9.775      151.235     1167.614       95.548        0.204        0.071       51.574        7.821        0.023      343.980       20.473      861.388
09/03/2013  01:14:00       14.063       42.465        3.797       10.951       14.147        9.393      119.922      200.145       88.229        0.121        0.020       44.733        5.988        0.018      343.921       20.373      861.400
09/03/2013  01:15:00       53.707       36.667        8.576       14.460       10.649       11.423      209.091      113.395      130.491        0.238        0.023       65.030        8.639        0.018      343.922       20.374      861.403
09/03/2013  01:16:00       82.530       34.942        6.900       19.433       16.500       17.614      377.654      272.259      310.256        0.452        0.048       89.622        2.634        0.001      343.887       20.315      861.412
09/03/2013  01:17:00       81.641       42.305        6.485       15.402       14.557       15.437      237.223      211.902      238.300        0.459        0.034       91.951        8.158        0.008      343.898       20.335      861.430
09/03/2013  01:18:00       75.742       28.645        9.484       19.680       15.596       16.245      387.321      243.248      263.903        0.377        0.045       80.978       10.381        0.016      343.877       20.299      861.440
09/03/2013  01:19:00       71.940       34.996       18.298       15.969       13.298       15.928      255.025      176.839      253.708        0.371        0.034       80.001       11.264        0.020      343.827       20.212      861.432
09/03/2013  01:20:00       65.548       28.920       16.453       25.195       22.330       15.019      634.805      498.622      225.582        0.338        0.068       71.645        8.561        0.014      343.929       20.389      861.414
09/03/2013  01:21:00       33.828       13.555       17.898       22.945       17.078       12.595      526.465      291.658      158.634        0.131        0.049       36.443       10.583        0.084      343.923       20.377      861.406
09/03/2013  01:22:00       25.723       13.597       12.767       23.242       18.545       16.651      540.188      343.925      277.250        0.109        0.058       29.096       11.710        0.162      343.877       20.298      861.399
09/03/2013  01:23:00       48.231       20.309        7.315       12.487       16.217       12.661      155.925      262.981      160.309        0.169        0.029       52.332       13.413        0.066      343.804       20.173      861.404
09/03/2013  01:24:00       39.218       19.971       21.410       14.613       16.161       17.743      213.544      261.169      314.829        0.159        0.039       44.010       12.639        0.082      343.767       20.112      861.403
09/03/2013  01:25:00       42.766       34.017       35.592       22.586       21.342       20.156      510.133      455.499      406.253        0.281        0.069       54.645       14.529        0.071      343.786       20.144      861.409
09/03/2013  01:26:00       36.964       12.947       10.860       18.805       13.968       15.729      353.641      195.098      247.392        0.122        0.040       39.166        8.535        0.047      343.822       20.205      861.413
09/03/2013  01:27:00       65.369       43.747       11.525       28.505       18.359       15.243      812.508      337.042      232.362        0.385        0.069       78.656       16.365        0.043      343.781       20.134      861.400
09/03/2013  01:28:00      109.153       71.125       18.950       30.527       18.205       13.773      931.893      331.415      189.699        0.939        0.073      130.281        8.712        0.004      343.726       20.041      861.389
09/03/2013  01:29:00      126.432       67.627       32.100       41.712       37.802       36.645     1739.897     1428.991     1342.840        1.305        0.226      143.382       26.048        0.033      343.817       20.196      861.370
09/03/2013  01:30:00       71.555      117.874       89.281       45.399       34.266       32.825     2061.041     1174.126     1077.505        1.565        0.216      137.892       27.737        0.040      343.842       20.239      861.363
09/03/2013  01:31:00       89.327       82.623       82.909       52.306       44.246       34.839     2735.896     1957.711     1213.763        1.379        0.295      121.679       26.319        0.047      343.711       20.014      861.381
09/03/2013  01:32:00      100.379       82.769       67.624       59.869       43.045       48.006     3584.338     1852.854     2304.600        1.462        0.387      130.102       45.495        0.122      343.735       20.057      861.409
09/03/2013  01:33:00       63.357       25.925       38.487       61.011       42.398       34.588     3722.330     1797.564     1196.333        0.644        0.336       68.456       26.086        0.145      343.708       20.009      861.422
09/03/2013  01:34:00       64.646       32.640       20.571       40.896       31.689       26.323     1672.460     1004.179      692.879        0.452        0.168       72.419       12.427        0.029      343.711       20.016      861.419
09/03/2013  01:35:00       87.743       32.519       12.377       38.689       26.516       26.317     1496.819      703.107      692.581        0.590        0.145       93.575       23.308        0.062      343.695       19.987      861.412
09/03/2013  01:36:00       30.666       14.681        3.841       27.705       20.477       18.375      767.547      419.291      337.651        0.135        0.076       33.999       12.190        0.129      343.696       19.989      861.408
09/03/2013  01:37:00      -21.023      -28.866       -5.985       10.975       14.632       11.963      120.458      214.093      143.111        0.089        0.024       35.710        8.227        0.053      343.830       20.219      861.421
09/03/2013  01:38:00      -28.284      -35.326       -3.356       14.075       13.432        9.220      198.103      180.413       85.013        0.126        0.023       45.254        5.160        0.013      343.828       20.215      861.432
09/03/2013  01:39:00      -56.537       -7.262      -12.217       15.169       15.382       12.452      230.105      236.606      155.041        0.201        0.031       57.002        9.495        0.028      343.725       20.040      861.415
09/03/2013  01:40:00      -44.049       21.915       -7.613        9.485       10.133        5.270       89.972      102.687       27.768        0.135        0.011       49.200        3.387        0.005      343.686       19.972      861.376
09/03/2013  01:41:00      -20.163       51.647       -9.861       18.322       16.359        6.366      335.685      267.612       40.530        0.191        0.032       55.443        8.034        0.021      343.760       20.099      861.333
09/03/2013  01:42:00       26.190       76.754       -6.716       20.015       24.148       15.105      400.599      583.126      228.154        0.392        0.061       81.100       13.632        0.028      343.771       20.116      861.311
09/03/2013  01:43:00       21.748      127.567      -13.770       37.496       45.180       26.446     1405.978     2041.242      699.398        1.054        0.207      129.408       26.707        0.043      343.882       20.306      861.293
09/03/2013  01:44:00       10.501      131.667      -18.431       38.186       76.802       26.117     1458.156     5898.477      682.115        1.291        0.402      132.085       33.795        0.065      343.886       20.314      861.287
09/03/2013  01:45:00       61.101       23.320        5.004       30.873       33.085       22.339      953.161     1094.609      499.010        0.342        0.127       65.400       15.684        0.058      343.729       20.046      861.294
09/03/2013  01:46:00       69.062       48.350        4.862       26.622       27.975       21.834      708.739      782.628      476.745        0.455        0.098       84.305       12.281        0.021      343.668       19.941      861.298
09/03/2013  01:47:00       27.079       67.553        0.509       44.762       41.149       26.927     2003.648     1693.240      725.053        0.486        0.221       72.778       24.324        0.112      343.747       20.077      861.298
09/03/2013  01:48:00       12.822       50.300       -9.803       17.556       17.861       11.793      308.203      319.012      139.064        0.178        0.038       51.908        9.570        0.034      343.788       20.145      861.301
09/03/2013  01:49:00      -21.638       49.253       -7.858       20.658       20.452        8.390      426.773      418.278       70.384        0.194        0.046       53.796        7.215        0.018      343.912       20.358      861.298
09/03/2013  01:50:00       -7.450       17.515        6.673       19.904       25.109       12.673      396.171      630.465      160.616        0.080        0.059       19.034       11.508        0.366      343.821       20.204      861.296
09/03/2013  01:51:00      -38.045       12.576       -7.738       27.465       49.495       21.366      754.313     2449.789      456.503        0.266        0.183       40.069       16.458        0.169      343.966       20.451      861.301
09/03/2013  01:52:00      -21.321       23.392        6.096       34.996       25.083       16.929     1224.704      629.138      286.577        0.159        0.107       31.651        8.235        0.068      343.903       20.342      861.295
09/03/2013  01:53:00      -26.074       57.746      -12.101       30.601       32.123       12.978      936.397     1031.892      168.430        0.315        0.107       63.360        8.451        0.018      343.871       20.289      861.261
09/03/2013  01:54:00       -1.137       68.857       -2.779       25.391       42.276       20.664      644.700     1787.238      426.985        0.380        0.143       68.867       20.608        0.090      343.865       20.280      861.228
09/03/2013  01:55:00      -35.169      115.587       -9.945       24.562       46.501       23.446      603.281     2162.297      549.715        0.901        0.166      120.819       12.576        0.011      343.865       20.277      861.201
09/03/2013  01:56:00      -65.560       88.456      -14.748       51.407       40.519       22.827     2642.714     1641.812      521.083        0.857        0.240      110.102       25.528        0.054      343.906       20.348      861.187
09/03/2013  01:57:00     -110.230       64.800      -11.686       39.185       29.525       25.923     1535.484      871.698      672.020        0.978        0.154      127.865       15.825        0.015      343.882       20.309      861.185
09/03/2013  01:58:00      -85.991       67.769      -14.662       46.106       34.160       24.453     2125.743     1166.876      597.971        0.805        0.195      109.485       24.239        0.049      343.910       20.355      861.199
09/03/2013  01:59:00      -65.508       10.365       -5.653       39.044       48.908       16.575     1524.468     2392.038      274.725        0.431        0.210       66.323       24.872        0.141      343.985       20.482      861.227
09/03/2013  02:00:00      -25.870      -56.067        0.174       25.938       17.159       18.370      672.782      294.419      337.475        0.256        0.065       61.747       13.605        0.049      344.013       20.532      861.247
09/03/2013  02:01:00      -19.259      -63.194       -2.739       39.231       26.935       24.327     1539.066      725.476      591.798        0.361        0.143       66.064       16.647        0.063      344.018       20.539      861.262
09/03/2013  02:02:00      -81.713      -72.630       -7.687       39.611       35.373       23.384     1568.996     1251.242      546.816        0.769        0.168      109.326       16.510        0.023      343.931       20.391      861.264
09/03/2013  02:03:00     -121.436      -57.015       -2.930       48.228       35.926       25.040     2325.927     1290.643      627.001        1.112        0.212      134.155       19.659        0.021      343.902       20.339      861.251
09/03/2013  02:04:00      -93.205      -58.039       -3.704       23.567       34.136       20.315      555.395     1165.263      412.699        0.710        0.107      109.798       15.763        0.021      343.923       20.377      861.240
09/03/2013  02:05:00      -85.261      -24.965       -5.570       18.694       25.206       15.166      349.453      635.342      230.019        0.457        0.061       88.841       13.906        0.025      343.889       20.320      861.230
09/03/2013  02:06:00      -77.003       -6.325       -7.653       31.976       28.170       15.810     1022.476      793.524      249.956        0.405        0.103       77.262       16.112        0.043      343.882       20.307      861.227
09/03/2013  02:07:00      -79.822      -25.535       -3.074       33.407       30.173       15.907     1116.048      910.430      253.031        0.466        0.114       83.807       14.224        0.029      343.922       20.377      861.224
09/03/2013  02:08:00      -64.493      -10.785       -4.314       21.496       25.419       13.540      462.087      646.129      183.325        0.279        0.065       65.388       14.727        0.051      343.794       20.157      861.228
09/03/2013  02:09:00      -28.715       -6.877       -8.905       15.412       15.015       13.002      237.520      225.460      169.053        0.079        0.032       29.527        8.570        0.084      343.851       20.254      861.235
09/03/2013  02:10:00        0.443      -52.243      -13.506       20.318       31.159       12.963      412.821      970.860      168.031        0.223        0.078       52.244       14.445        0.076      343.845       20.245      861.241
09/03/2013  02:11:00       -5.444      -80.072      -19.430       27.394       17.671       13.669      750.450      312.248      186.854        0.403        0.062       80.257       12.256        0.023      343.845       20.242      861.259
09/03/2013  02:12:00        3.485      -39.688        3.554       17.222       27.240       25.955      296.592      742.041      673.677        0.166        0.086       39.840       15.096        0.144      343.782       20.136      861.266
09/03/2013  02:13:00      -34.017      -41.962       -5.382       44.357       23.354       15.650     1967.542      545.410      244.915        0.285        0.138       54.018       15.173        0.079      343.797       20.161      861.265
09/03/2013  02:14:00      -49.879      -19.167       -6.369       18.603       18.192       10.959      346.069      330.953      120.095        0.185        0.040       53.435       11.735        0.048      343.807       20.180      861.246
09/03/2013  02:15:00      -15.371       -0.821        1.864       13.970        6.512        5.894      195.174       42.406       34.744        0.026        0.014       15.393        3.160        0.042      343.815       20.192      861.231
09/03/2013  02:16:00        0.599       -6.586        2.791        8.965        7.249        6.580       80.362       52.549       43.297        0.011        0.009        6.613        3.543        0.287      343.742       20.067      861.216
09/03/2013  02:17:00        6.854       -5.643        4.339        4.198        4.415        4.672       17.621       19.489       21.824        0.008        0.003        8.878        3.465        0.152      343.777       20.124      861.204
09/03/2013  02:18:00       25.842       10.087        4.190        8.779        6.045        6.966       77.076       36.542       48.521        0.047        0.008       27.741        4.305        0.024      343.772       20.119      861.195
09/03/2013  02:19:00       30.249       16.523        9.899        7.580        6.876        5.704       57.457       47.276       32.541        0.071        0.007       34.467        2.571        0.006      343.753       20.087      861.181
09/03/2013  02:20:00       10.391       41.485       45.188       20.956       25.198       25.881      439.155      634.959      669.840        0.281        0.087       42.767       23.451        0.301      343.763       20.104      861.174
09/03/2013  02:21:00       -0.555       55.244       73.969       19.618       25.743       13.014      384.848      662.712      169.374        0.487        0.061       55.247       13.338        0.058      343.719       20.028      861.169
09/03/2013  02:22:00        4.023       34.081       62.338       23.913       33.997       23.001      571.818     1155.783      529.065        0.366        0.113       34.317       16.712        0.237      343.752       20.084      861.158
09/03/2013  02:23:00       36.025      -71.137       11.683       36.777       42.808       37.014     1352.566     1832.498     1370.021        0.552        0.228       79.738       34.517        0.187      343.896       20.331      861.143
09/03/2013  02:24:00       54.136     -102.823       -6.279       37.334       20.076       21.077     1393.841      403.041      444.249        0.789        0.112      116.204       12.645        0.012      343.960       20.440      861.121
09/03/2013  02:25:00       44.917      -57.308        5.974       27.703       52.390       23.875      767.478     2744.721      570.023        0.471        0.204       72.813       26.624        0.134      343.898       20.334      861.106
09/03/2013  02:26:00       15.033       37.399       56.550       29.612       27.647       20.950      876.896      764.348      438.905        0.345        0.104       40.307       13.951        0.120      343.786       20.144      861.100
09/03/2013  02:27:00       72.397       37.342       26.453       26.646       16.334       21.920      710.020      266.809      480.492        0.440        0.073       81.460       16.578        0.041      343.791       20.152      861.096
09/03/2013  02:28:00       97.992       40.392        9.969       24.790       22.083       17.268      614.557      487.670      298.201        0.637        0.070      105.991       14.800        0.019      343.764       20.105      861.099
09/03/2013  02:29:00       80.275       28.515       14.147       39.456       23.461       21.604     1556.741      550.434      466.712        0.502        0.129       85.189        9.042        0.011      343.732       20.050      861.104
09/03/2013  02:30:00       83.398       53.083       14.248       27.165       21.961       19.249      737.950      482.277      370.519        0.578        0.080       98.859        8.218        0.007      343.644       19.901      861.118
09/03/2013  02:31:00       54.055       15.969       23.637       20.126       16.898       18.258      405.074      285.541      333.342        0.238        0.051       56.364       13.564        0.058      343.649       19.908      861.140
09/03/2013  02:32:00       30.741      -23.410        3.696       21.349       14.467       11.675      455.782      209.281      136.309        0.115        0.040       38.639       10.409        0.073      343.700       19.996      861.160
09/03/2013  02:33:00       21.783      -42.905       -8.939       16.016       12.605        8.842      256.508      158.887       78.175        0.144        0.025       48.118        8.677        0.033      343.757       20.094      861.174
09/03/2013  02:34:00      -18.200      -10.587        0.561       28.164       14.779        9.146      793.184      218.404       83.645        0.077        0.055       21.055       11.327        0.289      343.674       19.953      861.186
09/03/2013  02:35:00      -81.218      -11.003      -10.750       14.914       16.199       10.242      222.435      262.406      104.903        0.371        0.029       81.960        6.453        0.006      343.618       19.857      861.184
09/03/2013  02:36:00      -99.679       -0.989       -7.126       19.201       18.303       12.243      368.672      335.013      149.902        0.542        0.043       99.684        4.852        0.002      343.557       19.751      861.177
09/03/2013  02:37:00      -60.169        5.583       -8.504       28.148       20.331       15.198      792.289      413.354      230.974        0.258        0.072       60.427       13.813        0.052      343.487       19.633      861.185
09/03/2013  02:38:00     -113.449        4.258       -7.962       53.862       36.162       22.126     2901.107     1307.683      489.575        0.882        0.235      113.529       17.802        0.025      343.451       19.572      861.208
09/03/2013  02:39:00     -140.242       -5.010      -19.170       37.583       22.963       14.337     1412.490      527.291      205.553        1.110        0.107      140.331        8.859        0.004      343.454       19.576      861.218
09/03/2013  02:40:00     -112.183      -24.269       -7.710       46.742       27.168       18.421     2184.858      738.084      339.339        0.825        0.163      114.778       16.711        0.021      343.430       19.535      861.216
09/03/2013  02:41:00      -78.751      -16.629       -8.263       31.259       29.122       16.687      977.117      848.090      278.444        0.432        0.105       80.488       11.721        0.021      343.424       19.526      861.221
09/03/2013  02:42:00      -44.341      -17.376        1.732       40.276       24.182       19.176     1622.123      584.766      367.719        0.242        0.129       47.624       20.255        0.181      343.415       19.511      861.220
09/03/2013  02:43:00      -47.193        0.501        3.832       26.396       21.761       14.780      696.741      473.524      218.459        0.182        0.069       47.196       11.746        0.062      343.438       19.549      861.226
09/03/2013  02:44:00      -31.890        7.895       -0.494       13.756       11.980        9.944      189.223      143.515       98.879        0.076        0.022       32.852        7.143        0.047      343.438       19.551      861.218
09/03/2013  02:45:00        1.661      -12.838       -6.786       11.010       14.748       10.674      121.220      217.508      113.937        0.033        0.023       12.945       10.275        0.630      343.496       19.649      861.211
09/03/2013  02:46:00        2.184        2.777       -5.549        7.719        8.832        8.036       59.583       78.002       64.583        0.012        0.010        3.533        3.926        1.235      343.520       19.692      861.211
09/03/2013  02:47:00       15.219      -14.437        8.665       11.406       13.321       11.465      130.090      177.450      131.446        0.048        0.022       20.977       10.929        0.271      343.535       19.714      861.211
09/03/2013  02:48:00       17.020       -4.030       17.142       24.695       13.343       16.996      609.862      178.026      288.865        0.084        0.054       17.490       15.713        0.807      343.626       19.870      861.211
09/03/2013  02:49:00       18.227       22.504        7.411       11.161       20.547        8.851      124.569      422.195       78.342        0.076        0.031       28.959        9.573        0.109      343.632       19.881      861.212
09/03/2013  02:50:00        2.571       44.542       -9.051       15.531       14.505        6.527      241.204      210.393       42.595        0.128        0.025       44.616        4.951        0.012      343.613       19.848      861.208
09/03/2013  02:51:00      -21.016       21.031       -1.125       12.931       20.118       10.405      167.214      404.731      108.271        0.078        0.034       29.732        5.665        0.036      343.582       19.795      861.209
09/03/2013  02:52:00      -33.356      -15.525       -2.389       13.969       13.772        7.418      195.120      189.673       55.027        0.090        0.022       36.792        3.797        0.011      343.582       19.795      861.214
09/03/2013  02:53:00        1.236      -19.293       -4.321        9.323       10.273        6.186       86.914      105.542       38.266        0.031        0.012       19.332        0.454        0.001      343.549       19.739      861.237
09/03/2013  02:54:00       -5.698      -18.039       -4.578        6.190       10.314        5.440       38.313      106.369       29.593        0.028        0.009       18.917        3.243        0.029      343.604       19.831      861.239
09/03/2013  02:55:00       -4.436        3.707       -3.194        4.745        7.180        4.207       22.518       51.550       17.701        0.007        0.005        5.781        4.365        0.570      343.580       19.787      861.239
09/03/2013  02:56:00      -13.431        4.696       -1.913        4.160        3.202        2.868       17.309       10.252        8.224        0.012        0.002       14.228        2.091        0.022      343.622       19.861      861.230
09/03/2013  02:57:00      -30.270       -5.323       -3.887       17.494       11.445        8.949      306.046      130.985       80.080        0.074        0.026       30.734        7.167        0.054      343.604       19.831      861.218
09/03/2013  02:58:00      -26.146      -29.461       -2.763       27.575       15.061       10.495      760.397      226.844      110.142        0.133        0.055       39.390        9.619        0.060      343.543       19.728      861.212
09/03/2013  02:59:00      -22.606      -27.184        2.170       15.950       20.045       12.632      254.397      401.816      159.567        0.104        0.041       35.355       12.357        0.122      343.556       19.752      861.214
09/03/2013  03:00:00      -12.180       -9.132        3.724       21.439       13.681       11.406      459.637      187.164      130.107        0.051        0.039       15.223        8.643        0.322      343.542       19.727      861.219
09/03/2013  03:01:00      -22.273       -5.276       -0.380       22.046       10.993        8.267      486.005      120.844       68.349        0.060        0.034       22.890        7.879        0.118      343.548       19.737      861.224
09/03/2013  03:02:00      -53.364      -11.053       -2.155       13.048       11.604        7.302      170.249      134.643       53.326        0.167        0.018       54.496        7.244        0.018      343.589       19.808      861.220
09/03/2013  03:03:00      -52.845       21.998       -2.124       29.594       10.436        8.446      875.809      108.911       71.334        0.217        0.053       57.241       10.908        0.036      343.471       19.603      861.204
09/03/2013  03:04:00      -78.575        6.921       -9.385       15.384       17.326        9.672      236.656      300.174       93.547        0.347        0.032       78.880        5.403        0.005      343.458       19.582      861.190
09/03/2013  03:05:00      -41.528       -9.232        3.391       42.146       27.986       14.184     1776.273      783.195      201.185        0.229        0.138       42.542       16.506        0.151      343.357       19.410      861.195
09/03/2013  03:06:00      -69.234      -39.537        0.883       30.599       13.469       13.244      936.285      181.425      175.403        0.382        0.065       79.728       15.705        0.039      343.393       19.474      861.188
09/03/2013  03:07:00      -13.337      -25.077       -5.968       13.058       17.391       12.792      170.513      302.446      163.633        0.074        0.032       28.403        9.620        0.115      343.497       19.648      861.180
09/03/2013  03:08:00       -6.963        4.305       12.798       16.827       11.012       10.796      283.145      121.264      116.564        0.038        0.026        8.186        9.434        1.328      343.513       19.678      861.171
09/03/2013  03:09:00      -28.065       -6.617       -4.667       13.090        7.743        5.957      171.353       59.954       35.490        0.056        0.013       28.834        5.160        0.032      343.540       19.725      861.149
09/03/2013  03:10:00      -54.601       -6.157       -5.302       17.316       10.258        7.671      299.839      105.234       58.850        0.176        0.023       54.947        7.852        0.020      343.563       19.763      861.124
09/03/2013  03:11:00      -53.201        4.416       -5.641       13.619       13.972        8.904      185.489      195.216       79.290        0.167        0.023       53.384        7.521        0.020      343.472       19.607      861.108
09/03/2013  03:12:00      -79.894      -26.696       -5.679       22.044       16.763       10.960      485.926      281.008      120.118        0.401        0.044       84.236       10.920        0.017      343.455       19.580      861.094
09/03/2013  03:13:00      -76.001      -20.878       -7.604       10.373       10.458        7.001      107.598      109.375       49.019        0.327        0.013       78.817        4.998        0.004      343.433       19.537      861.095
09/03/2013  03:14:00      -45.393      -24.322       -2.903       20.986       18.674       11.436      440.410      348.724      130.784        0.179        0.046       51.499       12.090        0.055      343.450       19.568      861.102
09/03/2013  03:15:00      -54.623      -16.183        2.049       37.982       14.078       11.636     1442.652      198.199      135.402        0.251        0.089       56.970       16.600        0.085      343.473       19.609      861.103
09/03/2013  03:16:00      -65.673       -2.868        0.352       24.610       25.194       11.687      605.634      634.749      136.587        0.285        0.069       65.736        9.038        0.019      343.416       19.512      861.103
09/03/2013  03:17:00      -76.451        8.152       -9.965       17.396       14.651        9.876      302.623      214.643       97.529        0.331        0.031       76.885        5.433        0.005      343.294       19.305      861.096
09/03/2013  03:18:00      -93.620        5.976      -11.236       22.549       18.071       17.494      508.480      326.544      306.028        0.503        0.057       93.810       15.182        0.026      343.270       19.265      861.091
09/03/2013  03:19:00      -91.434       -8.461       -5.384       28.089       27.103       15.224      788.992      734.552      231.760        0.511        0.088       91.824       15.663        0.029      343.217       19.176      861.089
09/03/2013  03:20:00      -93.018      -33.965        1.697       35.228       35.155       19.321     1241.042     1235.842      373.299        0.633        0.143       99.025       22.284        0.051      343.215       19.170      861.089
09/03/2013  03:21:00      -87.968      -62.020        2.659       33.204       24.051       15.895     1102.517      578.472      252.660        0.676        0.097      107.633       15.442        0.021      343.279       19.279      861.097
09/03/2013  03:22:00     -103.815      -51.572       -2.498       26.222       21.530       16.708      687.609      463.558      279.169        0.744        0.072      115.919       14.733        0.016      343.242       19.216      861.104
09/03/2013  03:23:00     -106.635      -21.443       -6.287       30.599       24.470       14.678      936.295      598.776      215.432        0.681        0.088      108.770       16.220        0.022      343.228       19.192      861.087
09/03/2013  03:24:00     -114.059        8.561      -12.808       29.770       28.179       13.556      886.270      794.060      183.765        0.756        0.093      114.380       11.721        0.011      343.197       19.141      861.066
09/03/2013  03:25:00     -153.296       -8.781      -17.508       25.302       22.423       19.775      640.189      502.773      391.050        1.271        0.077      153.547       11.716        0.006      343.151       19.059      861.054
09/03/2013  03:26:00     -146.749      -55.304       -6.546       24.818       27.696       16.974      615.918      767.086      288.119        1.315        0.084      156.824       13.201        0.007      343.187       19.122      861.056
09/03/2013  03:27:00     -142.987      -23.992      -10.166       27.011       21.706       11.178      729.600      471.168      124.955        1.122        0.066      144.986        3.685        0.001      343.188       19.123      861.064
09/03/2013  03:28:00     -102.831      -17.844       -3.924       28.517       21.951       17.145      813.199      481.827      293.948        0.625        0.079      104.367       15.495        0.022      343.217       19.175      861.082
09/03/2013  03:29:00      -62.785      -29.402       -0.017       37.089       20.788       17.039     1375.621      432.127      290.333        0.345        0.105       69.328       20.497        0.087      343.211       19.164      861.083
09/03/2013  03:30:00      -82.968       -9.443        1.785       27.117       35.962       15.773      735.347     1293.244      248.779        0.463        0.114       83.504       14.117        0.029      343.243       19.219      861.081
09/03/2013  03:31:00     -111.586      -22.779       -4.903       39.332       24.636       17.160     1546.970      606.929      294.468        0.772        0.122      113.887       18.003        0.025      343.252       19.233      861.076
09/03/2013  03:32:00     -130.902      -36.550      -14.843       36.403       22.453       16.036     1325.161      504.149      257.138        1.039        0.104      135.909       12.600        0.009      343.219       19.177      861.067
09/03/2013  03:33:00     -107.443       -0.595      -12.873       23.954       21.488       14.645      573.792      461.718      214.478        0.648        0.062      107.444        8.016        0.006      343.232       19.198      861.061
09/03/2013  03:34:00      -96.338      -40.360       -7.079       19.307       18.042       11.864      372.759      325.499      140.758        0.590        0.042      104.451        9.806        0.009      343.262       19.250      861.058
09/03/2013  03:35:00      -84.316      -43.268       -9.795       17.207       16.855       11.892      296.068      284.083      141.419        0.490        0.036       94.770        8.853        0.009      343.242       19.216      861.071
09/03/2013  03:36:00      -68.758      -48.824       -8.076       24.418       14.626       17.204      596.255      213.917      295.972        0.414        0.055       84.329        6.121        0.005      343.292       19.300      861.071
09/03/2013  03:37:00      -62.388      -27.564       -4.988       20.112       11.396       11.530      404.492      129.875      132.945        0.267        0.033       68.206       12.232        0.032      343.288       19.294      861.051
09/03/2013  03:38:00      -88.700      -11.863       -9.089       12.326       10.563        9.778      151.931      111.570       95.615        0.422        0.018       89.490        7.058        0.006      343.325       19.356      861.021
09/03/2013  03:39:00     -100.453      -24.451      -13.454       12.209       12.693        8.361      149.064      161.121       69.907        0.562        0.019      103.386        4.822        0.002      343.359       19.415      861.003
09/03/2013  03:40:00      -88.676      -36.456       -0.747       13.188       11.198        9.352      173.935      125.388       87.464        0.479        0.019       95.878        7.032        0.005      343.400       19.484      860.989
09/03/2013  03:41:00      -90.557      -29.556       -4.207       20.506       13.418       11.040      420.476      180.047      121.886        0.491        0.036       95.258        6.287        0.004      343.423       19.525      860.994
09/03/2013  03:42:00      -94.950      -28.771       -3.846       17.203       17.675       11.131      295.929      312.421      123.901        0.530        0.037       99.213        9.602        0.009      343.406       19.494      861.007
09/03/2013  03:43:00      -84.406      -18.845       -3.872       22.647       21.269       12.616      512.899      452.349      159.173        0.431        0.056       86.485       12.688        0.022      343.356       19.410      861.014
09/03/2013  03:44:00      -88.827      -29.127       -2.447       18.788       15.595       10.035      352.993      243.190      100.699        0.472        0.035       93.481        9.155        0.010      343.374       19.441      861.007
09/03/2013  03:45:00      -59.282      -16.849        1.933       24.153       21.178       12.299      583.366      448.512      151.269        0.249        0.059       61.630       11.399        0.034      343.291       19.300      861.005
09/03/2013  03:46:00      -78.911       -6.336       -4.854       31.563       18.168       15.822      996.196      330.063      250.328        0.393        0.079       79.164       16.785        0.045      343.255       19.239      861.010
09/03/2013  03:47:00      -58.721      -11.657        0.694       23.381       27.663       14.933      546.660      765.246      223.004        0.256        0.077       59.866       11.853        0.039      343.144       19.050      861.027
09/03/2013  03:48:00      -65.178      -23.025        0.607       29.479       26.388       12.660      869.002      696.310      160.286        0.325        0.086       69.126       10.358        0.022      343.116       19.001      861.054
09/03/2013  03:49:00      -63.345      -37.653       -4.080       21.910       28.217       10.757      480.046      796.184      115.702        0.342        0.070       73.691       10.597        0.021      343.075       18.933      861.071
09/03/2013  03:50:00      -69.534      -19.568       -4.721       18.944       26.882       11.183      358.878      722.641      125.049        0.322        0.060       72.235        7.558        0.011      343.033       18.860      861.067
09/03/2013  03:51:00      -57.229       -7.907        0.093       24.120       14.864       13.502      581.777      220.943      182.311        0.216        0.049       57.772       14.825        0.066      342.969       18.750      861.042
09/03/2013  03:52:00      -44.377        7.783       -0.613       23.561       10.294       10.095      555.117      105.964      101.908        0.140        0.038       45.055        7.415        0.027      343.055       18.896      861.036
09/03/2013  03:53:00      -30.567      -10.377       -7.720       22.126       13.336        9.424      489.543      177.856       88.807        0.093        0.038       32.280        3.744        0.013      343.047       18.882      861.035
09/03/2013  03:54:00      -68.883       -8.699       -8.146       12.159        9.638        7.473      147.830       92.892       55.852        0.259        0.015       69.430        6.148        0.008      343.049       18.887      861.030
09/03/2013  03:55:00      -65.667      -17.073       -6.296       15.684       11.782        7.299      245.988      138.818       53.270        0.254        0.022       67.850        6.526        0.009      343.097       18.970      861.017
09/03/2013  03:56:00      -83.115      -30.524       -2.048       16.037       12.106       10.506      257.192      146.558      110.382        0.418        0.026       88.543        3.048        0.001      343.134       19.032      861.006
09/03/2013  03:57:00      -88.228      -52.709       -2.173       12.567       12.273        9.863      157.935      150.623       97.276        0.549        0.020      102.774        2.483        0.001      343.130       19.024      860.990
09/03/2013  03:58:00      -69.585      -37.115        1.954       32.065       18.386       19.238     1028.154      338.052      370.099        0.398        0.087       78.864       17.539        0.049      343.090       18.957      860.993
09/03/2013  03:59:00      -34.096      -26.293        8.371       37.197       22.638       16.469     1383.645      512.472      271.239        0.205        0.108       43.057       16.499        0.147      343.075       18.932      860.989
09/03/2013  04:00:00      -51.907      -45.525        1.864       29.770       22.084       17.351      886.251      487.697      301.068        0.322        0.084       69.042       11.226        0.026      343.115       19.000      860.982
09/03/2013  04:01:00      -83.956      -67.223       -4.620       18.729       28.594       16.884      350.775      817.624      285.084        0.652        0.073      107.552       14.425        0.018      343.224       19.185      860.954
09/03/2013  04:02:00      -66.989      -51.830        2.075       30.365       35.311       21.893      922.026     1246.898      479.294        0.491        0.132       84.699       21.513        0.065      343.227       19.190      860.933
09/03/2013  04:03:00      -62.086      -56.033        2.421       40.817       24.320       22.709     1666.028      591.458      515.686        0.489        0.139       83.633       21.001        0.063      343.235       19.204      860.920
09/03/2013  04:04:00      -70.071      -61.486        6.227       48.407       35.360       24.195     2343.259     1250.312      585.393        0.645        0.209       93.223       26.433        0.080      343.221       19.181      860.913
09/03/2013  04:05:00      -60.085      -47.681       11.417       54.384       32.507       27.340     2957.617     1056.732      747.476        0.539        0.238       76.705       30.505        0.158      343.194       19.135      860.907
09/03/2013  04:06:00      -90.162      -65.705        5.095       38.523       29.898       23.645     1484.039      893.889      559.089        0.770        0.147      111.563       18.477        0.027      343.226       19.188      860.900
09/03/2013  04:07:00      -87.968      -45.444        3.634       55.690       34.834       27.033     3101.421     1213.430      730.781        0.743        0.252       99.012       24.433        0.061      343.265       19.253      860.888
09/03/2013  04:08:00     -101.164      -40.124       -2.093       40.239       44.759       23.499     1619.163     2003.362      552.223        0.801        0.209      108.830       21.330        0.038      343.173       19.099      860.888
09/03/2013  04:09:00     -124.448        1.622      -10.435       35.459       28.403       22.245     1257.372      806.706      494.840        0.908        0.128      124.459       20.758        0.028      342.958       18.731      860.889
09/03/2013  04:10:00     -112.670      -36.984       -4.117       40.941       28.229       16.885     1676.203      796.867      285.105        0.842        0.138      118.585       18.648        0.025      343.017       18.832      860.909
09/03/2013  04:11:00      -85.322      -47.682        4.032       31.805       27.637       21.419     1011.552      763.817      458.787        0.590        0.112       97.741       16.641        0.029      343.006       18.813      860.933
09/03/2013  04:12:00      -95.351      -46.574       -1.640       24.494       21.371       15.955      599.958      456.728      254.568        0.629        0.066      106.118       14.534        0.019      342.986       18.780      860.949
09/03/2013  04:13:00     -105.083      -11.978       -6.107       20.680       20.301       15.544      427.669      412.123      241.624        0.615        0.054      105.764       13.240        0.016      342.985       18.778      860.968
09/03/2013  04:14:00     -116.195      -23.324      -10.966       12.658       18.575       15.948      160.222      345.029      254.354        0.746        0.038      118.512       10.718        0.008      343.055       18.899      860.984
09/03/2013  04:15:00      -85.795      -30.338       -8.150       19.575       15.864        9.623      383.196      251.682       92.609        0.454        0.036       91.001        5.995        0.004      343.019       18.836      860.995
09/03/2013  04:16:00      -87.791      -13.765        1.019       45.697       27.877       18.014     2088.212      777.129      324.493        0.554        0.159       88.863       19.894        0.050      343.063       18.910      861.007
09/03/2013  04:17:00     -100.722      -30.434       -5.314       16.841       25.039       13.725      283.622      626.945      188.382        0.610        0.055      105.220       10.092        0.009      343.099       18.973      861.029
09/03/2013  04:18:00     -104.820       25.215      -11.110       22.558       18.930       12.941      508.850      358.355      167.471        0.639        0.052      107.810       11.004        0.010      343.066       18.917      861.031
09/03/2013  04:19:00     -107.893       38.366       -3.222       38.412       21.825       20.695     1475.515      476.312      428.300        0.775        0.119      114.512       18.752        0.027      343.080       18.940      861.023
09/03/2013  04:20:00     -151.006       49.207      -15.008       32.496       29.968       19.913     1055.959      898.069      396.544        1.390        0.118      158.821       11.928        0.006      343.212       19.165      861.017
09/03/2013  04:21:00     -112.657       35.663       -3.799       29.980       20.252       15.339      898.798      410.128      235.299        0.776        0.077      118.167       15.575        0.017      343.226       19.188      861.015
09/03/2013  04:22:00      -70.867       32.228       -1.753       26.649       22.399       12.206      710.150      501.728      148.980        0.371        0.068       77.851        8.800        0.013      343.223       19.183      861.035
09/03/2013  04:23:00      -47.984       10.981       -3.957       25.209       11.476       11.555      635.500      131.688      133.529        0.167        0.045       49.225       11.175        0.052      343.180       19.111      861.052
09/03/2013  04:24:00      -51.513       20.647       -2.848       16.763       29.405       12.258      280.983      864.655      150.270        0.219        0.065       55.497        9.985        0.032      343.272       19.266      861.055
09/03/2013  04:25:00      -73.843       33.207      -12.453       11.989       16.469       11.175      143.746      271.212      124.891        0.363        0.027       80.966        6.164        0.006      343.272       19.268      861.052
09/03/2013  04:26:00      -88.529       31.170      -10.943       26.103       17.863       13.818      681.361      319.100      190.936        0.506        0.060       93.856       10.377        0.012      343.373       19.438      861.054
09/03/2013  04:27:00      -54.592       27.966       -3.557       30.285       18.706       14.207      917.160      349.900      201.851        0.262        0.073       61.338        8.768        0.020      343.425       19.527      861.054
09/03/2013  04:28:00      -36.973        8.669       -9.204       18.596       15.246       13.151      345.812      232.435      172.947        0.114        0.038       37.976        9.302        0.060      343.388       19.465      861.054
09/03/2013  04:29:00      -33.618        5.460       -9.119       11.240        8.539        7.535      126.340       72.921       56.779        0.075        0.013       34.059        5.646        0.027      343.242       19.219      861.043
09/03/2013  04:30:00      -28.457       -6.423       -7.657       11.867       10.507        8.227      140.836      110.388       67.690        0.061        0.016       29.173        6.991        0.057      343.257       19.242      861.027
09/03/2013  04:31:00      -21.465      -19.063       -5.426        8.268        9.456        9.239       68.367       89.424       85.362        0.055        0.012       28.708        7.033        0.060      343.265       19.254      861.005
09/03/2013  04:32:00      -17.747       -4.724       -6.561        8.266        8.792        4.459       68.324       77.297       19.879        0.027        0.008       18.365        3.769        0.042      343.289       19.296      860.987
09/03/2013  04:33:00      -41.914      -20.448       -6.776        7.461        7.836        4.760       55.666       61.407       22.655        0.118        0.007       46.636        2.244        0.002      343.182       19.114      860.963
09/03/2013  04:34:00      -45.665      -23.660       -7.441        9.785        6.909        5.569       95.750       47.729       31.019        0.144        0.009       51.431        3.891        0.006      343.101       18.976      860.940
09/03/2013  04:35:00      -61.778      -20.236       -9.520       12.581        8.752        6.486      158.290       76.604       42.068        0.230        0.014       65.008        3.952        0.004      343.110       18.992      860.927
09/03/2013  04:36:00      -66.944      -19.128       -3.805       18.023       10.656        8.811      324.826      113.542       77.633        0.269        0.026       69.623        8.913        0.016      343.087       18.953      860.923
09/03/2013  04:37:00      -72.036      -31.313      -11.528       14.138       15.922        8.212      199.869      253.495       67.434        0.341        0.026       78.548        4.676        0.004      343.029       18.854      860.915
09/03/2013  04:38:00      -67.662      -40.413       -5.130       11.483       13.187        7.126      131.860      173.901       50.775        0.330        0.018       78.812        6.595        0.007      343.057       18.900      860.915
09/03/2013  04:39:00      -30.154      -44.543        7.334       29.146       14.103       16.102      849.475      198.906      259.271        0.213        0.065       53.790       18.155        0.114      343.078       18.937      860.916
09/03/2013  04:40:00      -20.062      -33.885        8.396       21.124       25.507       17.898      446.209      650.594      320.334        0.152        0.071       39.378       17.201        0.191      343.026       18.849      860.925
09/03/2013  04:41:00      -23.360       -4.866        2.227       27.707       11.051        7.617      767.668      122.130       58.014        0.076        0.047       23.861        9.750        0.167      342.985       18.778      860.924
09/03/2013  04:42:00      -47.734        4.145       -5.880       25.749       15.377       11.006      663.026      236.455      121.124        0.168        0.051       47.914       12.392        0.067      343.044       18.879      860.924
09/03/2013  04:43:00      -65.985      -10.621       -3.128       21.948       20.720       14.647      481.720      429.321      214.546        0.280        0.056       66.835       12.439        0.035      343.022       18.842      860.917
09/03/2013  04:44:00      -52.255        4.207       -2.935       23.740       21.046       13.727      563.595      442.944      188.440        0.198        0.060       52.424       12.885        0.060      343.023       18.842      860.918
09/03/2013  04:45:00      -42.059       -6.726       -2.193       24.916       21.229       14.965      620.800      450.692      223.965        0.156        0.065       42.594       13.678        0.103      342.966       18.746      860.930
09/03/2013  04:46:00      -39.089       -6.806       -5.546       22.403       19.119       13.539      501.895      365.554      183.291        0.133        0.053       39.677       14.193        0.128      342.960       18.736      860.939
09/03/2013  04:47:00      -46.986       -8.704       -8.523       16.519       18.931        9.762      272.880      358.371       95.287        0.154        0.036       47.786        8.922        0.035      343.014       18.828      860.942
09/03/2013  04:48:00      -36.562      -22.184       -2.691       16.378       20.752       11.393      268.248      430.662      129.811        0.133        0.041       42.766        4.579        0.011      343.007       18.816      860.944
09/03/2013  04:49:00      -60.869      -29.355       -4.846       13.723       12.991        9.684      188.329      168.761       93.784        0.252        0.023       67.578        9.190        0.018      342.984       18.777      860.951
09/03/2013  04:50:00      -27.719      -14.789       -5.766       12.861       10.056        5.954      165.412      101.124       35.453        0.066        0.015       31.418        4.076        0.017      343.013       18.824      860.953
09/03/2013  04:51:00      -13.569       -8.730       -3.502        8.939        8.963        7.216       79.903       80.338       52.071        0.024        0.011       16.134        4.714        0.085      342.992       18.789      860.960
09/03/2013  04:52:00      -38.028       25.419       -7.196       11.283       13.267       11.657      127.307      176.006      135.891        0.129        0.022       45.741       10.345        0.051      343.174       19.100      860.956
09/03/2013  04:53:00      -34.298       10.385       -5.037       10.743       10.427        7.514      115.414      108.720       56.453        0.080        0.014       35.835        4.957        0.019      343.114       18.997      860.962
09/03/2013  04:54:00      -23.825       -0.993       -9.131        6.848       17.895        5.314       46.897      320.240       28.241        0.052        0.020       23.846        1.493        0.004      343.183       19.115      860.973
09/03/2013  04:55:00      -33.317      -13.595       -2.973       20.571        7.941        5.828      423.161       63.060       33.965        0.091        0.026       35.983        7.940        0.049      343.175       19.103      860.983
09/03/2013  04:56:00      -80.719      -14.194      -13.713       13.976       11.480        9.035      195.322      131.796       81.635        0.366        0.020       81.957        7.214        0.008      343.027       18.850      860.990
09/03/2013  04:57:00     -108.059      -27.699       -5.445       25.509       21.262       13.720      650.710      452.053      188.229        0.688        0.065      111.552       11.914        0.011      342.850       18.546      860.999
09/03/2013  04:58:00     -128.481        3.162      -12.529       46.736       26.012       22.189     2184.299      676.622      492.339        1.001        0.168      128.519       24.416        0.036      342.727       18.340      861.012
09/03/2013  04:59:00      -85.754       11.116       -3.992       33.695       31.306       21.582     1135.357      980.067      465.775        0.504        0.129       86.472       17.855        0.043      342.678       18.254      861.018
09/03/2013  05:00:00     -127.869        0.458      -14.816       28.935       26.561       12.689      837.239      705.484      161.023        0.914        0.085      127.869        7.085        0.003      342.756       18.388      861.015
09/03/2013  05:01:00      -95.256        7.297       -9.511       25.448       17.404       13.081      647.623      302.894      171.117        0.517        0.056       95.535       11.197        0.014      342.720       18.327      861.020
09/03/2013  05:02:00      -98.274       14.545       -4.231       24.887       24.137       16.668      619.371      582.574      277.834        0.568        0.074       99.345       14.642        0.022      342.757       18.387      861.023
09/03/2013  05:03:00      -78.098       -0.370       -6.658       23.286       24.471       15.871      542.225      598.854      251.892        0.377        0.070       78.099        8.777        0.013      342.741       18.362      861.020
09/03/2013  05:04:00      -40.645        5.745       -5.144       21.200       12.238       11.429      449.448      149.764      130.630        0.122        0.036       41.049        7.912        0.037      342.751       18.379      861.029
09/03/2013  05:05:00      -56.063       15.834      -12.167       20.247       23.509       15.433      409.927      552.684      238.175        0.237        0.060       58.256       12.905        0.049      342.873       18.588      861.036
09/03/2013  05:06:00      -39.388        7.277       -9.391       17.495       16.280       15.273      306.063      265.037      233.273        0.125        0.040       40.055        8.727        0.047      342.872       18.584      861.046
09/03/2013  05:07:00      -17.286       14.193       -4.188       11.175       13.638        8.162      124.890      185.996       66.626        0.045        0.019       22.366        9.308        0.173      342.896       18.628      861.053
09/03/2013  05:08:00        6.607       21.906        2.082       13.268       21.842       12.523      176.028      477.068      156.821        0.067        0.040       22.881       10.540        0.212      342.987       18.781      861.058
09/03/2013  05:09:00       27.250       23.443      -10.827       13.990       36.965       22.050      195.718     1366.377      486.183        0.173        0.102       35.946       10.159        0.080      343.091       18.958      861.069
09/03/2013  05:10:00       24.151       12.708       -5.610       12.783       23.840       18.667      163.404      568.344      348.462        0.093        0.054       27.290       10.146        0.138      342.937       18.697      861.087
09/03/2013  05:11:00        8.368        7.002        0.792       10.622        7.492        5.683      112.820       56.135       32.300        0.016        0.010       10.912        4.310        0.156      343.107       18.984      861.092
09/03/2013  05:12:00      -24.528       -8.681       -3.492       16.004       10.727        8.824      256.124      115.072       77.869        0.057        0.022       26.019       10.904        0.176      342.989       18.783      861.111
09/03/2013  05:13:00      -68.257      -16.554       -8.501        6.429        6.550        5.095       41.326       42.907       25.962        0.256        0.006       70.235        4.212        0.004      342.817       18.493      861.131
09/03/2013  05:14:00      -81.525      -26.781       -5.341       16.641       10.967        6.341      276.927      120.277       40.205        0.391        0.022       85.811        4.864        0.003      342.742       18.364      861.149
09/03/2013  05:15:00      -90.772      -23.739      -11.150       13.059       13.217        9.274      170.543      174.682       86.002        0.468        0.022       93.825        5.795        0.004      342.811       18.485      861.168
09/03/2013  05:16:00      -95.961      -38.361       -3.479       18.027       18.123       10.744      324.974      328.435      115.439        0.573        0.038      103.344        5.604        0.003      342.787       18.440      861.193
09/03/2013  05:17:00      -85.979      -43.429       -7.002       22.699       20.036       14.571      515.257      401.442      212.318        0.523        0.056       96.325       12.262        0.016      342.743       18.364      861.208
09/03/2013  05:18:00      -72.521      -27.979       -6.036       21.548       13.557       11.632      464.308      183.789      135.305        0.343        0.039       77.731        9.992        0.017      342.666       18.237      861.217
09/03/2013  05:19:00      -63.163      -19.637       -1.448       20.808       14.455       10.995      432.956      208.940      120.885        0.257        0.038       66.145        9.954        0.023      342.663       18.231      861.222
09/03/2013  05:20:00      -58.846       -9.776       -7.431       15.210       12.954        8.513      231.355      167.814       72.476        0.204        0.024       59.652        7.394        0.015      342.667       18.237      861.236
09/03/2013  05:21:00      -50.472       -1.667      -10.708       12.384        5.485        6.422      153.374       30.088       41.243        0.144        0.011       50.499        3.871        0.006      342.738       18.356      861.244
09/03/2013  05:22:00      -10.153       -3.134       -3.078       32.714       18.851       18.640     1070.199      355.349      347.466        0.095        0.089       10.626        7.123        0.449      342.672       18.246      861.237
09/03/2013  05:23:00      -12.905       -4.079        3.821       19.941       13.392       14.062      397.624      179.352      197.742        0.049        0.039       13.534       10.972        0.657      342.607       18.136      861.225
09/03/2013  05:24:00      -51.301        1.200       -7.495       12.025        8.136        8.096      144.598       66.198       65.540        0.148        0.014       51.315        5.278        0.011      342.687       18.271      861.205
09/03/2013  05:25:00      -44.928      -10.459       -9.007       13.417       10.608        8.525      180.013      112.526       72.668        0.129        0.018       46.129        3.295        0.005      342.731       18.346      861.199
09/03/2013  05:26:00      -45.723       -3.317      -12.341       10.288       10.136        8.731      105.853      102.740       76.233        0.127        0.014       45.843        6.716        0.021      342.713       18.315      861.205
09/03/2013  05:27:00      -50.589      -11.804       -8.981       15.120       10.545        7.174      228.615      111.207       51.466        0.159        0.020       51.947        7.491        0.021      342.745       18.371      861.196
09/03/2013  05:28:00      -67.439      -21.460      -11.185        9.468        9.501        6.669       89.638       90.266       44.471        0.268        0.011       70.772        5.223        0.005      342.704       18.296      861.194
09/03/2013  05:29:00      -62.384      -23.587       -7.683        8.590       10.547        8.973       73.785      111.236       80.507        0.239        0.013       66.694        4.600        0.005      342.661       18.225      861.189
09/03/2013  05:30:00      -49.543      -14.356       -1.479       10.952        8.708        6.800      119.940       75.822       46.246        0.145        0.012       51.581        5.695        0.012      342.653       18.211      861.181
09/03/2013  05:31:00      -26.832      -11.966       -7.672        5.919        4.580        4.377       35.037       20.976       19.162        0.050        0.004       29.380        0.837        0.001      342.702       18.294      861.166
09/03/2013  05:32:00      -11.156       -3.301       -4.742        4.039        5.606        3.283       16.312       31.426       10.780        0.011        0.003       11.634        3.274        0.079      342.726       18.337      861.160
09/03/2013  05:33:00       -3.297        9.262       -0.626        5.310        5.675        3.577       28.194       32.201       12.794        0.009        0.004        9.832        2.414        0.060      342.939       18.700      861.145
09/03/2013  05:34:00       26.890       11.551       -1.337       16.706       15.520       11.636      279.083      240.876      135.401        0.076        0.033       29.266        7.131        0.059      342.901       18.632      861.133
09/03/2013  05:35:00       28.311        1.653       -1.712       10.625       21.993       12.289      112.893      483.674      151.013        0.078        0.037       28.359        9.594        0.114      342.888       18.614      861.124
09/03/2013  05:36:00        2.768      -23.260       -0.417       13.818       14.640       10.873      190.940      214.343      118.216        0.054        0.026       23.424        5.171        0.049      342.674       18.247      861.111
09/03/2013  05:37:00        1.719      -40.622       -3.754        9.587       14.019       13.324       91.910      196.520      177.521        0.107        0.023       40.658        7.094        0.030      342.640       18.189      861.108
09/03/2013  05:38:00      -26.917       -2.112       -2.164       17.823       10.687        8.812      317.675      114.218       77.645        0.062        0.025       27.000        7.911        0.086      342.633       18.181      861.093
09/03/2013  05:39:00      -36.574       -3.352       -9.728        6.582        8.001        5.472       43.317       64.022       29.941        0.079        0.007       36.727        4.822        0.017      342.658       18.223      861.078
09/03/2013  05:40:00      -31.222      -20.284       -6.219       11.235       10.475        7.660      126.228      109.728       58.681        0.086        0.015       37.232        5.387        0.021      342.736       18.353      861.061
09/03/2013  05:41:00      -46.602      -25.255       -8.199       12.540        7.668        8.519      157.259       58.801       72.577        0.158        0.014       53.006        4.561        0.007      342.638       18.187      861.059
09/03/2013  05:42:00      -30.999      -25.723        3.501       19.529       10.894       15.563      381.397      118.677      242.196        0.119        0.037       40.281       14.643        0.132      342.585       18.099      861.079
09/03/2013  05:43:00      -32.585      -30.428       -6.024       16.144        9.928       11.062      260.637       98.571      122.369        0.125        0.024       44.583        7.036        0.025      342.659       18.223      861.083
09/03/2013  05:44:00      -58.584      -35.577      -15.790       13.203       11.321        9.169      174.314      128.158       84.077        0.267        0.019       68.541        5.022        0.005      342.602       18.123      861.067
09/03/2013  05:45:00      -65.407      -31.817      -11.267       11.399        9.968        9.719      129.932       99.365       94.467        0.287        0.016       72.735        4.627        0.004      342.556       18.049      861.058
09/03/2013  05:46:00      -68.441      -30.972       -4.629       13.762       10.573        9.542      189.386      111.798       91.040        0.303        0.020       75.123        5.019        0.004      342.503       17.960      861.066
09/03/2013  05:47:00      -63.166      -38.220       -6.523       18.647        8.031        8.383      347.712       64.505       70.280        0.299        0.024       73.829        7.612        0.011      342.513       17.979      861.079
09/03/2013  05:48:00      -97.861      -40.964       -8.485       18.056       18.439       12.822      326.011      339.995      164.409        0.608        0.042      106.089        3.575        0.001      342.520       17.990      861.067
09/03/2013  05:49:00     -109.051      -32.618       -9.288       22.343       21.083       14.832      499.221      444.472      219.994        0.710        0.058      113.825       10.698        0.009      342.528       18.000      861.059
09/03/2013  05:50:00     -110.178      -31.075       -9.513       16.156       17.555       12.229      261.004      308.179      149.536        0.696        0.036      114.476        8.031        0.005      342.436       17.843      861.074
09/03/2013  05:51:00      -98.979      -36.638      -10.004       18.711       20.235       11.815      350.110      409.438      139.600        0.607        0.045      105.543        8.906        0.007      342.372       17.735      861.076
09/03/2013  05:52:00     -108.864      -28.594      -13.851       27.903       20.845       14.151      778.556      434.518      200.247        0.714        0.071      112.557        9.568        0.007      342.382       17.753      861.080
09/03/2013  05:53:00      -44.485       -5.839        4.192       55.434       28.573       22.413     3072.952      816.424      502.359        0.321        0.220       44.867       29.428        0.430      342.311       17.632      861.090
09/03/2013  05:54:00        2.569        1.342        6.448       22.547       16.648       16.546      508.359      277.155      273.766        0.055        0.053        2.899       16.580       32.719      342.359       17.714      861.093
09/03/2013  05:55:00      -27.781        0.399        3.684       39.105       25.379       18.876     1529.195      644.109      356.292        0.166        0.126       27.783       16.030        0.333      342.368       17.727      861.103
09/03/2013  05:56:00      -93.592      -32.115       -4.266       27.651       36.090       17.864      764.553     1302.466      319.122        0.610        0.119       98.949       10.508        0.011      342.396       17.775      861.112
09/03/2013  05:57:00      -77.443      -41.377       -6.625       45.226       34.452       24.201     2045.410     1186.923      585.707        0.578        0.191       87.804       31.268        0.127      342.273       17.567      861.116
09/03/2013  05:58:00      -26.414       -5.661        8.622       30.580       27.197       16.498      935.160      739.691      272.174        0.138        0.097       27.014        9.980        0.136      342.282       17.582      861.114
09/03/2013  05:59:00      -61.815      -29.691       -4.395       15.144       13.537       12.080      229.353      183.262      145.921        0.264        0.028       68.576        9.870        0.021      342.359       17.713      861.116
09/03/2013  06:00:00      -28.657      -42.288       -4.801       19.847       13.427       11.047      393.914      180.286      122.031        0.166        0.035       51.083        7.478        0.021      342.340       17.681      861.115
09/03/2013  06:01:00        1.193      -31.146       -6.462       12.903        9.267       10.381      166.486       85.885      107.760        0.069        0.018       31.169        7.050        0.051      342.286       17.587      861.118
09/03/2013  06:02:00      -16.655      -22.203      -15.309       21.625       18.465       10.765      467.653      340.949      115.893        0.096        0.046       27.755        6.019        0.047      342.353       17.704      861.118
09/03/2013  06:03:00      -52.562      -32.211       -9.300       15.235       15.488       11.959      232.091      239.872      143.027        0.225        0.031       61.646        8.303        0.018      342.396       17.774      861.127
09/03/2013  06:04:00      -58.914      -37.253       -8.698       17.617       12.050       10.405      310.372      145.198      108.273        0.275        0.028       69.704        6.963        0.010      342.310       17.632      861.132
09/03/2013  06:05:00      -23.972      -33.118        3.450       17.975       11.954       15.606      323.102      142.889      243.557        0.120        0.035       40.884        7.010        0.029      342.348       17.694      861.139
09/03/2013  06:06:00      -24.196      -37.950        3.190       23.874       13.971       12.764      569.953      195.200      162.927        0.148        0.046       45.007        6.176        0.019      342.423       17.820      861.132
09/03/2013  06:07:00      -57.413      -29.893      -13.290       14.566        8.774        8.194      212.180       76.977       67.150        0.236        0.018       64.729        5.610        0.008      342.384       17.756      861.125
09/03/2013  06:08:00      -79.504      -29.928      -10.251       20.034       15.678       14.688      401.343      245.799      215.738        0.409        0.043       84.951       10.297        0.015      342.380       17.749      861.124
09/03/2013  06:09:00      -83.883      -35.381       -9.669       11.041       10.031       10.370      121.895      100.629      107.528        0.436        0.017       91.040        4.267        0.002      342.367       17.727      861.125
09/03/2013  06:10:00      -63.579      -31.986       -4.437       22.421       19.356       15.708      502.693      374.663      246.734        0.310        0.056       71.172       13.713        0.037      342.340       17.682      861.125
09/03/2013  06:11:00      -42.435      -40.491       -8.446       16.918       12.231       11.568      286.231      149.591      133.826        0.204        0.028       58.654        6.267        0.011      342.437       17.846      861.145
09/03/2013  06:12:00      -43.885      -27.092       -7.966       10.673        8.053        8.819      113.912       64.849       77.773        0.149        0.013       51.574        3.054        0.004      342.337       17.675      861.167
09/03/2013  06:13:00      -22.044      -22.329       -4.678       13.412        7.773        6.343      179.874       60.418       40.237        0.064        0.014       31.376        3.776        0.014      342.376       17.744      861.187
09/03/2013  06:14:00        8.965       -6.192        3.340        8.622        7.912        6.613       74.342       62.596       43.734        0.016        0.009       10.895        4.981        0.209      342.419       17.815      861.209
09/03/2013  06:15:00       18.562        5.098        2.584       10.234        5.496        5.443      104.735       30.207       29.626        0.027        0.008       19.249        1.097        0.003      342.480       17.917      861.230
09/03/2013  06:16:00       13.523        6.789        3.144        8.110        4.159        5.495       65.768       17.301       30.196        0.018        0.006       15.131        4.656        0.095      342.489       17.932      861.236
09/03/2013  06:17:00       -9.580        6.415        0.266       10.239        7.053        4.192      104.834       49.739       17.575        0.015        0.009       11.529        5.783        0.252      342.514       17.976      861.232
09/03/2013  06:18:00      -34.698      -10.201       -7.836       10.778       14.382        8.422      116.173      206.839       70.927        0.088        0.020       36.166       10.614        0.086      342.473       17.906      861.227
09/03/2013  06:19:00      -67.186      -29.166      -12.279       27.562       15.012       10.546      759.661      225.367      111.214        0.331        0.055       73.244        6.183        0.007      342.251       17.530      861.228
09/03/2013  06:20:00      -92.204      -32.693      -16.649       13.044       18.530       10.474      170.140      343.371      109.713        0.524        0.031       97.829       10.020        0.010      342.160       17.375      861.243
09/03/2013  06:21:00      -79.352      -32.378       -9.317       19.778       21.888       18.924      391.155      479.091      358.129        0.433        0.061       85.703       11.300        0.017      342.208       17.457      861.258
09/03/2013  06:22:00      -99.262      -25.042      -16.201       26.281       12.458       15.042      690.673      155.196      226.253        0.591        0.054      102.372       12.537        0.015      342.026       17.147      861.260
09/03/2013  06:23:00     -106.414      -31.935       -9.778       16.003       18.465       10.233      256.087      340.968      104.706        0.657        0.035      111.103        6.147        0.003      342.013       17.124      861.256
09/03/2013  06:24:00      -75.996       -3.987       -5.088       53.722       25.823       20.670     2886.104      666.843      427.230        0.490        0.199       76.100       20.364        0.072      342.080       17.239      861.242
09/03/2013  06:25:00      -18.791       24.381       -6.328       34.366       32.307       20.026     1180.993     1043.764      401.056        0.181        0.131       30.783       12.339        0.161      342.305       17.621      861.238
09/03/2013  06:26:00      -45.217       40.850       -9.692       22.169       28.626       22.208      491.466      819.424      493.204        0.281        0.090       60.936       15.192        0.062      342.325       17.655      861.249
09/03/2013  06:27:00      -45.952      -34.681        6.421       23.190       24.411       14.542      537.777      595.882      211.458        0.235        0.067       57.571       14.125        0.060      342.237       17.507      861.274
09/03/2013  06:28:00       -8.258      -33.275        5.019       33.008       23.407       16.768     1089.532      547.884      281.182        0.156        0.096       34.284        6.108        0.032      342.125       17.314      861.302
09/03/2013  06:29:00      -34.193      -21.052       -5.673       24.083       11.397       10.562      580.014      129.897      111.562        0.123        0.041       40.154       10.744        0.072      342.056       17.200      861.330
09/03/2013  06:30:00      -54.307      -32.920       -6.723       19.083       18.737       13.638      364.165      351.064      186.001        0.249        0.045       63.506        8.098        0.016      342.114       17.296      861.350
09/03/2013  06:31:00      -78.283      -17.922      -13.972        8.866        9.321        5.431       78.612       86.890       29.494        0.342        0.010       80.308        3.191        0.002      342.107       17.286      861.339
09/03/2013  06:32:00      -94.839      -26.782      -16.181        9.838       10.813        6.907       96.784      116.916       47.709        0.512        0.013       98.548        3.411        0.001      342.176       17.401      861.323
09/03/2013  06:33:00     -103.598      -34.798      -15.481        6.518        9.493        7.285       42.481       90.111       53.068        0.618        0.009      109.286        3.047        0.001      342.150       17.360      861.319
09/03/2013  06:34:00     -100.111      -51.358      -14.725       11.185       12.263        9.427      125.113      150.390       88.874        0.662        0.018      112.516        5.774        0.003      342.100       17.270      861.316
09/03/2013  06:35:00     -102.955      -52.976       -7.269       28.849       17.291       14.299      832.290      298.966      204.460        0.740        0.067      115.785       17.071        0.022      342.146       17.352      861.340
09/03/2013  06:36:00      -79.143      -44.413        2.795       31.198       22.194       19.597      973.287      492.590      384.026        0.505        0.092       90.753       17.261        0.036      342.124       17.314      861.372
09/03/2013  06:37:00      -62.269      -36.018        0.875       29.552       17.682       12.471      873.348      312.639      155.527        0.326        0.067       71.936       11.507        0.026      342.151       17.360      861.381
09/03/2013  06:38:00      -75.261      -41.235       -3.969       24.997       19.023       16.073      624.839      361.890      258.348        0.431        0.062       85.817       12.038        0.020      342.301       17.613      861.388
09/03/2013  06:39:00      -54.187      -40.212        0.116       24.636       16.477       13.539      606.956      271.498      183.306        0.281        0.053       67.477       11.624        0.030      342.303       17.617      861.388
09/03/2013  06:40:00      -66.788      -23.513       -4.600       26.481       11.862        9.884      701.217      140.703       97.684        0.299        0.047       70.806       10.147        0.021      342.232       17.497      861.389
09/03/2013  06:41:00     -107.655      -14.168      -17.113       16.384       14.146        9.990      268.433      200.108       99.791        0.633        0.028      108.583        5.808        0.003      342.270       17.562      861.396
09/03/2013  06:42:00     -108.031      -10.518      -11.231       19.429       16.669       13.644      377.504      277.858      186.162        0.637        0.042      108.542        9.335        0.007      342.150       17.358      861.415
09/03/2013  06:43:00      -92.874      -14.462       -8.223       25.415       16.529       12.194      645.945      273.217      148.698        0.498        0.053       93.993        6.923        0.005      342.059       17.204      861.441
09/03/2013  06:44:00      -94.894      -11.608       -6.812       21.259       21.442       16.021      451.958      459.774      256.660        0.518        0.058       95.602       13.486        0.020      342.038       17.169      861.459
09/03/2013  06:45:00      -67.138      -10.000       -4.548       29.738       14.558       16.337      884.349      211.939      266.892        0.300        0.068       67.879       18.405        0.074      342.016       17.132      861.474
09/03/2013  06:46:00      -59.811        8.327       -9.733       21.967       17.439       12.379      482.564      304.129      153.240        0.234        0.047       60.387       10.582        0.031      341.991       17.089      861.476
09/03/2013  06:47:00      -90.738       12.275       -5.316       24.051       17.232       14.693      578.460      296.947      215.875        0.475        0.055       91.565       11.981        0.017      342.111       17.291      861.479
09/03/2013  06:48:00      -93.829       -5.155       -8.508       27.270       23.024       18.072      743.641      530.092      326.609        0.525        0.080       93.970       14.075        0.022      342.125       17.317      861.470
09/03/2013  06:49:00     -113.811       -0.956      -10.663       30.938       29.268       15.722      957.181      856.630      247.184        0.756        0.103      113.815       14.417        0.016      342.078       17.238      861.466
09/03/2013  06:50:00     -100.243      -13.165      -11.433       30.747       32.093       15.086      945.395     1029.938      227.591        0.628        0.110      101.104       10.247        0.010      341.990       17.086      861.473
09/03/2013  06:51:00      -57.551       -2.475       -3.928       17.980       30.248       13.358      323.278      914.921      178.449        0.237        0.071       57.604        6.331        0.012      341.964       17.043      861.488
09/03/2013  06:52:00      -74.831       -3.900       -4.836       24.490       19.697       15.289      599.757      387.963      233.755        0.343        0.061       74.932        9.512        0.016      341.908       16.945      861.500
09/03/2013  06:53:00      -73.081       -4.263       -8.273       21.561       16.322       11.414      464.894      266.423      130.270        0.314        0.043       73.205       12.130        0.027      341.925       16.974      861.488
09/03/2013  06:54:00      -92.439        6.509      -14.611       26.264       19.381       15.173      689.822      375.625      230.210        0.505        0.065       92.668       10.898        0.014      341.930       16.983      861.466
09/03/2013  06:55:00      -90.666       -6.166       -9.522       49.760       24.261       20.641     2476.077      588.618      426.048        0.592        0.175       90.875       24.305        0.072      341.872       16.887      861.454
09/03/2013  06:56:00      -53.378       -8.469        1.861       37.251       34.122       24.557     1387.607     1164.315      603.065        0.304        0.158       54.045       20.913        0.150      341.860       16.866      861.446
09/03/2013  06:57:00      -48.956      -15.528        0.049       35.517       29.627       16.038     1261.434      877.782      257.219        0.252        0.120       51.359       13.928        0.074      341.865       16.874      861.453
09/03/2013  06:58:00      -28.099       -7.748       -6.569       17.625       10.271       12.897      310.624      105.497      166.344        0.074        0.029       29.147        9.631        0.109      341.921       16.967      861.456
09/03/2013  06:59:00      -64.343      -17.204      -11.096       17.342       13.169        9.970      300.733      173.412       99.410        0.257        0.029       66.603        7.650        0.013      341.910       16.953      861.465
09/03/2013  07:00:00      -30.401      -24.953       -0.278       18.363       14.803       12.061      337.218      219.143      145.463        0.112        0.035       39.330       10.972        0.078      341.904       16.941      861.465
09/03/2013  07:01:00      -15.885      -16.246       -2.768       21.242       12.963       13.866      451.207      168.028      192.273        0.067        0.041       22.721       13.048        0.330      341.948       17.017      861.471
09/03/2013  07:02:00      -38.404      -11.731        1.914       33.725       20.359        9.933     1137.397      414.475       98.661        0.163        0.083       40.156       12.340        0.094      342.011       17.122      861.481
09/03/2013  07:03:00      -69.777      -39.067       -2.502       28.907       16.136       16.740      835.631      260.380      280.231        0.389        0.069       79.970       16.004        0.040      342.039       17.170      861.494
09/03/2013  07:04:00      -91.802      -35.248       -7.560       16.103       15.793        8.759      259.307      249.415       76.722        0.516        0.029       98.336        3.263        0.001      342.000       17.105      861.505
09/03/2013  07:05:00      -89.031      -43.561       -1.023       20.968       16.435       15.741      439.644      270.122      247.781        0.539        0.048       99.116        6.710        0.005      342.025       17.148      861.518
09/03/2013  07:06:00     -110.618      -28.860      -17.369       14.647       17.138       10.574      214.538      293.707      111.812        0.700        0.031      114.321        6.990        0.004      341.933       16.990      861.535
09/03/2013  07:07:00     -104.231      -14.090      -13.083       25.373       22.302       15.778      643.781      497.381      248.935        0.631        0.070      105.179       10.071        0.009      341.949       17.017      861.552
09/03/2013  07:08:00      -61.800      -29.398       -6.725       18.509       17.178       13.183      342.596      295.073      173.782        0.277        0.041       68.436        8.700        0.016      342.008       17.116      861.570
09/03/2013  07:09:00      -23.676       -7.746        4.415       18.063       14.960       12.842      326.289      223.789      164.918        0.068        0.036       24.911       11.066        0.197      341.961       17.037      861.590
09/03/2013  07:10:00      -24.532      -12.212       -3.440       34.823       18.852        8.408     1212.614      355.386       70.702        0.120        0.082       27.403        8.096        0.087      342.052       17.194      861.596
09/03/2013  07:11:00      -61.289      -19.530       -6.869        8.344        9.071        7.264       69.627       82.285       52.772        0.219        0.010       64.325        2.969        0.002      342.083       17.242      861.580
09/03/2013  07:12:00      -55.149      -21.354       -7.587       13.013       12.827       11.664      169.336      164.541      136.052        0.201        0.023       59.139        9.025        0.023      342.216       17.469      861.567
09/03/2013  07:13:00      -49.333      -35.409       -8.811       12.027       13.485       11.472      144.651      181.856      131.614        0.211        0.023       60.726        1.472        0.001      342.187       17.422      861.566
09/03/2013  07:14:00      -62.833      -40.325       -9.775       15.318       10.070        9.951      234.654      101.396       99.031        0.305        0.022       74.660        6.989        0.009      342.159       17.376      861.566
09/03/2013  07:15:00      -72.309      -34.500       -6.872        9.649        9.765        7.469       93.106       95.356       55.792        0.336        0.012       80.118        2.446        0.001      342.188       17.425      861.577
09/03/2013  07:16:00      -29.088      -29.496       -7.817       18.349       12.432        8.793      336.683      154.563       77.310        0.117        0.028       41.426        9.290        0.050      342.240       17.513      861.579
09/03/2013  07:17:00      -55.431      -23.569       -4.923       20.266        8.246       11.104      410.700       67.993      123.298        0.213        0.030       60.233       12.676        0.044      342.233       17.501      861.576
09/03/2013  07:18:00      -69.236      -31.924      -11.475        9.510       11.114        7.732       90.435      123.511       59.780        0.311        0.014       76.242        6.391        0.007      342.300       17.614      861.576
09/03/2013  07:19:00      -74.673      -42.357      -11.563       12.506        8.672        7.955      156.406       75.204       63.285        0.390        0.015       85.849        3.240        0.001      342.295       17.604      861.590
09/03/2013  07:20:00     -110.693      -47.875      -11.139       14.054       15.092        9.178      197.519      227.766       84.231        0.759        0.025      120.603        7.279        0.004      342.226       17.487      861.604
09/03/2013  07:21:00     -129.802      -26.608       -8.478       20.437       17.270       11.614      417.688      298.268      134.889        0.924        0.043      132.501        8.283        0.004      342.170       17.391      861.625
09/03/2013  07:22:00     -108.459      -33.357       -3.895       29.099       26.001       15.361      846.753      676.037      235.960        0.732        0.088      113.473       13.572        0.014      342.197       17.438      861.645
09/03/2013  07:23:00     -107.174      -37.426      -10.963       20.680       24.803       16.727      427.675      615.169      279.805        0.716        0.066      113.521        8.288        0.005      342.278       17.574      861.662
09/03/2013  07:24:00      -69.684      -31.196       -6.319       20.270       14.679       10.151      410.868      215.466      103.039        0.330        0.036       76.348       10.215        0.018      342.268       17.558      861.676
09/03/2013  07:25:00      -68.786      -37.633       -7.398       13.454        6.999        8.337      181.006       48.992       69.507        0.325        0.015       78.408        8.053        0.011      342.380       17.751      861.678
09/03/2013  07:26:00      -72.992      -39.667       -3.189       19.113       12.662       13.085      365.289      160.314      171.205        0.380        0.035       83.074       10.637        0.016      342.368       17.729      861.680
09/03/2013  07:27:00      -31.269      -33.266       -4.832       32.244       12.359        9.171     1039.665      152.733       84.104        0.169        0.064       45.655        9.248        0.041      342.395       17.775      861.688
09/03/2013  07:28:00      -16.763      -23.716        0.427       19.321       10.751       10.730      373.293      115.586      115.138        0.072        0.030       29.042       12.183        0.176      342.399       17.784      861.693
09/03/2013  07:29:00      -26.725      -10.956       -1.437       16.663        6.509        7.344      277.659       42.373       53.942        0.061        0.019       28.884        6.323        0.048      342.411       17.802      861.683
09/03/2013  07:30:00      -53.036      -26.693       -8.408       10.427       15.981        9.472      108.725      255.401       89.724        0.202        0.023       59.374        6.794        0.013      342.463       17.889      861.675
09/03/2013  07:31:00      -33.853      -29.626        0.470       20.355       16.618       14.984      414.321      276.142      224.506        0.147        0.046       44.986       12.113        0.073      342.477       17.914      861.669
09/03/2013  07:32:00      -62.637      -29.066       -8.503       11.024        8.403        6.650      121.518       70.615       44.224        0.254        0.012       69.052        4.952        0.005      342.355       17.707      861.658
09/03/2013  07:33:00      -67.435      -32.860       -7.129       13.967       12.811        9.017      195.077      164.123       81.308        0.306        0.022       75.015        7.423        0.010      342.363       17.716      861.643
09/03/2013  07:34:00      -23.144      -15.148        0.923       23.980       16.098       12.788      575.045      259.152      163.530        0.088        0.050       27.661        9.036        0.107      342.349       17.697      861.637
09/03/2013  07:35:00      -23.203      -26.395        0.740       20.555       18.565       14.060      422.492      344.658      197.681        0.110        0.048       35.143       12.755        0.132      342.398       17.779      861.648
09/03/2013  07:36:00      -32.102      -27.511        6.321       24.270       24.583       16.797      589.021      604.345      282.135        0.165        0.074       42.277       16.752        0.157      342.468       17.901      861.670
09/03/2013  07:37:00      -64.604      -60.713       -6.383       25.460       23.566       16.559      648.189      555.335      274.199        0.469        0.074       88.655       15.670        0.031      342.456       17.878      861.686
09/03/2013  07:38:00      -84.249      -57.752       -8.000        9.208       13.131       10.467       84.796      172.410      109.550        0.543        0.018      102.143        4.594        0.002      342.465       17.891      861.682
09/03/2013  07:39:00      -68.506      -37.398       -5.352       11.099       12.675        7.187      123.180      160.647       51.654        0.323        0.017       78.049        5.161        0.004      342.514       17.976      861.684
09/03/2013  07:40:00      -58.770      -34.390       -2.947       23.222       13.520       10.706      539.262      182.796      114.618        0.274        0.042       68.092       11.756        0.030      342.526       17.999      861.698
09/03/2013  07:41:00      -31.951      -24.496        3.291       19.981       15.937       13.152      399.245      253.988      172.969        0.123        0.041       40.260       13.217        0.108      342.555       18.048      861.713
09/03/2013  07:42:00      -25.342      -30.087       -0.344       24.213       13.104        8.773      586.249      171.712       76.972        0.119        0.042       39.338       11.836        0.091      342.612       18.143      861.713
09/03/2013  07:43:00        1.639      -17.061        7.889        7.890       10.954        7.847       62.244      120.000       61.578        0.030        0.012       17.139        6.470        0.142      342.774       18.418      861.721
09/03/2013  07:44:00        3.860       -1.658        5.175        6.340        6.337        7.064       40.194       40.154       49.898        0.009        0.007        4.201        5.169        1.514      342.897       18.628      861.720
09/03/2013  07:45:00       -7.943      -11.220        7.538       15.103       16.239       10.550      228.086      263.695      111.299        0.042        0.030       13.747       12.099        0.775      343.035       18.863      861.705
09/03/2013  07:46:00      -19.401       -7.428        8.330       15.074       21.388       15.210      227.223      457.455      231.346        0.071        0.046       20.774       11.933        0.330      342.837       18.526      861.714
09/03/2013  07:47:00      -16.287       -3.302        5.299       16.469       21.768       11.898      271.228      473.825      141.565        0.060        0.044       16.618        4.070        0.060      342.932       18.687      861.713
09/03/2013  07:48:00      -48.190      -45.674       -3.087       25.677       20.543        8.401      659.289      422.004       70.582        0.278        0.058       66.396        7.393        0.012      342.823       18.501      861.717
09/03/2013  07:49:00      -43.337      -40.396       -2.602       21.255        8.262       11.052      451.780       68.268      122.139        0.208        0.032       59.244       10.622        0.032      342.824       18.505      861.737
09/03/2013  07:50:00      -27.253      -30.401        1.046       14.344       12.572       10.427      205.750      158.055      108.714        0.107        0.024       40.828        6.049        0.022      342.862       18.569      861.744
09/03/2013  07:51:00      -18.996       12.223      -15.329       18.227       19.159       11.574      332.233      367.072      133.947        0.079        0.042       22.589        9.557        0.179      343.026       18.847      861.762
09/03/2013  07:52:00       -3.383       13.414        6.758       13.261       13.148       14.005      175.865      172.866      196.147        0.039        0.027       13.834       11.519        0.693      343.202       19.149      861.766
09/03/2013  07:53:00      -25.018        8.841       -4.338       14.384       27.501       10.743      206.887      756.310      115.416        0.090        0.054       26.534       11.329        0.182      342.983       18.775      861.766
09/03/2013  07:54:00      -37.892       47.251      -17.073       14.508       18.963       15.476      210.476      359.585      239.500        0.238        0.040       60.568        7.306        0.015      343.031       18.858      861.767
09/03/2013  07:55:00        4.749       32.641       -1.049        9.542       18.884       12.555       91.052      356.615      157.635        0.085        0.030       32.985       13.530        0.168      343.124       19.016      861.775
09/03/2013  07:56:00       15.010       32.823        2.065       14.473       23.213       15.071      209.468      538.845      227.140        0.114        0.049       36.093       16.115        0.199      343.131       19.029      861.796
09/03/2013  07:57:00       17.299       53.718      -10.581       15.413       15.921       11.661      237.560      253.483      135.980        0.196        0.031       56.435        8.925        0.025      343.037       18.865      861.803
09/03/2013  07:58:00       15.069       41.899       -4.571       12.327       24.531       17.411      151.947      601.759      303.138        0.153        0.053       44.527       15.241        0.117      343.154       19.066      861.814
09/03/2013  07:59:00       26.840       35.112       -2.475       26.111       16.674       12.931      681.804      278.015      167.204        0.154        0.056       44.195       14.285        0.104      343.174       19.100      861.818
09/03/2013  08:00:00       58.340       37.367        5.342       27.790       25.068       19.771      772.289      628.428      390.897        0.331        0.090       69.281        7.873        0.013      343.121       19.009      861.836
09/03/2013  08:01:00       56.125       27.314        1.097       25.504       21.129       17.978      650.467      446.454      323.197        0.266        0.071       62.418       14.942        0.057      343.076       18.933      861.846
09/03/2013  08:02:00       11.379       34.020        3.701       28.394       15.445       16.769      806.194      238.549      281.191        0.131        0.066       35.873       12.010        0.112      343.180       19.110      861.853
09/03/2013  08:03:00       16.255       53.294       -3.020       24.239       32.986       15.381      587.522     1088.091      236.577        0.251        0.096       55.718       16.226        0.085      343.197       19.139      861.863
09/03/2013  08:04:00       22.595       27.173      -12.670       26.831       30.680       19.660      719.907      941.289      386.512        0.173        0.102       35.340       16.876        0.228      343.231       19.198      861.876
09/03/2013  08:05:00       28.686       12.444        6.112       28.685       15.782       14.652      822.849      249.086      214.686        0.115        0.064       31.269        6.403        0.042      343.321       19.350      861.898
09/03/2013  08:06:00       57.831       43.635       15.050       24.025       21.093       21.046      577.212      444.931      442.929        0.347        0.073       72.446        9.935        0.019      343.165       19.085      861.907
09/03/2013  08:07:00       77.175       41.444       -2.120       21.665       14.323       17.688      469.382      205.162      312.882        0.433        0.049       87.598       11.992        0.019      343.105       18.984      861.912
09/03/2013  08:08:00       58.849       46.848       -0.636       15.860       22.074       18.981      251.530      487.264      360.287        0.338        0.055       75.220       12.710        0.029      343.161       19.079      861.912
09/03/2013  08:09:00       56.016       40.160       14.138       10.456       13.823       17.681      109.330      191.084      312.628        0.278        0.031       68.925        9.252        0.018      343.156       19.070      861.911
09/03/2013  08:10:00       80.156       53.990       19.132       17.154       17.023       21.084      294.247      289.777      444.515        0.537        0.051       96.643        9.038        0.009      343.159       19.074      861.913
09/03/2013  08:11:00       82.303       58.322       12.612        7.711       13.074       11.278       59.459      170.927      127.194        0.535        0.018      100.872        4.805        0.002      343.114       18.997      861.915
09/03/2013  08:12:00       80.471       64.020       21.532       23.515       11.708       22.833      552.979      137.088      521.350        0.612        0.061      102.830       16.651        0.026      343.223       19.183      861.923
09/03/2013  08:13:00       94.159       73.851       -1.855       33.965       20.140       21.108     1153.645      405.634      445.541        0.816        0.100      119.666       15.929        0.018      343.292       19.300      861.935
09/03/2013  08:14:00       77.632       62.724       11.282       39.952       33.199       28.043     1596.196     1102.170      786.401        0.679        0.174       99.805       21.050        0.044      343.436       19.546      861.919
09/03/2013  08:15:00      110.885       80.300       10.323       47.023       33.052       31.623     2211.161     1092.431     1000.041        1.158        0.215      136.907       27.364        0.040      343.369       19.431      861.911
09/03/2013  08:16:00      139.837       74.318       25.083       34.796       28.183       32.533     1210.790      794.280     1058.384        1.438        0.153      158.359       18.927        0.014      343.331       19.368      861.923
09/03/2013  08:17:00       77.813       54.137       43.897       59.976       38.426       35.821     3597.116     1476.540     1283.115        0.863        0.318       94.793       35.470        0.140      343.411       19.503      861.935
09/03/2013  08:18:00       68.783       65.544       44.093       31.564       26.451       23.723      996.259      699.651      562.775        0.661        0.113       95.011       14.418        0.023      343.399       19.483      861.925
09/03/2013  08:19:00       38.222       26.946       27.654       40.576       36.788       26.119     1646.431     1353.385      682.191        0.332        0.184       46.765       16.237        0.121      343.797       20.163      861.920
09/03/2013  08:20:00       28.466       22.519       16.174       32.311       24.479       21.083     1044.008      599.219      444.512        0.183        0.104       36.296       18.406        0.257      343.860       20.269      861.910
09/03/2013  08:21:00       54.301       48.285       16.036       15.421       13.065       18.674      237.821      170.693      348.711        0.315        0.038       72.664        6.855        0.009      343.433       19.541      861.901
09/03/2013  08:22:00       53.562       41.458       18.208       12.313        9.873       13.571      151.602       97.473      184.165        0.268        0.022       67.732        3.817        0.003      343.408       19.499      861.891
09/03/2013  08:23:00       40.570       28.586        1.806       11.293       11.749       12.210      127.529      138.046      149.072        0.144        0.021       49.630        7.680        0.024      343.528       19.703      861.881
09/03/2013  08:24:00       49.961       51.832       18.759       14.058       13.107       19.366      197.630      171.785      375.042        0.314        0.037       71.991        5.130        0.005      343.559       19.756      861.886
09/03/2013  08:25:00       52.244       38.857       18.769       12.473       12.619       16.362      155.572      159.233      267.702        0.259        0.029       65.110        7.514        0.013      343.585       19.800      861.902
09/03/2013  08:26:00       23.367       23.673        3.088       19.319       18.685       13.905      373.222      349.142      193.353        0.102        0.046       33.263        7.221        0.047      343.721       20.032      861.903
09/03/2013  08:27:00       53.733       46.075       16.073       24.432       18.505       19.165      596.901      342.421      367.304        0.329        0.065       70.782       13.522        0.036      343.769       20.114      861.912
09/03/2013  08:28:00       54.964       47.111       -1.987       15.811       12.436       12.769      249.990      154.661      163.038        0.291        0.028       72.391        9.450        0.017      343.634       19.883      861.919
09/03/2013  08:29:00       31.404       35.260        1.309       22.016       20.730       17.845      484.713      429.740      318.458        0.173        0.062       47.217       11.631        0.061      344.011       20.526      861.912
09/03/2013  08:30:00       47.954       42.248       25.063       34.534       33.239       25.811     1192.609     1104.801      666.201        0.384        0.148       63.910       18.928        0.088      344.233       20.906      861.912
09/03/2013  08:31:00       77.698       69.721       24.341       35.928       22.310       30.443     1290.809      497.726      926.755        0.710        0.136      104.393       13.825        0.018      343.927       20.383      861.922
09/03/2013  08:32:00      109.113       73.279       22.422       28.622       27.204       22.313      819.238      740.083      497.863        0.992        0.103      131.437       11.808        0.008      343.766       20.109      861.933
09/03/2013  08:33:00       76.028       34.217        9.762       43.046       30.619       25.355     1852.998      937.524      642.899        0.524        0.172       83.373       25.103        0.091      343.894       20.328      861.938
09/03/2013  08:34:00       57.584       58.978       26.135       28.356       33.716       25.887      804.080     1136.790      670.143        0.504        0.131       82.428       19.081        0.054      344.013       20.531      861.937
09/03/2013  08:35:00      -24.945       14.464       -0.020       23.278       30.754       17.662      541.876      945.794      311.949        0.132        0.090       28.835        7.312        0.064      344.166       20.791      861.939
09/03/2013  08:36:00       -2.158        7.437       -6.082       55.351       39.185       21.877     3063.746     1535.496      478.612        0.259        0.254        7.744       24.828       10.280      344.137       20.743      861.945
09/03/2013  08:37:00       12.619        1.009       22.956       35.634       59.797       28.778     1269.814     3575.689      828.177        0.318        0.284       12.659       20.803        2.701      344.211       20.869      861.949
09/03/2013  08:38:00       54.722       58.167       50.111       41.681       24.075       28.002     1737.297      579.612      784.137        0.599        0.155       79.862       11.820        0.022      344.088       20.660      861.937
09/03/2013  08:39:00       17.687       33.822       32.100       27.249       22.415       19.495      742.498      502.431      380.066        0.206        0.081       38.167        7.323        0.037      344.080       20.644      861.940
09/03/2013  08:40:00       49.819       36.561       46.823       33.642       28.559       26.743     1131.783      815.589      715.176        0.434        0.133       61.795       16.250        0.069      344.117       20.708      861.938
09/03/2013  08:41:00        9.457      -35.997       22.789       25.087       46.496       28.564      629.345     2161.906      815.877        0.276        0.180       37.219       12.844        0.119      344.157       20.775      861.937
09/03/2013  08:42:00       39.461        0.923       41.745       42.308       84.959       36.541     1789.930     7218.026     1335.225        0.682        0.517       39.471       47.242        1.432      344.034       20.568      861.935
09/03/2013  08:43:00       59.393       38.224       59.015       27.302       34.468       24.856      745.401     1188.018      617.797        0.551        0.128       70.630       19.104        0.073      344.101       20.682      861.944
09/03/2013  08:44:00       18.893      -19.013       19.610       38.743       40.229       25.205     1501.008     1618.395      635.308        0.243        0.188       26.804       18.232        0.463      344.251       20.937      861.944
09/03/2013  08:45:00       72.537       58.168       34.140       52.754       40.506       26.697     2783.024     1640.738      712.738        0.747        0.257       92.979       25.441        0.075      344.170       20.798      861.930
09/03/2013  08:46:00        7.014       -0.077       41.895       30.790       44.464       34.063      948.002     1977.080     1160.317        0.294        0.204        7.014       30.876       19.378      344.454       21.282      861.921
09/03/2013  08:47:00      108.558       68.172       29.997       33.557       26.174       35.073     1126.099      685.100     1230.144        1.019        0.152      128.188       17.769        0.019      344.199       20.849      861.921
09/03/2013  08:48:00       57.824       55.029        5.809       30.810       23.814       27.325      949.227      567.125      746.638        0.433        0.113       79.823       16.945        0.045      344.342       21.094      861.910
09/03/2013  08:49:00       73.185       67.161       24.012       30.139       24.124       24.922      908.347      581.951      621.116        0.628        0.106       99.331       10.106        0.010      344.262       20.956      861.898
09/03/2013  08:50:00       87.833       81.555       10.656       37.425       28.270       22.001     1400.614      799.171      484.064        0.858        0.134      119.858        8.265        0.005      344.222       20.888      861.891
09/03/2013  08:51:00       52.463       31.387        4.722       35.907       31.509       20.748     1289.294      992.818      430.484        0.324        0.136       61.135       17.723        0.084      344.466       21.305      861.883
09/03/2013  08:52:00      -13.545       10.648       19.002       20.713       28.220       23.677      429.016      796.354      560.610        0.122        0.089       17.229       11.270        0.428      344.698       21.701      861.885
09/03/2013  08:53:00       40.789       -4.986       44.866       43.971       84.015       35.288     1933.449     7058.465     1245.247        0.697        0.512       41.092       38.763        0.890      344.405       21.201      861.882
09/03/2013  08:54:00       67.581       57.539       26.019       33.143       27.824       20.828     1098.429      774.168      433.824        0.543        0.115       88.758       10.500        0.014      344.314       21.045      861.879
09/03/2013  08:55:00        2.866       -2.795       16.240       17.761       28.621       21.031      315.465      819.161      442.297        0.093        0.079        4.004       15.938       15.847      345.033       22.274      861.882
09/03/2013  08:56:00       25.755       -3.509       36.466       49.593       58.387       28.548     2459.446     3409.013      814.996        0.434        0.334       25.993       32.982        1.610      344.741       21.776      861.885
09/03/2013  08:57:00       82.385       58.618       33.330       27.762       32.989       32.979      770.729     1088.288     1087.595        0.714        0.147      101.111       23.271        0.053      344.404       21.199      861.888
09/03/2013  08:58:00       79.765       53.129       18.210       28.872       25.513       30.274      833.594      650.932      916.522        0.596        0.120       95.839       18.551        0.037      344.457       21.289      861.902
09/03/2013  08:59:00       16.973       13.829       19.790       38.829       36.131       22.126     1507.687     1305.428      489.569        0.209        0.165       21.894       11.013        0.253      344.697       21.699      861.913
09/03/2013  09:00:00       76.926       71.536       36.074       50.717       27.031       28.209     2572.188      730.657      795.734        0.822        0.205      105.048       27.218        0.067      344.646       21.615      861.919
09/03/2013  09:01:00       64.172       62.730        6.505       32.569       21.542       22.582     1060.718      464.074      509.935        0.506        0.102       89.739       11.283        0.016      344.644       21.609      861.920
09/03/2013  09:02:00       16.177       16.646       48.770       23.218       17.073       12.582      539.063      291.476      158.312        0.195        0.049       23.212        7.707        0.110      345.321       22.768      861.914
09/03/2013  09:03:00       -9.176        1.594       28.596       32.633       25.960       24.992     1064.905      673.910      624.598        0.163        0.118        9.313       26.268        7.955      345.014       22.243      861.921
09/03/2013  09:04:00      -33.146      -30.100       -5.192       21.130       19.265       13.017      446.474      371.141      169.448        0.151        0.049       44.774       13.207        0.087      344.658       21.632      861.933
09/03/2013  09:05:00       17.601      -53.613        7.006       31.322       34.780       20.623      981.062     1209.635      425.307        0.292        0.131       56.428       17.098        0.092      344.918       22.078      861.931
09/03/2013  09:06:00      -42.798      -28.089        4.129       35.801       27.907       17.420     1281.685      778.773      303.455        0.250        0.118       51.192       15.618        0.093      344.638       21.599      861.941
09/03/2013  09:07:00       -3.682      -53.439       13.124       21.983       37.310       22.449      483.258     1392.034      503.957        0.271        0.119       53.566       16.394        0.094      344.999       22.216      861.940
09/03/2013  09:08:00       31.407      -71.742        5.718       23.486       42.421       22.273      551.573     1799.537      496.069        0.451        0.142       78.315       20.810        0.071      344.878       22.009      861.945
09/03/2013  09:09:00      -13.011      -55.817       -1.107       24.610       16.797       19.469      605.653      282.138      379.048        0.228        0.063       57.313       13.189        0.053      344.683       21.674      861.959
09/03/2013  09:10:00        1.637      -20.611       32.708       24.106       33.932       26.542      581.079     1151.352      704.465        0.197        0.122       20.676       15.845        0.587      345.499       23.073      861.967
09/03/2013  09:11:00       30.448      -43.513       18.645       49.481       47.633       44.759     2448.412     2268.904     2003.408        0.494        0.336       53.108       34.505        0.422      345.167       22.506      861.976
09/03/2013  09:12:00       28.787      -19.094       23.529       51.433       41.027       40.233     2645.320     1683.231     1618.688        0.385        0.297       34.543       30.694        0.790      345.315       22.759      861.994
09/03/2013  09:13:00       20.820      -10.728       40.804       35.217       37.742       33.754     1240.209     1424.494     1139.338        0.301        0.190       23.422       26.232        1.254      345.457       23.000      862.003
09/03/2013  09:14:00       -6.181        8.133       30.969       33.274       32.219       27.895     1107.154     1038.091      778.133        0.199        0.146       10.215       20.716        4.113      345.354       22.823      862.005
09/03/2013  09:15:00       34.723        7.609       37.167       48.535       71.426       26.973     2355.598     5101.641      727.524        0.541        0.409       35.547       34.548        0.945      344.975       22.177      861.997
09/03/2013  09:16:00       -8.996      -58.655       24.445       32.153       32.837       33.983     1033.786     1078.282     1154.857        0.369        0.163       59.341       14.499        0.060      345.051       22.305      861.983
09/03/2013  09:17:00       35.908       47.357       50.465       52.050       55.746       38.737     2709.180     3107.636     1500.532        0.670        0.366       59.431       41.648        0.491      345.258       22.660      861.978
09/03/2013  09:18:00       25.336       41.574       38.476       29.296       28.206       26.089      858.282      795.597      680.631        0.309        0.117       48.686       25.228        0.269      345.071       22.340      861.987
09/03/2013  09:19:00       22.075      -19.294       -3.262       23.942       33.563       20.982      573.200     1126.455      440.260        0.150        0.107       29.319       12.120        0.171      345.332       22.787      861.985
09/03/2013  09:20:00       15.206       -4.124       14.281       18.724       33.661       19.757      350.606     1133.042      390.321        0.116        0.094       15.755       15.779        1.003      345.650       23.331      861.978
09/03/2013  09:21:00       20.173       26.446       50.646       30.169       35.382       25.263      910.198     1251.899      638.232        0.324        0.140       33.262       14.489        0.190      345.657       23.344      861.974
09/03/2013  09:22:00       14.174       40.458       41.742       20.034       35.068       24.374      401.373     1229.773      594.084        0.290        0.111       42.869       11.249        0.069      345.619       23.280      861.973
09/03/2013  09:23:00        0.715       29.440       44.200       21.976       26.415       24.475      482.956      697.777      599.041        0.230        0.089       29.449       18.711        0.404      345.897       23.755      861.974
09/03/2013  09:24:00       78.549       48.891       10.020       40.831       33.290       31.687     1667.155     1108.236     1004.047        0.622        0.189       92.522       21.814        0.056      345.453       22.995      861.978
09/03/2013  09:25:00       63.541       57.756       21.987       55.324       37.787       35.951     3060.704     1427.856     1292.462        0.682        0.289       85.868       33.839        0.155      345.499       23.074      861.982
09/03/2013  09:26:00       72.402      -79.699       -3.656       52.555       59.386       47.378     2761.999     3526.663     2244.633        1.007        0.427      107.676       30.376        0.080      345.231       22.613      861.979
09/03/2013  09:27:00       25.133      -67.185        9.096       35.019       39.093       34.907     1226.298     1528.299     1218.467        0.460        0.199       71.733       24.632        0.118      345.412       22.924      861.999
09/03/2013  09:28:00       37.149       36.775       62.093       51.671       61.619       37.739     2669.912     3796.878     1424.199        0.724        0.395       52.273       40.632        0.604      345.733       23.473      862.007
09/03/2013  09:29:00      109.571       79.245       49.607       34.698       40.114       31.434     1203.951     1609.102      988.110        1.227        0.190      135.224       17.350        0.016      345.382       22.871      862.015
09/03/2013  09:30:00      142.773       91.608        0.285       39.178       27.564       37.525     1534.936      759.749     1408.154        1.624        0.185      169.635        9.167        0.003      345.292       22.718      862.020
09/03/2013  09:31:00       27.905       29.994       40.049       69.000       56.909       43.901     4760.957     3238.641     1927.278        0.660        0.496       40.968       24.742        0.365      345.854       23.683      862.022
09/03/2013  09:32:00      129.800       69.858       26.250       76.080       54.368       40.459     5788.223     2955.912     1636.941        1.640        0.519      147.405       34.147        0.054      345.423       22.942      862.033
09/03/2013  09:33:00       74.502       63.571       54.555       69.589       60.039       33.068     4842.693     3604.712     1093.510        1.105        0.477       97.938       24.825        0.064      345.480       23.039      862.040
09/03/2013  09:34:00       25.729      -60.303       -0.495       32.126       30.150       28.657     1032.079      909.047      821.227        0.353        0.138       65.562       17.017        0.067      345.248       22.642      862.060
09/03/2013  09:35:00        9.946       24.551       24.436       43.121       31.930       26.244     1859.435     1019.507      688.721        0.243        0.178       26.489       15.007        0.321      345.800       23.589      862.052
09/03/2013  09:36:00       16.980       87.541       83.112       41.322       47.543       32.925     1707.534     2260.294     1084.062        0.995        0.253       89.172       24.544        0.076      345.770       23.538      862.057
09/03/2013  09:37:00       86.926       93.977       73.145       36.438       35.822       43.530     1327.740     1283.223     1894.860        1.312        0.225      128.015       20.595        0.026      345.375       22.860      862.058
09/03/2013  09:38:00       46.326       41.457       59.292       46.212       49.117       35.283     2135.520     2412.435     1244.900        0.659        0.290       62.167       10.226        0.027      345.848       23.671      862.062
09/03/2013  09:39:00       -6.874       -6.089       14.384       34.362       44.370       34.926     1180.752     1968.735     1219.819        0.233        0.218        9.183       21.139        5.300      345.982       23.904      862.051
09/03/2013  09:40:00       47.295      -61.715        6.865       57.293       58.713       41.468     3282.511     3447.205     1719.568        0.727        0.422       77.754       36.699        0.223      345.597       23.242      862.052
09/03/2013  09:41:00       53.150       33.611       24.615       38.634       41.919       27.358     1492.592     1757.196      748.441        0.428        0.200       62.885       14.694        0.055      345.763       23.527      862.058
09/03/2013  09:42:00       36.168       32.775       16.938       48.767       49.164       31.438     2378.206     2417.077      988.377        0.423        0.289       48.810       23.340        0.229      346.092       24.090      862.045
09/03/2013  09:43:00       39.688       41.060        9.323       32.304       28.911       24.639     1043.555      835.832      607.056        0.292        0.124       57.106       20.597        0.130      345.989       23.914      862.040
09/03/2013  09:44:00       65.902       51.910        8.934       25.768       35.831       24.576      663.974     1283.844      603.981        0.483        0.128       83.891       19.640        0.055      345.948       23.842      862.022
09/03/2013  09:45:00       64.262       47.007       12.147       28.297       23.854       24.295      800.703      569.007      590.268        0.422        0.098       79.619       12.317        0.024      345.907       23.773      862.028
09/03/2013  09:46:00       35.425       48.434       25.310       42.228       40.946       30.608     1783.242     1676.609      936.856        0.432        0.220       60.007       15.651        0.068      346.044       24.010      862.031
09/03/2013  09:47:00       12.181       20.313       21.665       27.682       30.880       24.565      766.318      953.592      603.459        0.168        0.116       23.686       13.713        0.335      346.498       24.788      862.043
09/03/2013  09:48:00       44.612       33.366        4.286       30.025       25.270       30.934      901.472      638.569      956.930        0.281        0.125       55.709       17.712        0.101      346.032       23.987      862.053
09/03/2013  09:49:00       27.160       45.380       17.170       50.101       30.823       24.281     2510.085      950.058      589.543        0.357        0.202       52.887       12.274        0.054      346.233       24.334      862.060
09/03/2013  09:50:00       61.028       31.573        4.833       34.078       29.271       27.695     1161.278      856.817      766.990        0.376        0.139       68.712       14.043        0.042      345.899       23.758      862.063
09/03/2013  09:51:00       47.757       50.394       43.035       58.551       36.687       37.880     3428.206     1345.946     1434.882        0.644        0.310       69.428       36.938        0.283      346.360       24.551      862.060
09/03/2013  09:52:00      125.675       64.498       14.983       38.656       31.445       30.297     1494.260      988.773      917.913        1.179        0.170      141.259       15.012        0.011      345.711       23.436      862.065
09/03/2013  09:53:00       74.040       57.580       25.076       39.474       18.491       28.799     1558.199      341.917      829.368        0.608        0.136       93.794       20.013        0.046      345.800       23.589      862.072
09/03/2013  09:54:00       36.840       48.180       14.418       30.470       22.881       29.206      928.406      523.549      852.993        0.310        0.115       60.651       12.994        0.046      346.230       24.330      862.073
09/03/2013  09:55:00       78.952       66.716       -2.500       35.553       28.520       28.209     1264.007      813.380      795.722        0.678        0.144      103.366       18.711        0.033      345.952       23.851      862.077
09/03/2013  09:56:00       29.871       53.654       50.346       49.256       46.933       43.054     2426.168     2202.663     1853.609        0.639        0.324       61.409       34.302        0.312      346.548       24.874      862.079
09/03/2013  09:57:00       89.584       83.160       21.578       54.655       35.752       45.515     2987.168     1278.211     2071.587        1.087        0.317      122.233       26.977        0.049      346.278       24.412      862.089
09/03/2013  09:58:00       48.877       60.056        0.505       34.509       28.595       30.386     1190.863      817.683      923.302        0.446        0.147       77.432        7.793        0.010      346.048       24.016      862.101
09/03/2013  09:59:00       34.922       46.509       11.095       35.219       40.207       31.205     1240.385     1616.635      973.737        0.367        0.192       58.160       21.134        0.132      346.292       24.434      862.090
09/03/2013  10:00:00       48.618       41.308        6.203       23.644       22.680       26.834      559.046      514.362      720.076        0.295        0.090       63.798       15.784        0.061      346.270       24.397      862.090
09/03/2013  10:01:00       59.247       46.819       25.235       42.348       36.095       30.648     1793.365     1302.873      939.325        0.519        0.202       75.513       10.377        0.019      346.481       24.760      862.090
09/03/2013  10:02:00       25.271      -59.033       14.418       48.974       68.213       46.544     2398.431     4653.068     2166.384        0.677        0.461       64.215       48.862        0.579      346.657       25.064      862.086
09/03/2013  10:03:00       12.179      -48.269       14.435       37.902       57.840       36.216     1436.548     3345.465     1311.587        0.439        0.305       49.782       27.457        0.304      346.610       24.981      862.087
09/03/2013  10:04:00       24.316      -59.216       18.958       33.547       68.235       41.994     1125.418     4655.984     1763.494        0.600        0.377       64.014       30.880        0.233      346.474       24.748      862.079
09/03/2013  10:05:00       39.852      -78.805        0.200       35.564       44.517       36.999     1264.833     1981.786     1368.948        0.621        0.231       88.308       31.724        0.129      346.347       24.530      862.086
09/03/2013  10:06:00       35.553      -35.059        4.640       37.591       51.715       27.503     1413.078     2674.478      756.410        0.368        0.242       49.932       25.903        0.269      346.334       24.507      862.092
09/03/2013  10:07:00       59.475      -39.848       22.459       62.992       65.489       42.937     3968.054     4288.766     1843.618        0.786        0.505       71.590       30.487        0.181      346.399       24.620      862.082
09/03/2013  10:08:00       33.945      -16.548       37.438       46.125       54.988       42.877     2127.514     3023.692     1838.443        0.491        0.349       37.763       34.705        0.845      346.691       25.121      862.074
09/03/2013  10:09:00       54.731      -37.351        2.765       44.167       53.892       37.866     1950.741     2904.382     1433.840        0.534        0.314       66.261       33.094        0.249      346.358       24.547      862.081
09/03/2013  10:10:00       -2.815        4.029       32.117       14.448       21.378       12.303      208.740      457.021      151.375        0.094        0.041        4.915        7.933        2.605      347.304       26.177      862.083
09/03/2013  10:11:00       10.053       -0.011       26.177       34.054       35.322       26.702     1159.707     1247.675      712.996        0.195        0.156       10.053       22.885        5.183      346.783       25.280      862.084
09/03/2013  10:12:00       -3.957      -40.334        4.273       28.662       31.243       27.916      821.510      976.128      779.328        0.212        0.129       40.528       13.383        0.109      346.436       24.681      862.093
09/03/2013  10:13:00       34.229       32.403       25.528       27.669       36.797       27.926      765.574     1354.047      779.850        0.289        0.145       47.133       15.964        0.115      346.807       25.322      862.090
09/03/2013  10:14:00       55.846      -85.873        4.971       57.938       93.829       49.358     3356.784     8803.788     2436.201        1.255        0.730      102.435       60.173        0.345      346.376       24.579      862.083
09/03/2013  10:15:00       13.152      -62.009       28.931       38.117       59.315       39.309     1452.892     3518.272     1545.229        0.568        0.326       63.388       29.676        0.219      346.918       25.512      862.077
09/03/2013  10:16:00        0.030       -2.606       57.685       25.749       53.481       30.103      663.018     2860.226      906.197        0.388        0.221        2.606       22.922       77.340      347.187       25.974      862.069
09/03/2013  10:17:00        4.947        5.883       40.880       25.794       31.678       21.560      665.333     1003.491      464.845        0.193        0.107        7.686       10.608        1.905      347.079       25.789      862.064
09/03/2013  10:18:00      127.224       84.246       32.145       71.650       45.575       42.705     5133.710     2077.113     1823.693        1.667        0.452      152.589       30.946        0.041      346.514       24.815      862.059
09/03/2013  10:19:00       44.459       34.440       14.341       63.919       53.077       32.336     4085.637     2817.117     1045.588        0.566        0.397       56.238       28.432        0.256      346.726       25.181      862.061
09/03/2013  10:20:00       49.919      -59.199        8.008       41.186       45.121       38.309     1696.327     2035.874     1467.542        0.563        0.260       77.436       24.486        0.100      346.610       24.982      862.067
09/03/2013  10:21:00       74.267       38.117       41.422       59.735       65.630       41.972     3568.249     4307.310     1761.640        0.916        0.482       83.478       34.254        0.168      346.596       24.958      862.062
09/03/2013  10:22:00       28.034       19.921       28.443       49.933       46.944       41.929     2493.351     2203.752     1758.079        0.422        0.323       34.391       20.135        0.343      347.032       25.707      862.066
09/03/2013  10:23:00       57.270       21.275       67.248       52.551       77.820       50.521     2761.631     6055.997     2552.369        0.981        0.568       61.094       34.363        0.316      346.816       25.334      862.057
09/03/2013  10:24:00       40.590      -69.893       11.809       49.319       40.867       32.038     2432.346     1670.084     1026.438        0.590        0.256       80.824       25.052        0.096      346.462       24.727      862.062
09/03/2013  10:25:00      134.457      -93.188       -2.064       76.531       83.848       48.340     5857.042     7030.525     2336.797        2.099        0.761      163.593       51.193        0.098      346.568       24.906      862.050
09/03/2013  10:26:00      115.349     -115.987       -5.829       70.154       71.215       57.867     4921.544     5071.606     3348.588        2.006        0.667      163.580       41.460        0.064      346.619       24.995      862.040
09/03/2013  10:27:00       93.427     -122.777      -35.681       49.801       59.298       31.265     2480.129     3516.241      977.469        1.602        0.349      154.282       25.084        0.026      346.729       25.186      862.042
09/03/2013  10:28:00       39.850      -63.917       27.040       37.458       57.082       34.980     1403.067     3258.360     1223.610        0.614        0.294       75.321       40.117        0.284      346.846       25.388      862.036
09/03/2013  10:29:00       65.476       54.008       47.334       78.568       46.888       30.118     6172.905     2198.501      907.098        0.936        0.464       84.876       36.189        0.182      346.951       25.569      862.028
09/03/2013  10:30:00      131.627       88.319       14.581       58.651       48.507       35.866     3439.919     2352.974     1286.336        1.621        0.354      158.512       27.511        0.030      346.523       24.831      862.012
09/03/2013  10:31:00      102.566       75.808       10.058       40.184       32.389       33.884     1614.773     1049.016     1148.109        1.009        0.191      127.541       16.581        0.017      346.480       24.758      862.007
09/03/2013  10:32:00       78.450       50.357       15.718       59.516       48.138       35.645     3542.170     2317.310     1270.531        0.803        0.357       93.221       25.777        0.076      346.739       25.204      861.999
09/03/2013  10:33:00      103.945       58.447       23.739       54.299       53.415       45.190     2948.412     2853.129     2042.103        1.131        0.392      119.250       31.035        0.068      346.500       24.793      861.991
09/03/2013  10:34:00       60.530       21.003       -4.856       41.868       67.063       29.439     1752.969     4497.381      866.682        0.562        0.356       64.070       20.367        0.101      346.298       24.445      861.990
09/03/2013  10:35:00       20.668      -87.325       -2.331       32.146       26.363       23.012     1033.389      695.012      529.561        0.516        0.113       89.738       11.930        0.018      346.340       24.518      861.976
09/03/2013  10:36:00       27.628        4.741       47.132       47.829       76.863       38.186     2287.656     5907.933     1458.155        0.633        0.483       28.032       42.707        2.321      346.904       25.488      861.974
09/03/2013  10:37:00       97.241       66.595       26.146       56.097       39.700       34.762     3146.928     1576.072     1208.392        1.025        0.297      117.859       30.596        0.067      346.811       25.328      861.979
09/03/2013  10:38:00      112.335       75.560       40.142       83.485       64.099       52.684     6969.681     4108.686     2775.615        1.689        0.693      135.383       38.549        0.081      347.011       25.671      861.955
09/03/2013  10:39:00       63.240       80.761       21.988       68.387       57.351       52.296     4676.762     3289.189     2734.841        1.085        0.535      102.575       43.165        0.177      346.912       25.502      861.949
09/03/2013  10:40:00       76.192       59.517       25.541       80.341       38.288       58.525     6454.704     1465.965     3425.167        1.067        0.567       96.682       51.924        0.288      347.042       25.726      861.943
09/03/2013  10:41:00       67.752       72.718       24.943       47.185       38.573       44.378     2226.462     1487.910     1969.434        0.809        0.284       99.389       26.421        0.071      346.920       25.515      861.939
09/03/2013  10:42:00       69.149       57.772       44.949       70.351       58.847       50.959     4949.287     3463.023     2596.809        1.057        0.550       90.106       40.431        0.201      347.272       26.121      861.923
09/03/2013  10:43:00      163.650      113.881       31.939       50.351       30.897       32.727     2535.240      954.623     1071.044        2.266        0.228      199.374       14.433        0.005      346.371       24.569      861.930
09/03/2013  10:44:00      150.722      101.033       11.254       50.496       41.079       38.913     2549.836     1687.458     1514.190        1.940        0.288      181.452       26.751        0.022      346.663       25.071      861.929
09/03/2013  10:45:00       64.000       76.943        9.862       43.988       36.339       37.269     1934.953     1320.543     1388.963        0.738        0.232      100.081       22.079        0.049      346.746       25.216      861.920
09/03/2013  10:46:00        1.101       40.208       18.539       23.983       34.276       22.642      575.208     1174.870      512.641        0.211        0.113       40.223       22.670        0.318      347.325       26.214      861.919
09/03/2013  10:47:00       22.316       38.449       13.283       42.307       39.633       32.223     1789.894     1570.740     1038.352        0.328        0.220       44.456       25.927        0.340      347.234       26.055      861.915
09/03/2013  10:48:00       37.553       38.846       29.685       28.998       32.617       24.559      840.881     1063.871      603.167        0.315        0.125       54.030       15.950        0.087      347.043       25.727      861.921
09/03/2013  10:49:00       52.983       49.247       12.518       37.242       25.532       36.034     1386.956      651.871     1298.474        0.436        0.167       72.335       24.716        0.117      346.920       25.515      861.914
09/03/2013  10:50:00       51.559       53.855        0.978       42.199       24.168       29.185     1780.782      584.093      851.769        0.439        0.161       74.556       25.521        0.117      346.977       25.613      861.910
09/03/2013  10:51:00       31.364      -62.435        3.577       52.427       39.626       31.341     2748.576     1570.197      982.283        0.510        0.265       69.870       25.769        0.136      346.980       25.619      861.891
09/03/2013  10:52:00       84.618      -78.429       13.389       56.704       73.788       48.884     3215.360     5444.729     2389.653        1.227        0.552      115.375       55.959        0.235      347.016       25.680      861.878
09/03/2013  10:53:00      110.070     -186.362      -20.028       82.848       72.006       49.713     6863.787     5184.836     2471.360        3.088        0.726      216.440       54.938        0.064      347.074       25.779      861.873
09/03/2013  10:54:00      117.874      -70.642       43.864       64.881      180.588       84.079     4209.579    32612.158     7069.301        3.234        2.195      137.421      115.833        0.710      346.936       25.539      861.884
09/03/2013  10:55:00        6.782       19.241       45.947       65.395       73.883       66.315     4276.477     5458.670     4397.724        0.833        0.707       20.401       53.514        6.881      346.924       25.521      861.900
09/03/2013  10:56:00       15.490       48.687       64.567       48.855       63.251       35.822     2386.804     4000.660     1283.212        0.722        0.384       51.092       31.788        0.387      347.412       26.363      861.912
09/03/2013  10:57:00      131.827       94.413       41.023       43.022       35.845       43.776     1850.854     1284.884     1916.349        1.651        0.253      162.148       20.921        0.017      346.767       25.251      861.911
09/03/2013  10:58:00       57.541       58.431        7.008       67.108       31.866       32.198     4503.464     1015.467     1036.709        0.666        0.328       82.007       23.242        0.080      346.993       25.640      861.907
09/03/2013  10:59:00       11.647       41.367       14.554       29.464       43.331       28.689      868.102     1877.538      823.052        0.281        0.178       42.975       24.870        0.335      347.674       26.816      861.904
09/03/2013  11:00:00       81.433       62.731       19.178       62.047       39.280       44.156     3849.889     1542.903     1949.774        0.914        0.367      102.794       24.298        0.056      347.337       26.233      861.899
09/03/2013  11:01:00       86.068       72.239       16.569       38.841       26.188       25.673     1508.603      685.808      659.119        0.788        0.143      112.366       15.215        0.018      347.048       25.736      861.907
09/03/2013  11:02:00      -20.560      101.178       -7.209       37.827       53.676       32.700     1430.861     2881.128     1069.280        0.805        0.269      103.246       30.417        0.087      347.259       26.099      861.895
09/03/2013  11:03:00      -28.484       39.771       12.068       43.150       30.860       28.530     1861.898      952.341      813.945        0.308        0.181       48.919       25.444        0.271      347.646       26.768      861.886
09/03/2013  11:04:00       22.855      103.737        3.976       46.120       56.625       36.422     2127.050     3206.344     1326.546        0.898        0.333      106.225       32.166        0.092      347.653       26.778      861.868
09/03/2013  11:05:00       65.702       60.749       56.048      114.725      104.832       82.304    13161.936    10989.660     6773.875        2.103        1.546       89.483       63.143        0.498      347.821       27.066      861.822
09/03/2013  11:06:00      142.140       39.290       74.732       81.045       80.216       65.089     6568.215     6434.680     4236.537        2.228        0.862      147.470       50.521        0.117      347.180       25.961      861.857
09/03/2013  11:07:00      144.960       96.388       10.410       87.224       55.586       44.872     7608.049     3089.842     2013.458        2.156        0.636      174.081       16.792        0.009      347.195       25.987      861.864
09/03/2013  11:08:00      109.378       58.081       33.359       85.540       46.874       40.100     7317.062     2197.159     1608.001        1.378        0.556      123.843       31.127        0.063      347.569       26.631      861.862
09/03/2013  11:09:00       42.095       22.223       25.622       60.756       33.311       34.163     3691.316     1109.603     1167.094        0.444        0.298       47.601       28.042        0.347      347.883       27.175      861.869
09/03/2013  11:10:00       75.439       84.056       28.298       38.394       36.292       34.686     1474.062     1317.084     1203.086        0.877        0.200      112.945       19.586        0.030      347.612       26.708      861.863
09/03/2013  11:11:00       40.187      -71.149        4.189       65.577      102.816       34.619     4300.316    10571.134     1198.501        1.138        0.803       81.714       46.391        0.322      347.399       26.340      861.867
09/03/2013  11:12:00       31.463        6.384       32.584       34.956       48.595       27.730     1221.930     2361.458      768.954        0.322        0.218       32.104       17.464        0.296      348.220       27.757      861.859
09/03/2013  11:13:00       35.785        6.968       16.199       49.685       35.541       36.405     2468.589     1263.137     1325.305        0.332        0.253       36.457       32.098        0.775      347.582       26.657      861.853
09/03/2013  11:14:00      -21.762       36.609      -10.847       33.727       36.665       19.689     1137.499     1344.314      387.654        0.240        0.143       42.588       13.994        0.108      347.272       26.121      861.854
09/03/2013  11:15:00       22.801        7.755       12.099       32.844       41.862       29.764     1078.712     1752.386      885.889        0.222        0.186       24.084        9.982        0.172      347.955       27.298      861.838
09/03/2013  11:16:00       15.397       53.218       85.821       44.264       58.331       41.499     1959.332     3402.503     1722.188        0.876        0.354       55.401       34.131        0.380      348.215       27.749      861.834
09/03/2013  11:17:00       15.499       32.727       47.666       35.465       45.129       39.847     1257.765     2036.583     1587.804        0.423        0.244       36.211       23.581        0.424      348.290       27.879      861.832
09/03/2013  11:18:00       43.245      -47.625       27.688       61.102       87.125       42.797     3733.489     7590.765     1831.575        0.903        0.658       64.329       52.379        0.663      347.844       27.109      861.851
09/03/2013  11:19:00       22.479        2.640       41.465       51.963       80.278       42.715     2700.146     6444.627     1824.598        0.660        0.548       22.634       40.874        3.261      348.181       27.691      861.852
09/03/2013  11:20:00       57.605       55.350       75.607       62.807       72.787       49.098     3944.665     5297.963     2410.651        1.187        0.583       79.887       32.204        0.163      347.990       27.360      861.845
09/03/2013  11:21:00       46.052       12.237       49.439       60.883       63.680       49.853     3706.776     4055.143     2485.307        0.748        0.512       47.650       44.555        0.874      347.704       26.866      861.852
09/03/2013  11:22:00       63.650       57.840       11.675       47.594       32.847       35.708     2265.157     1078.925     1275.050        0.608        0.231       86.005       19.031        0.049      347.505       26.523      861.836
09/03/2013  11:23:00       18.629        7.436        9.301       34.515       56.797       27.053     1191.292     3225.899      731.861        0.282        0.257       20.058       15.425        0.591      347.840       27.100      861.809
09/03/2013  11:24:00      -10.752      -94.741      -13.275       56.317       66.089       41.075     3171.577     4367.694     1687.138        0.925        0.461       95.349       33.097        0.120      347.628       26.736      861.807
09/03/2013  11:25:00      -33.028      -99.135        5.237       37.122       43.074       36.011     1378.020     1855.373     1296.804        0.774        0.227      104.492       14.843        0.020      347.720       26.894      861.815
09/03/2013  11:26:00       21.162      -45.124       -4.263       37.892       29.000       31.249     1435.772      841.007      976.475        0.288        0.163       49.840       19.197        0.148      347.689       26.841      861.817
09/03/2013  11:27:00      -54.313       -7.686       -9.960       50.050       36.988       19.913     2504.996     1368.141      396.528        0.369        0.213       54.854       15.714        0.082      347.673       26.814      861.808
09/03/2013  11:28:00      -81.472       15.978       -4.790       51.655       20.295       18.264     2668.240      411.894      333.573        0.516        0.171       83.024       22.468        0.073      347.780       26.998      861.804
09/03/2013  11:29:00      -38.414       -1.895       12.076       35.992       24.658       25.194     1295.454      608.037      634.713        0.208        0.127       38.461       26.725        0.483      348.301       27.899      861.804
09/03/2013  11:30:00       53.833      -73.196       -4.648       77.219       85.796       54.361     5962.806     7361.005     2955.112        1.227        0.814       90.860       58.571        0.416      348.269       27.842      861.797
09/03/2013  11:31:00        6.399       60.890      113.358       49.655       79.564       44.082     2465.619     6330.448     1943.225        1.367        0.537       61.225       44.991        0.540      348.176       27.683      861.778
09/03/2013  11:32:00       34.241     -127.399       16.597       69.534      117.559       64.086     4834.989    13820.070     4106.977        2.022        1.138      131.921       70.341        0.284      347.903       27.209      861.778
09/03/2013  11:33:00       29.014      -29.299       45.252       47.367      101.130       51.317     2243.637    10227.256     2633.413        0.942        0.755       41.234       60.791        2.174      347.863       27.140      861.782
09/03/2013  11:34:00      -19.388      -32.516       28.336       42.276       70.974       37.183     1787.229     5037.343     1382.578        0.522        0.410       37.857       40.932        1.169      348.047       27.458      861.768
09/03/2013  11:35:00      -80.219     -122.430      -14.511       33.340       37.955       23.773     1111.571     1440.554      565.132        1.238        0.156      146.370       21.228        0.021      347.314       26.194      861.753
09/03/2013  11:36:00      -75.649      -40.353       -8.120       31.184       34.231       32.157      972.472     1171.753     1034.099        0.530        0.159       85.739       11.757        0.019      347.483       26.485      861.741
09/03/2013  11:37:00     -105.750      -86.196      -12.469       45.351       70.588       21.319     2056.719     4982.698      454.480        1.313        0.375      136.429       26.749        0.038      347.481       26.481      861.732
09/03/2013  11:38:00     -112.933     -125.046       -1.700       59.990       58.616       45.313     3598.797     3435.843     2053.228        1.874        0.454      168.495       40.830        0.059      347.532       26.567      861.733
09/03/2013  11:39:00     -141.758      -92.925       -0.203       65.895       55.067       31.825     4342.201     3032.320     1012.825        1.856        0.419      169.501       30.367        0.032      347.557       26.611      861.728
09/03/2013  11:40:00     -137.970      -79.254        1.241       54.595       51.524       37.376     2980.643     2654.719     1396.932        1.617        0.352      159.113       34.974        0.048      347.619       26.721      861.718
09/03/2013  11:41:00     -140.901        3.980       -6.383       50.124       43.442       23.137     2512.374     1887.183      535.322        1.242        0.247      140.957       18.390        0.017      347.520       26.549      861.715
09/03/2013  11:42:00      -98.772      -22.466       -5.430       25.778       27.584       27.191      664.507      760.884      739.344        0.623        0.108      101.295       19.311        0.036      347.462       26.449      861.706
09/03/2013  11:43:00      -68.705       -7.496      -20.313       23.704       20.555       14.294      561.865      422.490      204.327        0.319        0.059       69.113        9.095        0.017      347.487       26.492      861.687
09/03/2013  11:44:00      -52.967       -5.178       -7.284       25.779       24.477       20.651      664.557      599.105      426.454        0.229        0.085       53.220       12.340        0.054      347.671       26.810      861.679
09/03/2013  11:45:00     -170.432       -6.974      -18.362       61.723       39.382       31.252     3809.717     1550.967      976.658        1.788        0.317      170.575       30.812        0.033      347.595       26.676      861.681
09/03/2013  11:46:00      -59.711       -5.579       19.545       89.798       54.423       37.339     8063.627     2961.853     1394.199        0.820        0.621       59.971       43.497        0.526      348.297       27.891      861.666
09/03/2013  11:47:00      -24.874      -29.010       23.588       85.771       58.489       35.493     7356.652     3420.987     1259.747        0.702        0.602       38.214       33.582        0.772      348.177       27.684      861.658
09/03/2013  11:48:00      -21.147      -28.924       26.737       67.166       63.053       32.356     4511.250     3975.665     1046.903        0.576        0.477       35.830       39.811        1.235      348.246       27.803      861.659
09/03/2013  11:49:00      -44.280      -30.052        9.379       69.676       67.872       45.992     4854.773     4606.572     2115.307        0.726        0.579       53.515       47.404        0.785      347.996       27.371      861.641
09/03/2013  11:50:00      -99.799       41.718      -12.030       50.365       67.001       33.638     2536.583     4489.134     1131.496        1.000        0.408      108.168       23.840        0.049      347.776       26.990      861.636
09/03/2013  11:51:00     -196.223       37.690      -32.309       68.328       49.544       29.961     4668.746     2454.584      897.691        2.449        0.401      199.809       32.783        0.027      347.393       26.328      861.620
09/03/2013  11:52:00     -182.144       24.868      -11.806       86.023       54.023       40.687     7399.974     2918.516     1655.396        2.295        0.599      183.834       41.597        0.051      347.610       26.703      861.606
09/03/2013  11:53:00     -176.423      -13.219       -5.765       53.992       56.972       32.126     2915.126     3245.816     1032.108        1.926        0.360      176.918       25.099        0.020      347.695       26.849      861.578
09/03/2013  11:54:00     -125.070       -8.862       -7.381       84.087       70.871       43.484     7070.637     5022.706     1890.854        1.488        0.699      125.383       44.362        0.125      347.969       27.322      861.565
09/03/2013  11:55:00      -98.498      -12.069        4.344       88.517       61.914       36.497     7835.229     3833.320     1332.052        1.143        0.650       99.234       44.031        0.197      348.057       27.476      861.559
09/03/2013  11:56:00     -100.216       16.392       -7.805       65.142       43.714       34.468     4243.479     1910.942     1188.063        0.886        0.367      101.547       35.723        0.124      347.918       27.237      861.543
09/03/2013  11:57:00     -115.493      -10.336        7.235       50.075       61.817       37.735     2507.541     3821.301     1423.910        1.062        0.388      115.955       34.419        0.088      347.912       27.224      861.543
09/03/2013  11:58:00     -132.500       -2.007       -4.308       58.096       31.149       22.496     3375.173      970.240      506.076        1.121        0.243      132.515       20.057        0.023      347.642       26.759      861.544
09/03/2013  11:59:00      -52.967      -21.067        6.569       39.284       36.143       23.718     1543.230     1306.296      562.555        0.335        0.171       57.003       21.825        0.147      348.025       27.421      861.525
09/03/2013  12:00:00      -93.105        4.611       -9.560       98.843       43.447       27.317     9769.850     1887.651      746.192        1.059        0.620       93.219       34.174        0.134      347.899       27.202      861.515
09/03/2013  12:01:00     -182.858       -0.864      -14.754       48.381       49.258       23.219     2340.687     2426.325      539.117        1.948        0.265      182.860       17.529        0.009      347.597       26.681      861.511
09/03/2013  12:02:00      -76.570      -32.006        3.841       84.142       43.897       33.516     7079.898     1926.920     1123.297        0.851        0.507       82.990       44.752        0.291      347.866       27.147      861.494
09/03/2013  12:03:00     -144.417      -54.534       -5.976       64.113       42.927       27.348     4110.501     1842.756      747.928        1.528        0.335      154.371       16.214        0.011      347.654       26.779      861.481
09/03/2013  12:04:00     -116.400      -29.346       -4.949       55.248       28.591       22.918     3052.327      817.425      525.220        0.941        0.220      120.042       26.544        0.049      347.677       26.821      861.460
09/03/2013  12:05:00      -66.622       59.606        0.098       81.453       82.277       36.338     6634.513     6769.558     1320.473        1.135        0.736       89.394       29.709        0.110      347.763       26.968      861.448
09/03/2013  12:06:00      -25.706      164.662       -3.688       50.975       90.155       46.468     2598.445     8127.901     2159.289        2.033        0.644      166.657       49.849        0.089      347.853       27.121      861.435
09/03/2013  12:07:00     -154.115      143.208      -48.528       38.730       58.548       25.350     1499.998     3427.920      642.598        2.609        0.279      210.380       28.948        0.019      347.519       26.544      861.428
09/03/2013  12:08:00     -101.880      136.214      -19.265       52.803       67.731       35.899     2788.198     4587.503     1288.756        1.898        0.433      170.099       31.836        0.035      347.681       26.826      861.421
09/03/2013  12:09:00      -97.198       90.674      -13.230       55.261       50.400       30.618     3053.799     2540.127      937.436        1.219        0.327      132.926       34.578        0.068      347.853       27.124      861.410
09/03/2013  12:10:00      -90.141      116.251      -16.978       50.788       82.400       38.779     2579.465     6789.693     1503.772        1.640        0.544      147.104       51.654        0.123      347.780       26.996      861.408
09/03/2013  12:11:00     -114.443       84.827      -20.078       49.032       72.768       41.666     2404.110     5295.239     1736.044        1.506        0.472      142.453       41.165        0.084      347.767       26.974      861.407
09/03/2013  12:12:00     -112.792       11.058      -23.114       38.691       38.197       23.677     1497.013     1458.989      560.592        0.845        0.176      113.332       13.441        0.014      347.730       26.912      861.413
09/03/2013  12:13:00      -34.719       91.436       10.538       42.910       62.155       41.086     1841.307     3863.190     1688.042        0.853        0.370       97.806       38.924        0.158      347.961       27.309      861.409
09/03/2013  12:14:00        7.807       82.666       11.326       38.161       58.357       32.787     1456.266     3405.482     1074.991        0.648        0.297       83.034       33.517        0.163      347.987       27.355      861.400
09/03/2013  12:15:00      -20.760      104.436       -4.093       23.203       73.899       30.233      538.386     5461.009      914.011        0.913        0.346      106.479       34.531        0.105      347.950       27.290      861.383
09/03/2013  12:16:00      -56.989       26.745       -3.164       56.280       50.790       31.572     3167.449     2579.580      996.820        0.536        0.337       62.952       29.235        0.216      348.153       27.641      861.365
09/03/2013  12:17:00     -117.814        7.842       -4.133       63.420       87.764       33.262     4022.037     7702.477     1106.356        1.339        0.642      118.075       27.820        0.056      348.036       27.437      861.340
09/03/2013  12:18:00     -110.139       56.604       -3.016       97.829       65.434       40.924     9570.532     4281.574     1674.747        1.543        0.776      123.833       45.637        0.136      348.048       27.458      861.318
09/03/2013  12:19:00     -138.076       44.344      -11.258       49.451       54.258       22.536     2445.393     2943.947      507.877        1.353        0.295      145.022       18.430        0.016      347.801       27.031      861.307
09/03/2013  12:20:00      -58.129       85.093       -5.757       49.920       45.320       35.662     2491.961     2053.907     1271.745        0.823        0.291      103.053       29.540        0.082      347.911       27.223      861.292
09/03/2013  12:21:00     -135.736       28.208      -11.995       65.553       65.059       32.465     4297.170     4232.708     1054.002        1.447        0.479      138.636       37.608        0.074      347.868       27.149      861.277
09/03/2013  12:22:00     -191.095       57.570      -11.322       59.082       35.697       28.620     3490.671     1274.245      819.091        2.277        0.279      199.579       26.603        0.018      347.772       26.980      861.273
09/03/2013  12:23:00     -168.596      -12.644      -15.988       47.673       41.874       22.843     2272.738     1753.419      521.780        1.669        0.227      169.069       20.693        0.015      347.705       26.867      861.264
09/03/2013  12:24:00      -79.320        2.302      -11.423       45.938       67.579       26.334     2110.258     4566.971      693.476        0.690        0.369       79.354       24.501        0.095      347.929       27.255      861.256
09/03/2013  12:25:00      -82.495       51.807       -6.385       46.593       37.168       27.795     2170.951     1381.441      772.536        0.693        0.216       97.414       28.596        0.086      347.889       27.186      861.259
09/03/2013  12:26:00      -38.351       43.958       10.777       46.184       34.149       34.740     2132.927     1166.132     1206.861        0.401        0.225       58.336       29.448        0.255      348.242       27.795      861.260
09/03/2013  12:27:00      -91.332       33.674       -5.665       44.435       51.722       35.114     1974.469     2675.157     1232.980        0.769        0.294       97.342       31.781        0.107      348.071       27.499      861.252
09/03/2013  12:28:00     -103.473       59.706       -1.735       64.932       46.955       32.858     4216.161     2204.735     1079.630        1.089        0.375      119.464       31.799        0.071      347.961       27.308      861.257
09/03/2013  12:29:00     -151.612       66.889      -23.483       65.063       48.579       35.791     4233.139     2359.895     1280.986        1.794        0.394      165.712       30.949        0.035      347.825       27.072      861.250
09/03/2013  12:30:00     -151.334       30.813      -18.891       73.634       33.570       21.858     5422.028     1126.924      477.772        1.562        0.351      154.439       25.714        0.028      347.866       27.145      861.236
09/03/2013  12:31:00     -172.454       23.618      -16.082       45.234       29.766       22.022     2046.134      886.001      484.970        1.699        0.171      174.063       16.048        0.009      347.726       26.904      861.217
09/03/2013  12:32:00      -55.360       13.892       14.752       53.714       39.083       29.448     2885.201     1527.482      867.166        0.438        0.264       57.076       24.553        0.185      348.187       27.700      861.190
09/03/2013  12:33:00     -128.002      -38.725      -13.993       49.956       50.931       32.938     2495.640     2593.987     1084.916        1.213        0.309      133.731       27.179        0.041      347.879       27.169      861.176
09/03/2013  12:34:00     -218.859      -17.435      -19.000       73.783       48.339       33.737     5443.935     2336.700     1138.157        2.874        0.446      219.552       37.021        0.028      347.843       27.102      861.182
09/03/2013  12:35:00     -149.614       35.757      -18.861       62.432       59.576       41.941     3897.786     3549.328     1759.061        1.661        0.460      153.827       38.258        0.062      347.873       27.157      861.178
09/03/2013  12:36:00      -55.674       64.733       -9.468       55.586       45.812       24.652     3089.848     2098.776      607.716        0.659        0.290       85.381       25.863        0.092      348.003       27.384      861.180
09/03/2013  12:37:00      -48.359       76.307        4.612       31.810       53.158       26.911     1011.908     2825.802      724.181        0.637        0.228       90.341       25.361        0.079      348.077       27.510      861.176
09/03/2013  12:38:00      -52.949       45.878       -7.305       31.800       35.078       21.248     1011.269     1230.484      451.475        0.383        0.135       70.059       16.680        0.057      348.061       27.483      861.171
09/03/2013  12:39:00      -23.780       39.693       18.290       22.946       38.783       28.800      526.504     1504.107      829.422        0.267        0.143       46.271       24.557        0.282      348.388       28.047      861.170
09/03/2013  12:40:00     -100.798        9.811        1.296       43.975       35.101       31.727     1933.833     1232.079     1006.628        0.721        0.209      101.274       29.048        0.082      348.108       27.563      861.185
09/03/2013  12:41:00     -171.942       49.935      -21.286       78.841       44.548       26.682     6215.922     1984.566      711.905        2.071        0.446      179.047       34.019        0.036      347.896       27.195      861.198
09/03/2013  12:42:00     -107.824       75.264      -19.190       37.437       54.520       25.118     1401.552     2972.433      630.905        1.133        0.250      131.494       19.029        0.021      347.873       27.157      861.195
09/03/2013  12:43:00     -121.942       34.919      -14.406       29.779       32.180       21.961      886.764     1035.525      482.298        0.935        0.120      126.843       10.837        0.007      347.866       27.146      861.157
09/03/2013  12:44:00      -73.685       17.513      -19.238       31.320       26.628       20.463      980.940      709.025      418.731        0.411        0.105       75.738       11.543        0.023      347.898       27.200      861.110
09/03/2013  12:45:00      -24.939       48.462       13.982       33.138       36.128       29.898     1098.113     1305.239      893.883        0.323        0.165       54.502        7.735        0.020      348.281       27.863      861.076
09/03/2013  12:46:00     -113.434       23.753      -23.446       46.855       45.888       28.015     2195.386     2105.720      784.853        0.953        0.254      115.894       17.217        0.022      348.001       27.378      861.048
09/03/2013  12:47:00     -120.605       -1.093       -7.363       75.514       54.078       28.729     5702.297     2924.383      825.371        1.202        0.473      120.610       24.427        0.041      348.059       27.478      861.026
09/03/2013  12:48:00      -90.941       65.638      -10.977       40.564       37.090       25.212     1645.469     1375.690      635.663        0.818        0.183      112.154       21.497        0.037      348.087       27.528      861.007
09/03/2013  12:49:00     -121.956       41.330      -21.539       69.275       44.220       20.672     4799.004     1955.451      427.352        1.211        0.359      128.769       19.614        0.023      348.028       27.423      861.008
09/03/2013  12:50:00     -144.660      -20.413       -9.793       67.343       75.274       36.406     4535.106     5666.231     1325.363        1.648        0.576      146.093       34.575        0.056      348.048       27.459      861.015
09/03/2013  12:51:00     -210.842      -29.905      -16.224       50.108       65.932       32.335     2510.842     4347.062     1045.538        2.676        0.395      212.952       28.372        0.018      348.030       27.425      861.013
09/03/2013  12:52:00      -94.190      -64.592        6.974       73.086       53.151       39.591     5341.567     2825.075     1567.482        1.141        0.487      114.210       46.464        0.166      348.096       27.542      861.013
09/03/2013  12:53:00     -103.711       -2.032       -4.549       57.729       36.477       27.553     3332.616     1330.574      759.166        0.810        0.271      103.731       25.079        0.058      348.060       27.481      861.006
09/03/2013  12:54:00     -170.782       12.548      -19.684       67.990       54.058       27.151     4622.697     2922.260      737.162        1.900        0.414      171.243       26.831        0.025      347.942       27.277      861.001
09/03/2013  12:55:00     -183.416       28.845      -23.044       71.312       74.706       36.956     5085.390     5580.941     1365.747        2.352        0.602      185.670       29.691        0.026      347.923       27.240      860.998
09/03/2013  12:56:00     -188.579      -17.122      -13.614       44.991       53.300       25.888     2024.201     2840.874      670.169        2.079        0.277      189.354       24.064        0.016      347.894       27.192      861.001
09/03/2013  12:57:00     -120.928       -0.640       -0.421       55.767       44.180       26.510     3109.943     1951.851      702.796        1.019        0.288      120.930       20.257        0.028      347.988       27.355      861.003
09/03/2013  12:58:00      -29.464       27.273       18.046       46.210       42.387       29.118     2135.397     1796.697      847.861        0.336        0.239       40.150       31.923        0.632      348.360       27.999      861.006
09/03/2013  12:59:00        1.209       74.601      -22.841       62.854       44.945       26.679     3950.642     2020.082      711.783        0.638        0.334       74.611       24.394        0.107      347.991       27.362      861.015
09/03/2013  13:00:00       15.568       15.150       25.862       23.237       23.634       18.599      539.968      558.556      345.933        0.129        0.072       21.723       13.685        0.397      348.294       27.884      861.014
09/03/2013  13:01:00       -5.485       41.788       21.680       37.086       40.018       30.052     1375.400     1601.418      903.143        0.306        0.194       42.147       25.580        0.368      348.403       28.074      861.009
09/03/2013  13:02:00      -77.675       79.583        3.800       75.915       55.181       48.827     5763.054     3044.889     2384.088        1.178        0.560      111.206       46.447        0.174      348.196       27.715      861.006
09/03/2013  13:03:00      -24.906       45.672        2.874       26.256       45.759       24.592      689.388     2093.846      604.754        0.305        0.169       52.021       26.075        0.251      348.354       27.989      860.984
09/03/2013  13:04:00       -4.119       87.006       11.974       33.552       57.945       25.513     1125.735     3357.670      650.927        0.643        0.257       87.104       27.118        0.097      348.311       27.915      860.953
09/03/2013  13:05:00     -106.062       55.987      -10.550       42.733       34.321       27.674     1826.138     1177.945      765.867        0.913        0.188      119.932       20.975        0.031      348.033       27.433      860.926
09/03/2013  13:06:00      -82.232       34.518       -8.150       36.392       27.949       17.564     1324.344      781.138      308.483        0.522        0.121       89.183       13.623        0.023      348.113       27.571      860.890
09/03/2013  13:07:00      -81.206       49.084       -5.596       48.395       34.280       34.327     2342.089     1175.134     1178.345        0.686        0.235       94.888       31.651        0.111      348.196       27.715      860.855
09/03/2013  13:08:00      -79.227      197.957      -11.920       72.891       87.666       46.501     5313.157     7685.378     2162.321        3.038        0.758      213.223       52.796        0.061      348.183       27.690      860.828
09/03/2013  13:09:00     -211.455      293.664      -46.302       83.369       65.166       47.888     6950.422     4246.669     2293.264        7.329        0.675      361.873       48.925        0.018      348.037       27.437      860.817
09/03/2013  13:10:00     -147.714      148.841      -29.166       71.078       81.214       43.820     5052.129     6595.729     1920.192        2.919        0.678      209.698       38.278        0.033      348.095       27.538      860.845
09/03/2013  13:11:00      -80.189       37.469      -10.810       62.504       85.288       40.116     3906.788     7274.095     1609.264        1.037        0.640       88.511       36.401        0.169      348.158       27.650      860.874
09/03/2013  13:12:00     -104.880      -20.532      -18.627       40.533       23.736       17.855     1642.924      563.384      318.801        0.715        0.126      106.871        6.671        0.004      348.083       27.518      860.902
09/03/2013  13:13:00      -87.524       64.363      -14.061       35.845       48.899       23.605     1284.859     2391.100      557.174        0.812        0.212      108.642       15.491        0.020      348.105       27.557      860.910
09/03/2013  13:14:00      -86.979      -20.907       -1.587       38.659       33.302       22.867     1494.516     1109.034      522.911        0.557        0.156       89.456       15.134        0.029      348.189       27.702      860.919
09/03/2013  13:15:00     -176.444      -46.518      -11.276       32.462       30.339       24.149     1053.812      920.428      583.182        1.799        0.128      182.473       14.007        0.006      348.229       27.774      860.919
09/03/2013  13:16:00     -123.901      -33.443        9.018       62.179       54.494       29.010     3866.223     2969.577      841.601        1.211        0.384      128.335       29.370        0.052      348.431       28.122      860.922
09/03/2013  13:17:00      -92.274      -86.603       -0.860       56.372       50.710       28.371     3177.782     2571.521      804.919        1.128        0.328      126.549       25.576        0.041      348.460       28.172      860.900
09/03/2013  13:18:00      -32.148      -77.871       26.251       85.927       64.057       39.622     7383.503     4103.239     1569.922        1.042        0.653       84.246       42.201        0.251      348.593       28.401      860.898
09/03/2013  13:19:00     -218.911     -165.554        4.490       95.893       85.971       59.764     9195.396     7391.093     3571.702        4.775        1.008      274.464       53.579        0.038      348.361       27.997      860.884
09/03/2013  13:20:00     -170.734     -116.162       -0.225       68.788       60.845       43.368     4731.797     3702.073     1880.794        2.648        0.516      206.504       40.723        0.039      348.294       27.882      860.871
09/03/2013  13:21:00     -119.882      -13.064       -7.378       44.211       44.014       22.978     1954.642     1937.244      528.011        0.951        0.221      120.592       24.125        0.040      348.194       27.711      860.807
09/03/2013  13:22:00      -43.302      -12.181        5.199       42.213       39.994       34.224     1781.940     1599.511     1171.309        0.330        0.228       44.983       29.055        0.417      348.417       28.098      860.757
09/03/2013  13:23:00       -2.151      -30.654        8.092       35.990       43.274       28.742     1295.303     1872.646      826.110        0.250        0.200       30.729       10.915        0.126      348.312       27.916      860.772
09/03/2013  13:24:00      -29.470      -59.652       11.010       94.266       42.854       39.149     8886.084     1836.444     1532.673        0.840        0.613       66.535       49.262        0.548      348.495       28.232      860.825
09/03/2013  13:25:00      -92.064      -83.018       -2.715       66.181       33.736       26.857     4379.867     1138.093      721.308        1.081        0.312      123.967       30.139        0.059      348.425       28.113      860.832
09/03/2013  13:26:00      -84.613      -63.251        4.111       59.445       54.368       30.786     3533.697     2955.852      947.762        0.931        0.372      105.641       24.050        0.052      348.517       28.272      860.821
09/03/2013  13:27:00      -41.719        0.302       -0.114       48.303       31.796       26.482     2333.204     1010.990      701.288        0.289        0.202       41.720       22.297        0.286      348.604       28.421      860.769
09/03/2013  13:28:00      -74.181      -18.587       -0.809       96.352       72.911       39.051     9283.795     5315.957     1524.999        1.098        0.806       76.474       26.476        0.120      348.659       28.517      860.759
09/03/2013  13:29:00      -83.559      -91.767       -1.819       81.348       99.669       40.532     6617.549     9933.955     1642.841        1.680        0.910      124.110       49.764        0.161      348.770       28.708      860.762
09/03/2013  13:30:00     -122.529      -23.512        3.283       76.265       58.992       41.885     5816.313     3480.031     1754.360        1.331        0.553      124.764       47.950        0.148      348.827       28.806      860.747
09/03/2013  13:31:00      -27.600     -121.968       15.975       50.032      104.367       39.836     2503.201    10892.391     1586.921        1.543        0.749      125.052       18.041        0.021      348.749       28.669      860.754
09/03/2013  13:32:00     -202.447     -142.276       14.197      141.097      109.790       65.617    19908.302    12053.912     4305.597        4.884        1.813      247.441       64.506        0.068      348.714       28.609      860.724
09/03/2013  13:33:00     -272.287     -228.983       -1.709      181.110      176.425       80.389    32800.772    31125.746     6462.444        9.847        3.519      355.771       83.615        0.055      348.569       28.357      860.722
09/03/2013  13:34:00     -100.749      -58.301       -2.473      157.005       78.686       40.530    24650.459     6191.443     1642.662        2.301        1.624      116.402       24.888        0.046      348.710       28.604      860.760
09/03/2013  13:35:00       55.240     -188.694      -44.704       59.690       88.421       55.184     3562.944     7818.337     3045.244        2.754        0.721      196.613       40.169        0.042      348.814       28.782      860.779
09/03/2013  13:36:00       81.145      -19.388       31.394       89.005      103.646       68.119     7921.924    10742.530     4640.252        1.562        1.165       83.429       76.198        0.834      348.699       28.584      860.738
09/03/2013  13:37:00      118.012     -108.178        6.924       70.792       69.505       41.522     5011.572     4830.900     1724.046        1.862        0.578      160.091       26.727        0.028      348.673       28.540      860.683
09/03/2013  13:38:00       26.230     -179.290       -9.350       98.717      103.469       49.094     9745.125    10705.922     2410.228        2.789        1.143      181.199       40.217        0.049      348.952       29.020      860.691
09/03/2013  13:39:00       -3.948      -78.310       36.882      103.984      140.053       88.907    10812.754    19614.824     7904.376        2.291        1.917       78.410       83.150        1.125      349.110       29.295      860.658
09/03/2013  13:40:00       20.281     -149.416       -2.660      108.694      128.858       48.167    11814.293    16604.472     2320.089        2.674        1.537      150.786       38.774        0.066      349.155       29.372      860.700
09/03/2013  13:41:00     -156.878     -150.468       14.203      175.620      164.398       80.469    30842.443    27026.792     6475.274        5.589        3.217      217.373       96.682        0.198      349.146       29.356      860.667
09/03/2013  13:42:00     -196.254     -225.749       12.090      157.900      166.725       73.697    24932.434    27797.307     5431.229        7.388        2.908      299.130       68.130        0.052      349.070       29.225      860.677
09/03/2013  13:43:00     -346.878     -223.019      -14.937      179.778      130.783       80.062    32319.971    17104.178     6409.927       11.305        2.792      412.386       93.868        0.052      348.834       28.817      860.653
09/03/2013  13:44:00     -277.073     -227.199        3.130      175.655      131.142       84.224    30854.813    17198.224     7093.651        9.176        2.757      358.315      100.625        0.079      348.766       28.698      860.687
09/03/2013  13:45:00     -286.491     -244.671      -13.086      123.636       96.157       70.206    15285.942     9246.168     4928.849        8.578        1.473      376.750       66.631        0.031      348.727       28.631      860.709
09/03/2013  13:46:00     -177.530      -82.452       -4.241       88.210       78.133       50.119     7781.072     6104.786     2511.918        2.736        0.820      195.743       43.679        0.050      348.825       28.800      860.718
09/03/2013  13:47:00     -217.841     -137.829       -1.483      142.528       88.456       48.950    20314.349     7824.413     2396.097        4.849        1.527      257.781       65.869        0.065      348.928       28.978      860.706
09/03/2013  13:48:00      -79.089     -111.069        5.677      125.981      113.261       49.179    15871.224    12827.956     2418.606        2.486        1.556      136.350       61.355        0.202      348.755       28.681      860.694
09/03/2013  13:49:00      -87.006      -43.265        6.151       64.984       50.457       28.196     4222.978     2545.945      795.024        0.852        0.378       97.170       37.524        0.149      348.766       28.701      860.624
09/03/2013  13:50:00     -153.706      -40.400      -12.785       64.400       69.129       29.414     4147.357     4778.831      865.207        1.760        0.490      158.927       28.262        0.032      348.815       28.785      860.600
09/03/2013  13:51:00     -259.456       37.836      -32.231      118.468       76.663       46.669    14034.753     5877.228     2178.008        4.593        1.104      262.201       49.557        0.036      349.008       29.117      860.568
09/03/2013  13:52:00     -381.718     -135.994      -21.900      183.891      128.535       71.865    33815.888    16521.215     5164.609       11.008        2.775      405.220       47.335        0.014      349.064       29.214      860.548
09/03/2013  13:53:00     -234.957     -114.567       14.088      146.113      146.225       76.351    21348.942    21381.612     5829.401        5.853        2.428      261.401       70.690        0.073      349.230       29.503      860.528
09/03/2013  13:54:00     -239.497      -81.778       -5.357      133.682      102.456       56.157    17870.768    10497.178     3153.652        4.779        1.576      253.074       64.049        0.064      349.184       29.422      860.496
09/03/2013  13:55:00      -17.058      -95.146       11.381       90.759      105.633       58.484     8237.111    11158.291     3420.405        1.614        1.141       96.663       56.681        0.344      349.444       29.875      860.518
09/03/2013  13:56:00       66.025     -232.232        6.635      140.372      136.369       69.966    19704.365    18596.596     4895.274        5.076        2.160      241.436       70.863        0.086      349.209       29.466      860.515
09/03/2013  13:57:00       29.763     -153.872       24.524       94.872      153.837       70.793     9000.698    23665.866     5011.652        3.141        1.884      156.724       65.736        0.176      349.321       29.661      860.479
09/03/2013  13:58:00      -72.113      -61.158        9.466      176.468       83.448       60.519    31141.116     6963.631     3662.540        2.539        2.088       94.554       58.540        0.383      349.390       29.782      860.472
09/03/2013  13:59:00      -92.304     -181.390      -19.272      114.812       96.994       57.963    13181.836     9407.877     3359.763        3.387        1.297      203.525       39.432        0.038      349.228       29.498      860.474
09/03/2013  14:00:00      -51.093     -168.107       -2.960       95.840      121.742       62.818     9185.220    14821.028     3946.136        2.941        1.398      175.700       57.901        0.109      349.264       29.564      860.461
09/03/2013  14:01:00      -33.327     -112.234      -11.801      103.700       85.574       58.565    10753.678     7322.938     3429.844        1.767        1.075      117.078       45.631        0.152      349.509       29.988      860.471
09/03/2013  14:02:00     -115.215     -110.153       -1.057       91.924       82.788       45.611     8450.077     6853.801     2080.340        2.139        0.869      159.399       17.801        0.012      349.409       29.814      860.487
09/03/2013  14:03:00      -18.294     -100.714       11.791      127.416      109.037       73.044    16234.777    11889.152     5335.386        2.203        1.673      102.362       67.299        0.432      349.512       29.992      860.457
09/03/2013  14:04:00      108.266     -145.715       17.906      167.634      176.181       89.168    28101.316    31039.736     7950.957        5.017        3.355      181.533      115.228        0.403      349.358       29.725      860.439
09/03/2013  14:05:00        8.687     -246.486       -6.552      131.827       96.969       55.557    17378.296     9402.972     3086.554        4.536        1.493      246.639       27.258        0.012      349.292       29.610      860.439
09/03/2013  14:06:00     -110.207      -89.211       25.591      153.031      119.220       63.039    23418.586    14213.296     3973.881        3.117        2.080      141.789       54.314        0.147      349.461       29.904      860.427
09/03/2013  14:07:00      -43.538      -37.944       12.536       79.188       97.708       55.961     6270.703     9546.815     3131.688        1.122        0.947       57.751       38.534        0.445      349.546       30.051      860.425
09/03/2013  14:08:00       -1.211      -27.751        4.308       39.051       43.164       30.927     1524.993     1863.131      956.477        0.257        0.217       27.777       26.958        0.942      349.657       30.246      860.384
09/03/2013  14:09:00        9.229       34.901       57.795       37.773       56.735       29.653     1426.836     3218.878      879.308        0.508        0.276       36.101       27.449        0.578      349.754       30.414      860.337
09/03/2013  14:10:00      -81.439      -25.759       -2.162       81.840       57.961       47.227     6697.862     3359.428     2230.382        0.979        0.614       85.416       22.830        0.071      349.626       30.194      860.294
09/03/2013  14:11:00     -252.128     -214.395       -2.953      174.062      126.506       80.545    30297.473    16003.709     6487.429        8.115        2.639      330.959       74.894        0.051      349.630       30.196      860.353
09/03/2013  14:12:00     -165.014     -490.702       18.389      194.242      236.712       95.369    37729.850    56032.794     9095.152       18.559        5.143      517.705       69.735        0.018      349.337       29.687      860.328
09/03/2013  14:13:00     -279.247     -199.070       -3.226      140.819      110.641       71.287    19830.057    12241.385     5081.890        7.738        1.858      342.940       69.260        0.041      349.443       29.871      860.372
09/03/2013  14:14:00     -137.554      -81.606      -15.324       46.123       95.249       26.659     2127.366     9072.416      710.688        1.886        0.596      159.940       18.752        0.014      349.125       29.323      860.377
09/03/2013  14:15:00     -147.350     -238.355       -1.566      118.783      130.459       75.878    14109.423    17019.574     5757.437        5.770        1.844      280.223       54.181        0.037      349.344       29.700      860.382
09/03/2013  14:16:00     -233.609     -281.463       -9.945      195.318      145.388       79.956    38149.119    21137.666     6392.923        9.977        3.284      365.779       64.076        0.031      349.266       29.563      860.347
09/03/2013  14:17:00     -259.014     -206.678       10.049      196.961      170.810       74.060    38793.554    29176.214     5484.854        9.167        3.673      331.367       85.630        0.067      349.392       29.783      860.345
09/03/2013  14:18:00     -134.349     -297.161      -17.029       99.180      120.656       65.942     9836.702    14557.972     4348.396        6.769        1.437      326.120       44.841        0.019      349.222       29.487      860.323
09/03/2013  14:19:00     -137.918     -141.922      -20.112       79.718       81.362       41.839     6354.936     6619.784     1750.485        2.714        0.736      197.897       35.154        0.032      349.322       29.663      860.306
09/03/2013  14:20:00     -152.619     -108.582        3.665      116.217      109.260       53.360    13506.434    11937.752     2847.296        3.169        1.415      187.303       54.858        0.086      349.412       29.819      860.286
09/03/2013  14:21:00      -59.931     -188.618        6.667      152.364      196.504       70.954    23214.882    38613.934     5034.429        5.302        3.343      197.910       69.971        0.125      349.478       29.933      860.292
09/03/2013  14:22:00      -29.113     -225.252      -23.838      153.214      189.281       70.920    23474.626    35827.283     5029.641        5.823        3.217      227.126       58.354        0.066      349.383       29.769      860.261
09/03/2013  14:23:00     -163.851     -344.150      -19.009      148.461      150.023       71.565    22040.784    22506.915     5121.596        9.765        2.483      381.165       65.484        0.030      349.285       29.597      860.283
09/03/2013  14:24:00     -102.616     -122.862       21.852      154.557      140.447       67.954    23887.810    19725.342     4617.787        3.716        2.412      160.078       61.149        0.146      349.465       29.911      860.267
09/03/2013  14:25:00       -0.210      -84.597       26.756       86.093       64.975       48.886     7411.981     4221.732     2389.842        1.095        0.701       84.597       44.815        0.281      349.452       29.890      860.233
09/03/2013  14:26:00      -15.348      -81.414        0.601       32.891       49.036       45.284     1081.797     2404.501     2050.664        0.620        0.277       82.848       29.189        0.124      349.469       29.921      860.197
09/03/2013  14:27:00     -228.150      -61.628        0.123      142.536       82.798       40.813    20316.515     6855.462     1665.681        4.234        1.442      236.327       37.013        0.025      349.520       30.005      860.173
09/03/2013  14:28:00     -302.657     -203.680       -6.406      162.364      140.680       72.486    26361.964    19790.878     5254.288        9.226        2.570      364.811       73.664        0.041      349.295       29.614      860.185
09/03/2013  14:29:00     -319.322     -191.905       -4.263      194.247      152.480       76.728    37731.860    23250.046     5887.143       10.283        3.343      372.550       89.670        0.058      349.278       29.585      860.195
09/03/2013  14:30:00     -283.435     -179.182       -2.916      163.892      127.171       67.487    26860.467    16172.392     4554.465        8.001        2.379      335.323       58.033        0.030      349.332       29.678      860.211
09/03/2013  14:31:00     -393.828     -212.278       -1.305      159.315      113.954       70.559    25381.154    12985.577     4978.600       12.175        2.167      447.395       64.272        0.021      349.134       29.336      860.198
09/03/2013  14:32:00     -204.887     -168.843        3.618      178.332      109.047       63.563    31802.448    11891.262     4040.289        5.911        2.387      265.493       63.276        0.057      349.330       29.675      860.171
09/03/2013  14:33:00     -199.566     -165.022       -1.253      139.435      114.559       73.820    19441.981    13123.819     5449.394        5.253        1.901      258.957       78.194        0.091      349.362       29.731      860.188
09/03/2013  14:34:00     -261.297     -242.047        0.301      163.176      107.386       74.921    26626.404    11531.837     5613.114        8.531        2.189      356.178       78.490        0.049      349.425       29.838      860.198
09/03/2013  14:35:00     -158.844     -456.479      -19.310      157.068      129.191       84.038    24670.480    16690.242     7062.424       14.119        2.421      483.326       68.605        0.020      349.241       29.521      860.210
09/03/2013  14:36:00     -353.577     -279.185      -10.548      210.809      183.813       90.249    44440.451    33787.041     8144.967       14.471        4.319      450.512      102.645        0.052      349.299       29.622      860.177
09/03/2013  14:37:00     -229.430     -254.412        1.331      148.176      149.717       73.875    21956.183    22415.314     5457.456        8.359        2.491      342.583       67.704        0.039      349.194       29.441      860.191
09/03/2013  14:38:00     -160.181     -316.955       -3.610      136.088      176.773       76.622    18520.051    31248.824     5870.978        9.087        2.782      355.132       81.044        0.052      349.195       29.440      860.158
09/03/2013  14:39:00     -392.351        4.857      -12.512      236.745      139.969       69.662    56048.329    19591.248     4852.815       11.729        4.025      392.381      102.820        0.069      349.529       30.019      860.139
09/03/2013  14:40:00     -112.317     -141.267       -5.612      119.625      101.276       50.068    14310.177    10256.923     2506.779        2.983        1.354      180.476       20.058        0.012      349.537       30.036      860.124
09/03/2013  14:41:00     -143.006     -307.130      -19.596      155.270      152.724       74.666    24108.773    23324.536     5575.062        8.408        2.650      338.791       74.347        0.048      349.439       29.865      860.072
09/03/2013  14:42:00      -53.493     -200.926      -18.827      102.782       99.599       63.171    10564.124     9919.899     3990.637        3.403        1.224      207.925       41.780        0.040      349.484       29.943      860.116
09/03/2013  14:43:00     -288.008     -219.161       13.336      196.424      139.715       78.625    38582.578    19520.246     6181.928        9.771        3.214      361.912       69.060        0.036      349.436       29.858      860.134
09/03/2013  14:44:00     -219.117      -93.204       -1.953      148.228      101.472       66.937    21971.619    10296.555     4480.549        4.672        1.837      238.116       69.136        0.084      349.492       29.957      860.136
09/03/2013  14:45:00     -155.194     -140.329        2.963      137.722       91.539       59.442    18967.345     8379.355     3533.339        3.733        1.544      209.231       61.516        0.086      349.511       29.988      860.130
09/03/2013  14:46:00     -248.994     -174.213        1.494      153.563      141.897       72.069    23581.678    20134.863     5193.893        7.062        2.446      303.888       78.661        0.067      349.431       29.852      860.129
09/03/2013  14:47:00     -158.277     -191.280       -0.003      148.895      140.443       59.483    22169.598    19724.149     3538.175        5.353        2.272      248.274       53.845        0.047      349.434       29.857      860.105
09/03/2013  14:48:00     -220.605     -164.479       -1.669       97.506      118.703       54.512     9507.384    14090.476     2971.535        5.114        1.328      275.172       58.259        0.045      349.381       29.765      860.117
09/03/2013  14:49:00     -208.785     -209.508       -1.054      116.422      113.514       68.277    13554.072    12885.520     4661.704        5.929        1.555      295.778       66.031        0.050      349.302       29.626      860.086
09/03/2013  14:50:00     -323.419     -121.487      -20.415      132.137      120.650       60.532    17460.088    14556.514     3664.078        7.772        1.784      345.484       59.690        0.030      349.308       29.636      860.055
09/03/2013  14:51:00     -442.856     -129.722      -23.155      138.941      153.510       85.275    19304.533    23565.269     7271.901       13.180        2.507      461.464       75.845        0.027      349.252       29.540      860.016
09/03/2013  14:52:00     -240.845     -190.394        2.648      173.268      143.141       86.350    30021.775    20489.279     7456.309        7.610        2.898      307.012       94.953        0.096      349.320       29.660      860.016
09/03/2013  14:53:00     -306.224     -170.215       -1.663      177.199      151.738       77.720    31399.355    23024.439     6040.434        9.159        3.023      350.352       91.834        0.069      349.267       29.567      860.014
09/03/2013  14:54:00     -163.117     -198.928        3.886      150.089      120.136       71.161    22526.608    14432.613     5063.846        5.410        2.101      257.254       71.738        0.078      349.386       29.773      860.000
09/03/2013  14:55:00     -534.584     -360.007      -13.326      291.942      231.517      103.690    85230.382    53599.952    10751.636       28.254        7.479      644.504      129.863        0.041      349.154       29.370      859.978
09/03/2013  14:56:00     -522.056     -408.747      -20.957      256.548      207.805      123.703    65816.627    43183.047    15302.311       28.215        6.215      663.036      142.768        0.046      349.018       29.134      859.967
09/03/2013  14:57:00     -385.651     -241.083      -18.318      187.826      175.245       96.437    35278.765    30710.815     9300.126       14.122        3.764      454.805       94.619        0.043      349.160       29.380      859.997
09/03/2013  14:58:00     -409.157     -256.563      -17.116      187.122      172.386       91.919    35014.611    29716.819     8449.055       15.334        3.659      482.943       85.559        0.031      349.101       29.279      860.030
09/03/2013  14:59:00     -247.046     -147.155       -7.848      188.410      202.024       82.746    35498.400    40813.780     6846.887        8.294        4.158      287.553       93.433        0.106      349.176       29.410      860.051
09/03/2013  15:00:00     -134.845     -319.442       -9.867      131.520      135.835       69.389    17297.522    18451.167     4814.797        8.044        2.028      346.736       50.666        0.021      349.202       29.454      860.050
09/03/2013  15:01:00     -125.192     -154.524       -6.769      108.467       77.726       64.317    11765.131     6041.294     4136.676        3.077        1.097      198.874       40.734        0.042      349.330       29.676      860.011
09/03/2013  15:02:00     -258.215     -116.903       -3.848      193.704      103.836       60.001    37521.398    10782.014     3600.113        6.612        2.595      283.446       53.664        0.036      349.328       29.672      859.985
09/03/2013  15:03:00     -324.021     -171.308      -18.592      164.015      121.410       70.186    26901.074    14740.328     4926.012        9.062        2.328      366.519       67.861        0.034      349.257       29.549      859.969
09/03/2013  15:04:00     -279.394      -64.003      -17.596      122.422      126.251       53.937    14987.188    15939.301     2909.238        5.814        1.692      286.631       51.679        0.033      349.344       29.700      859.976
09/03/2013  15:05:00     -209.314     -165.508        2.139      143.463      123.551       64.384    20581.688    15264.865     4145.324        5.559        2.000      266.843       61.384        0.053      349.359       29.725      859.986
09/03/2013  15:06:00     -187.743     -201.921        8.173      170.862      103.834       63.735    29193.653    10781.568     4062.144        6.005        2.202      275.717       72.116        0.068      349.235       29.510      859.957
09/03/2013  15:07:00     -193.829      -12.816        5.950      150.320      120.125       51.542    22596.077    14430.089     2656.562        3.872        1.984      194.253       57.019        0.086      349.399       29.796      859.929
09/03/2013  15:08:00     -227.515     -155.308       -8.319      128.756      112.042       68.088    16578.154    12553.362     4635.951        5.485        1.688      275.470       55.702        0.041      349.528       30.018      859.933
09/03/2013  15:09:00     -238.217     -195.222       20.267      221.526      152.497       99.350    49073.897    23255.465     9870.360        8.872        4.110      307.992      122.068        0.157      349.384       29.770      859.908
09/03/2013  15:10:00     -225.082     -139.306       10.527      151.067      124.990       74.512    22821.244    15622.608     5551.977        5.708        2.200      264.704       77.430        0.086      349.410       29.816      859.910
09/03/2013  15:11:00     -285.937     -242.545      -14.029      220.761      159.121       81.651    48735.363    25319.574     6666.904       11.074        4.036      374.951       93.173        0.062      349.385       29.772      859.918
09/03/2013  15:12:00     -227.695      -83.447       22.728      221.636      147.882       82.046    49122.609    21869.025     6731.548        6.851        3.886      242.504      108.105        0.199      349.393       29.787      859.922
09/03/2013  15:13:00     -267.775     -106.341       14.118      237.611      129.019       80.153    56459.033    16645.952     6424.468        8.135        3.976      288.118       93.810        0.106      349.428       29.846      859.887
09/03/2013  15:14:00     -548.149     -180.804      -25.593      216.377      170.173      103.617    46819.184    28958.699    10736.518       21.015        4.326      577.198      113.078        0.038      349.310       29.640      859.863
09/03/2013  15:15:00     -216.319      -58.404       28.366      150.412      123.302       66.596    22623.653    15203.476     4435.023        4.663        2.113      224.065       71.152        0.101      349.602       30.147      859.905
09/03/2013  15:16:00     -292.792     -230.290        0.787      162.250      140.376       90.765    26324.958    19705.347     8238.369        9.650        2.713      372.506       82.626        0.049      349.123       29.316      859.896
09/03/2013  15:17:00     -221.756     -104.279       21.521      231.001      138.728      105.904    53361.318    19245.476    11215.703        7.215        4.191      245.051      136.322        0.309      349.293       29.612      859.852
09/03/2013  15:18:00     -295.930      -63.210      -13.376      207.864      106.193       78.874    43207.371    11277.020     6221.120        7.621        3.035      302.605       94.435        0.097      349.415       29.821      859.852
09/03/2013  15:19:00     -311.062     -123.763       -8.149      202.833      131.327       66.860    41141.196    17246.885     4470.220        8.749        3.143      334.779       89.513        0.071      349.532       30.026      859.843
09/03/2013  15:20:00     -439.316     -280.533      -21.826      297.249      187.941      105.868    88356.738    35321.807    11208.104       20.350        6.744      521.246      136.947        0.069      349.232       29.504      859.843
09/03/2013  15:21:00     -302.075     -207.380       15.352      260.792      158.018      109.701    68012.474    24969.772    12034.337       11.973        5.251      366.409      128.968        0.124      349.116       29.304      859.813
09/03/2013  15:22:00     -409.452      -81.057      -18.466      210.832      165.949       86.010    44449.990    27539.086     7397.661       12.696        3.969      417.398       99.115        0.056      349.310       29.639      859.802
09/03/2013  15:23:00     -363.102     -175.526      -35.011      180.597      151.783       74.791    32615.269    23038.170     5593.749       11.255        3.062      403.302       75.282        0.035      349.388       29.777      859.818
09/03/2013  15:24:00     -381.444     -129.916       -2.788      187.675      147.198       91.971    35221.900    21667.121     8458.593       11.385        3.267      402.961       94.608        0.055      349.351       29.712      859.822
09/03/2013  15:25:00     -482.482     -135.061      -38.231      179.519      165.930       73.119    32226.974    27532.767     5346.419       15.879        3.255      501.029       80.394        0.026      349.366       29.737      859.760
09/03/2013  15:26:00     -319.042     -106.777        0.147      195.296      158.939       79.085    38140.379    25261.701     6254.495        9.141        3.483      336.435       85.075        0.064      349.520       30.004      859.780
09/03/2013  15:27:00     -371.272     -323.797      -11.910      189.597      153.103       93.132    35946.988    23440.595     8673.580       15.543        3.403      492.633       92.049        0.035      349.329       29.674      859.803
09/03/2013  15:28:00     -337.707     -126.310       -7.560      159.854      141.152       74.519    25553.460    19923.974     5553.063        9.053        2.552      360.555       66.430        0.034      349.436       29.857      859.791
09/03/2013  15:29:00     -541.004     -213.490      -29.933      178.591      205.223       90.251    31894.679    42116.563     8145.264       21.064        4.108      581.604       96.143        0.027      349.152       29.367      859.791
09/03/2013  15:30:00     -403.281     -320.039       -5.493      213.194      210.965      107.596    45451.589    44506.417    11576.800       18.329        5.077      514.840      127.175        0.061      349.191       29.434      859.772
09/03/2013  15:31:00     -362.414     -273.779       -4.926      211.431      177.451      105.453    44703.224    31488.715    11120.269       14.680        4.366      454.201      108.380        0.057      349.255       29.545      859.776
09/03/2013  15:32:00     -469.445     -190.066      -43.132      209.867      191.903       81.162    44044.311    36826.791     6587.344       17.289        4.373      506.462       79.138        0.024      349.206       29.462      859.790
09/03/2013  15:33:00     -334.386     -102.778       -2.452      246.814      160.206      101.314    60917.346    25665.903    10264.536       10.960        4.842      349.825      114.630        0.107      349.346       29.704      859.787
09/03/2013  15:34:00     -352.126     -161.355      -24.756      198.229      149.530       85.738    39294.806    22359.134     7351.024       10.981        3.450      387.335      100.109        0.067      349.139       29.343      859.815
09/03/2013  15:35:00     -416.376     -266.336       -1.735      183.659      160.150       94.926    33730.445    25648.044     9010.991       15.633        3.419      494.271       95.209        0.037      349.114       29.301      859.765
09/03/2013  15:36:00     -184.790     -150.805        2.315      143.823      129.464       57.426    20685.034    16760.927     3297.704        4.881        2.037      238.515       68.459        0.082      349.045       29.183      859.741
09/03/2013  15:37:00     -122.029       14.653        1.395      101.105      106.331       66.574    10222.162    11306.200     4432.120        2.053        1.298      122.905       61.087        0.247      349.369       29.745      859.729
09/03/2013  15:38:00     -137.696      -33.551       13.319      119.561      103.204       59.962    14294.835    10650.986     3595.432        2.440        1.427      141.724       57.409        0.164      349.613       30.168      859.714
09/03/2013  15:39:00     -417.490     -240.008      -23.596      266.487      173.897       95.487    71015.425    30240.306     9117.817       17.139        5.519      481.562      114.381        0.056      349.277       29.583      859.712
09/03/2013  15:40:00     -442.436     -216.739      -24.011      221.708      176.186       85.754    49154.603    31041.410     7353.744       16.541        4.377      492.671       76.086        0.024      349.191       29.433      859.712
09/03/2013  15:41:00     -306.598     -185.155       11.694      235.897      165.142       98.445    55647.389    27271.849     9691.426       11.050        4.631      358.168      122.101        0.116      349.302       29.627      859.700
09/03/2013  15:42:00     -312.953     -223.454        3.804      201.196      156.443       97.271    40479.960    24474.489     9461.619       11.114        3.721      384.541       99.145        0.066      349.272       29.575      859.695
09/03/2013  15:43:00     -516.415     -438.494      -33.932      265.379      207.235      116.214    70426.038    42946.310    13505.663       29.347        6.344      677.467      127.989        0.036      349.078       29.239      859.700
09/03/2013  15:44:00     -430.861     -230.863        2.296      250.445      150.812      108.615    62722.694    22744.239    11797.324       16.808        4.863      488.814      126.995        0.067      349.089       29.257      859.712
09/03/2013  15:45:00     -436.222     -262.264      -23.618      186.653      147.603       82.936    34839.374    21786.583     6878.447       16.155        3.175      508.991       73.715        0.021      349.126       29.321      859.708
09/03/2013  15:46:00     -169.256      -76.383       -2.819      120.251       96.623       63.250    14460.294     9336.061     4000.612        3.114        1.390      185.693       67.479        0.132      349.458       29.897      859.731
09/03/2013  15:47:00     -335.734     -240.570      -11.462      131.258      147.026       78.671    17228.755    21616.739     6189.052       10.787        2.252      413.027       70.978        0.030      349.287       29.600      859.704
09/03/2013  15:48:00     -633.178     -103.940      -40.528      180.802      225.255       84.680    32689.315    50739.722     7170.694       25.196        4.530      641.652       78.973        0.015      349.209       29.466      859.722
09/03/2013  15:49:00     -335.750     -223.413       -4.615      215.682      206.582       96.164    46518.819    42676.315     9247.489       13.053        4.922      403.288      106.954        0.070      349.208       29.464      859.743
09/03/2013  15:50:00     -292.538     -119.665       -0.440      191.980      113.562       71.723    36856.220    12896.383     5144.169        7.739        2.745      316.067       79.621        0.063      349.337       29.688      859.779
09/03/2013  15:51:00     -262.359      -77.472       -5.488      215.398      159.716       87.471    46396.153    25509.043     7651.096        7.719        3.978      273.558      103.346        0.143      349.436       29.859      859.795
09/03/2013  15:52:00     -393.045     -204.093      -11.429      261.704      212.145      115.027    68488.866    45005.712    13231.110       16.147        6.336      442.875      122.430        0.076      349.091       29.260      859.761
09/03/2013  15:53:00     -313.779     -260.295       18.485      230.166      253.476      125.253    52976.169    64250.241    15688.278       14.971        6.646      407.690      154.025        0.143      349.150       29.362      859.763
09/03/2013  15:54:00     -366.741      -88.489       -8.758      165.200      119.190       77.921    27291.011    14206.230     6071.719        9.498        2.378      377.266       78.600        0.043      349.231       29.505      859.784
09/03/2013  15:55:00     -353.811     -102.985      -12.806      150.706      106.911       63.736    22712.405    11430.003     4062.302        8.707        1.910      368.495       58.010        0.025      349.233       29.507      859.783
09/03/2013  15:56:00     -396.732      -26.637      -12.868      228.797      152.484       92.144    52348.060    23251.341     8490.548       12.116        4.204      397.626       98.188        0.061      349.292       29.610      859.755
09/03/2013  15:57:00     -630.502      -85.453      -42.199      234.938      189.396       98.853    55195.676    35870.979     9771.844       25.371        5.042      636.267      104.238        0.027      349.054       29.196      859.738
09/03/2013  15:58:00     -480.418     -149.831       -4.048      195.645      161.837       79.429    38276.928    26191.110     6308.899       16.201        3.539      503.240       80.113        0.025      349.131       29.329      859.742
09/03/2013  15:59:00     -231.078      -77.998        8.769      149.951      135.648       69.750    22485.327    18400.360     4865.122        5.265        2.288      243.887       76.013        0.097      349.289       29.604      859.759
09/03/2013  16:00:00     -316.557      -47.574       -5.043      310.552      127.652       79.836    96442.833    16294.941     6373.805       11.078        5.956      320.112      101.250        0.100      349.258       29.552      859.739
09/03/2013  16:01:00     -460.670       15.042       -0.485      258.685      191.142      110.200    66917.702    36535.366    12143.948       16.400        5.780      460.916      132.623        0.083      349.148       29.360      859.704
09/03/2013  16:02:00     -391.823     -299.631      -17.257      209.714      148.510       93.275    43980.077    22055.083     8700.309       15.915        3.737      493.259       99.157        0.040      349.116       29.303      859.748
09/03/2013  16:03:00     -346.748     -294.869       -7.710      236.868      158.802      113.477    56106.552    25218.194    12877.084       15.070        4.710      455.172      129.620        0.081      349.174       29.404      859.712
09/03/2013  16:04:00     -500.252     -156.746      -25.648      199.515      161.876       80.912    39806.348    26203.756     6546.689       17.400        3.628      524.234       91.921        0.031      348.997       29.098      859.722
09/03/2013  16:05:00     -381.966     -111.073       -4.229      254.995      165.600       82.981    65022.267    27423.466     6885.892       12.877        4.967      397.788      106.423        0.072      349.157       29.376      859.735
09/03/2013  16:06:00     -248.846     -204.627       -6.213      192.188      131.147       75.712    36936.201    17199.515     5732.272        8.184        2.993      322.175       87.804        0.074      349.288       29.603      859.712
09/03/2013  16:07:00     -221.796     -124.314       -3.707      146.212      131.710       59.981    21377.836    17347.545     3597.687        5.348        2.116      254.259       56.237        0.049      349.387       29.773      859.683
09/03/2013  16:08:00     -178.194     -118.659      -10.729      148.615      105.751       67.481    22086.486    11183.303     4553.626        4.188        1.891      214.087       74.972        0.123      349.476       29.928      859.677
09/03/2013  16:09:00     -161.294      -66.041       13.090      145.084      128.744       74.139    21049.461    16575.114     5496.657        3.683        2.156      174.290       66.557        0.146      349.636       30.207      859.664
09/03/2013  16:10:00     -274.591     -167.069       -0.921      153.797      115.218       70.974    23653.566    13275.240     5037.300        7.263        2.098      321.422       72.838        0.051      349.509       29.984      859.684
09/03/2013  16:11:00     -155.350      -30.919       16.786      114.369       90.529       60.041    13080.234     8195.440     3604.979        2.512        1.244      158.397       50.088        0.100      349.702       30.322      859.713
09/03/2013  16:12:00     -294.308      -72.485        8.684      189.315      152.224       75.626    35840.216    23172.293     5719.307        7.833        3.237      303.103       70.956        0.055      349.528       30.019      859.703
09/03/2013  16:13:00     -187.125      -71.338        6.557      146.578      144.953       64.575    21485.050    21011.516     4169.906        4.340        2.333      200.262       78.680        0.154      349.580       30.109      859.707
09/03/2013  16:14:00     -229.683      -40.505        7.735      172.940       93.189       67.491    29908.117     8684.273     4555.007        4.879        2.157      233.227       82.916        0.126      349.513       29.993      859.721
09/03/2013  16:15:00     -264.414     -149.748       -4.150      179.848      155.307       79.056    32345.245    24120.389     6249.919        7.752        3.136      303.874       87.674        0.083      349.455       29.892      859.719
09/03/2013  16:16:00     -318.498     -204.073       13.535      177.248      146.737       87.608    31416.950    21531.731     7675.205       10.193        3.031      378.268       89.142        0.056      349.193       29.437      859.741
09/03/2013  16:17:00     -255.888     -198.393       -0.431      184.651      193.768       95.902    34096.049    37545.846     9197.145        9.282        4.042      323.788      107.106        0.109      349.083       29.249      859.713
09/03/2013  16:18:00     -425.744     -251.729      -29.964      160.832      137.142       85.734    25866.889    18807.982     7350.342       14.876        2.601      494.596       76.171        0.024      348.861       28.863      859.700
09/03/2013  16:19:00     -263.000     -217.205       -9.777      156.540      120.514       66.158    24504.749    14523.673     4376.820        7.992        2.170      341.097       83.168        0.059      349.045       29.182      859.671
09/03/2013  16:20:00     -330.279     -215.190       -1.142      230.192      188.930       98.160    52988.292    35694.466     9635.317       12.684        4.916      394.197      123.350        0.098      349.247       29.529      859.644
09/03/2013  16:21:00     -208.375     -135.814        3.946      234.541      185.596      121.701    55009.425    34446.018    14811.028        8.305        5.213      248.728      124.971        0.252      349.285       29.599      859.650
09/03/2013  16:22:00     -382.996     -198.545       -4.002      197.632      185.190       98.409    39058.271    34295.250     9684.397       13.456        4.152      431.400      106.612        0.061      349.125       29.320      859.653
09/03/2013  16:23:00     -320.303     -189.307       -1.570      262.146      184.845      123.374    68720.519    34167.699    15221.198       12.825        5.905      372.064      142.085        0.146      349.200       29.451      859.692
09/03/2013  16:24:00     -391.899     -220.287      -10.175      208.830      148.198       96.523    43609.786    21962.729     9316.747       13.854        3.744      449.568      102.399        0.052      349.026       29.150      859.728
09/03/2013  16:25:00     -322.944     -268.958       -2.707      193.014      169.709       86.892    37254.572    28801.314     7550.266       12.511        3.680      420.275       86.664        0.043      349.099       29.275      859.732
09/03/2013  16:26:00     -385.312     -248.791      -19.693      228.158      156.142      101.873    52055.932    24380.302    10378.148       14.876        4.341      458.653      104.896        0.052      349.118       29.309      859.723
09/03/2013  16:27:00     -498.113     -290.333        0.118      206.328      172.097       96.511    42571.327    29617.544     9314.437       20.694        4.075      576.550       92.190        0.026      349.069       29.223      859.712
09/03/2013  16:28:00     -554.492     -192.845      -21.170      234.179      226.490      103.123    54839.982    51297.691    10634.279       23.091        5.839      587.069      107.196        0.033      349.019       29.136      859.657
09/03/2013  16:29:00     -410.602     -120.180        6.740      184.791      163.978      100.244    34147.736    26888.807    10048.927       12.707        3.554      427.828      102.196        0.057      349.092       29.263      859.641
09/03/2013  16:30:00     -428.651      -85.159      -23.667      183.312      156.765       90.669    33603.179    24575.114     8220.877       12.896        3.320      437.029       83.029        0.036      349.100       29.275      859.679
09/03/2013  16:31:00     -435.558     -318.543      -23.392      228.783      243.340      104.000    52341.860    59214.439    10816.076       20.703        6.119      539.611      129.011        0.057      349.100       29.277      859.703
09/03/2013  16:32:00     -282.956     -235.003      -15.515      211.948      179.897       76.512    44922.143    32362.771     5854.042       10.932        4.157      367.819      104.830        0.081      349.183       29.421      859.689
09/03/2013  16:33:00     -218.794     -240.715       15.922      195.288      133.110       87.130    38137.329    17718.267     7591.659        8.474        3.172      325.291      100.805        0.096      349.194       29.439      859.702
09/03/2013  16:34:00     -295.562     -247.868        3.611      206.584      151.931       82.125    42676.926    23082.905     6744.548       11.064        3.625      385.740       91.950        0.057      349.176       29.408      859.693
09/03/2013  16:35:00     -391.615     -239.709       -7.011      218.171      156.249       83.846    47598.781    24413.715     7030.187       14.494        3.952      459.154       89.565        0.038      349.054       29.198      859.682
09/03/2013  16:36:00     -311.621     -210.612        3.542      170.972      153.035       82.276    29231.435    23419.746     6769.390       10.044        2.971      376.119       92.362        0.060      349.119       29.310      859.685
09/03/2013  16:37:00     -294.176     -383.789      -39.625      132.075      201.239       79.441    17443.701    40496.937     6310.949       14.981        3.213      483.564       84.619        0.031      349.109       29.290      859.684
09/03/2013  16:38:00     -234.646     -273.596       -1.093      183.075      179.702       81.703    33516.410    32292.946     6675.369       10.119        3.624      360.435       90.040        0.062      349.277       29.584      859.673
09/03/2013  16:39:00     -315.826     -278.199      -12.235      140.222      148.256       83.137    19662.081    21979.740     6911.830       11.291        2.428      420.881       60.918        0.021      349.280       29.587      859.698
09/03/2013  16:40:00     -214.459     -141.481       18.636      164.852      136.677       82.443    27176.186    18680.593     6796.893        5.949        2.633      256.923       74.876        0.085      349.292       29.609      859.667
09/03/2013  16:41:00     -128.807     -216.095       27.851      175.823      184.551       77.640    30913.825    34059.009     6028.022        6.752        3.550      251.571       91.332        0.132      349.307       29.635      859.701
09/03/2013  16:42:00     -287.663     -147.847       -3.486      151.198      131.225       70.560    22860.869    17219.992     4978.754        7.483        2.253      323.433       82.717        0.065      349.148       29.359      859.695
09/03/2013  16:43:00     -140.836     -218.990        1.700      138.817      128.458       60.285    19270.029    16501.424     3634.269        5.359        1.970      260.368       58.320        0.050      349.149       29.360      859.725
09/03/2013  16:44:00     -264.807     -283.416        4.679      157.903      133.923       80.194    24933.216    17935.481     6431.063        9.987        2.465      387.875       87.659        0.051      349.052       29.194      859.699
09/03/2013  16:45:00     -288.824     -227.950       -3.768      153.761      113.164       80.349    23642.557    12806.092     6455.905        8.914        2.145      367.940       82.150        0.050      349.043       29.177      859.705
09/03/2013  16:46:00     -264.113     -199.019       -0.595      166.191      103.160       75.181    27619.587    10641.967     5652.172        7.663        2.196      330.703       89.463        0.073      349.061       29.209      859.711
09/03/2013  16:47:00     -174.118     -140.856        7.448      191.589      113.512       66.138    36706.299    12885.047     4374.204        5.208        2.698      223.958       90.079        0.162      349.197       29.447      859.710
09/03/2013  16:48:00     -230.034     -171.221      -11.180      172.400      129.610       87.440    29721.674    16798.775     7645.729        6.825        2.708      286.762       90.495        0.100      349.279       29.588      859.722
09/03/2013  16:49:00     -175.460     -143.061       26.197      191.918      117.797       82.003    36832.597    13876.040     6724.489        5.467        2.872      226.391       89.597        0.157      349.259       29.553      859.716
09/03/2013  16:50:00     -277.916     -160.834       -9.454      149.428       94.804       58.568    22328.798     8987.805     3430.152        6.896        1.737      321.100       63.932        0.040      349.024       29.146      859.714
09/03/2013  16:51:00     -284.204     -222.919      -17.014      140.497      159.417       61.589    19739.532    25413.919     3793.164        8.984        2.447      361.199       64.020        0.031      349.153       29.369      859.723
09/03/2013  16:52:00     -427.052     -237.332      -24.526      181.054      175.502       85.343    32780.686    30800.957     7283.376       15.507        3.543      488.569       79.035        0.026      349.148       29.359      859.745
09/03/2013  16:53:00     -403.837     -354.480      -19.203      222.902      187.907       99.360    49685.224    35308.895     9872.500       19.197        4.743      537.346      120.671        0.050      348.950       29.016      859.748
09/03/2013  16:54:00     -349.852     -123.380       -7.617      145.343      146.608       77.026    21124.502    21493.968     5933.017        9.310        2.428      370.971       74.669        0.041      349.057       29.201      859.764
09/03/2013  16:55:00     -294.081     -133.745      -13.927      148.519      125.528       65.191    22057.836    15757.325     4249.814        7.331        2.103      323.065       60.932        0.036      349.040       29.170      859.779
09/03/2013  16:56:00     -258.205     -199.595       11.452      170.276      147.925       81.895    28993.894    21881.778     6706.838        8.210        2.879      326.355       93.459        0.082      349.160       29.380      859.780
09/03/2013  16:57:00     -213.283     -204.058        5.296      185.274      183.230       95.171    34326.271    33573.164     9057.438        8.204        3.848      295.177      108.865        0.136      349.067       29.220      859.771
09/03/2013  16:58:00     -310.639     -328.484       16.746      216.791      146.033       99.367    46998.433    21325.594     9873.835       14.142        3.910      452.105      110.328        0.060      348.912       28.952      859.749
09/03/2013  16:59:00     -304.407     -183.149        3.702      140.724      112.940       70.672    19803.301    12755.456     4994.465        8.188        1.878      355.257       72.605        0.042      349.132       29.330      859.770
09/03/2013  17:00:00     -261.825     -201.427       -4.618      163.525      109.747       77.032    26740.381    12044.341     5933.999        7.692        2.236      330.341       88.652        0.072      349.100       29.277      859.802
09/03/2013  17:01:00     -291.870     -113.464       -0.328      182.164      131.148       72.553    33183.731    17199.848     5264.010        7.684        2.782      313.149       88.559        0.080      349.188       29.429      859.800
09/03/2013  17:02:00     -189.366      -78.811       11.167      134.454      124.492       56.641    18077.889    15498.196     3208.183        3.948        1.839      205.111       62.304        0.092      349.263       29.560      859.828
09/03/2013  17:03:00     -377.173     -250.877      -31.844      223.163      189.326       91.424    49801.896    35844.487     8358.322       15.009        4.700      452.988       86.088        0.036      349.096       29.271      859.837
09/03/2013  17:04:00     -337.927     -258.744       -7.796      210.387      144.569       94.570    44262.642    20900.061     8943.512       12.764        3.705      425.609      108.039        0.064      348.977       29.065      859.826
09/03/2013  17:05:00     -353.197     -219.437      -14.476      222.995      150.797       94.765    49726.759    22739.621     8980.446       12.726        4.072      415.813       96.545        0.054      348.954       29.023      859.860
09/03/2013  17:06:00     -384.178     -120.811       -3.108      220.406      151.897       87.381    48578.841    23072.648     7635.421       12.073        3.964      402.725      106.969        0.071      349.004       29.110      859.876
09/03/2013  17:07:00     -356.863     -220.881      -16.679      153.379      126.236       82.022    23525.193    15935.602     6727.570       11.129        2.309      419.690       80.459        0.037      348.933       28.986      859.881
09/03/2013  17:08:00     -191.721     -160.421       13.962      141.807      121.671       72.153    20109.130    14803.886     5205.995        5.139        2.006      249.984       80.772        0.104      348.991       29.088      859.874
09/03/2013  17:09:00     -297.795     -136.329       -7.226      253.597      149.655       86.187    64311.532    22396.574     7428.276       10.071        4.707      327.517      120.286        0.135      348.963       29.040      859.843
09/03/2013  17:10:00     -217.834      -65.504        5.884      190.357      114.064       67.177    36235.715    13010.556     4512.753        5.276        2.688      227.470       90.566        0.159      349.128       29.326      859.874
09/03/2013  17:11:00     -205.022     -153.598       -2.976      158.168      138.882       77.052    25017.180    19288.233     5937.008        5.793        2.512      256.177       76.563        0.089      349.158       29.377      859.876
09/03/2013  17:12:00     -350.465     -125.688      -17.835      244.725      152.596       84.584    59890.342    23285.559     7154.472       11.462        4.517      372.321      108.795        0.085      349.048       29.186      859.892
09/03/2013  17:13:00     -324.737      -82.743      -21.503      204.891      150.205       87.645    41980.424    22561.466     7681.624        9.248        3.611      335.113      100.918        0.091      349.039       29.172      859.886
09/03/2013  17:14:00     -426.341     -235.241       -5.601      183.609      136.645       77.933    33712.274    18671.911     6073.567       14.779        2.923      486.934       84.306        0.030      348.818       28.787      859.888
09/03/2013  17:15:00     -217.979     -169.180        5.463      152.605      170.128       78.384    23288.226    28943.482     6144.006        6.726        2.919      275.929       78.563        0.081      348.939       28.999      859.882
09/03/2013  17:16:00     -340.590     -154.613       -9.329      166.459      121.693       67.952    27708.621    14809.263     4617.527        9.356        2.357      374.042       68.409        0.033      348.969       29.049      859.890
09/03/2013  17:17:00     -192.069     -114.274       21.225      198.175      156.046       82.858    39273.385    24350.319     6865.372        6.043        3.524      223.493      118.624        0.282      349.045       29.181      859.897
09/03/2013  17:18:00     -296.857     -163.548       -8.411      186.601      125.817       90.161    34819.988    15830.033     8129.060        8.685        2.939      338.928       95.720        0.080      348.957       29.029      859.891
09/03/2013  17:19:00     -343.451      -91.484      -28.633      117.524      130.709       55.927    13811.928    17084.770     3127.874        8.058        1.701      355.426       51.845        0.021      349.033       29.160      859.918
09/03/2013  17:20:00     -258.613      -40.954       -5.549      183.869      136.285       73.506    33807.630    18573.625     5403.123        6.318        2.889      261.836       87.728        0.112      349.050       29.191      859.906
09/03/2013  17:21:00     -626.013     -141.104      -22.232      202.944      163.062       90.546    41186.069    26589.275     8198.538       24.412        3.799      641.719      105.232        0.027      348.888       28.911      859.885
09/03/2013  17:22:00     -444.594     -198.030      -26.092      223.038      149.911       95.664    49745.894    22473.208     9151.623       15.945        4.069      486.702      104.757        0.046      348.838       28.823      859.923
09/03/2013  17:23:00     -330.212     -141.592       -3.348      200.974      162.476       84.774    40390.657    26398.289     7186.617       10.152        3.699      359.288       95.790        0.071      348.915       28.955      859.926
09/03/2013  17:24:00     -236.967     -223.765      -14.406      158.603      144.735       65.460    25154.953    20948.211     4284.980        7.840        2.519      325.920       70.165        0.046      348.862       28.864      859.917
09/03/2013  17:25:00     -171.337     -110.035       12.511      156.678      130.618       70.450    24547.923    17061.048     4963.210        4.409        2.329      203.628       92.119        0.205      348.980       29.071      859.929
09/03/2013  17:26:00     -230.461     -123.483        9.195      203.479      159.142       92.572    41403.650    25326.189     8569.666        7.186        3.765      261.458      121.097        0.215      348.906       28.939      859.911
09/03/2013  17:27:00     -306.900     -100.599        2.763      161.827      179.249       81.616    26188.086    32130.340     6661.162        8.463        3.249      322.967       84.343        0.068      348.862       28.866      859.923
09/03/2013  17:28:00     -404.594     -149.811      -11.781      239.998      171.992       91.699    57598.881    29581.360     8408.759       14.091        4.779      431.439      106.069        0.060      348.845       28.835      859.893
09/03/2013  17:29:00     -381.084     -223.218      -11.078      233.065      160.387       74.436    54319.117    25724.127     5540.659       14.036        4.279      441.646       89.645        0.041      348.873       28.884      859.916
09/03/2013  17:30:00     -469.794     -108.638       -5.799      219.530      194.215      106.582    48193.314    37719.572    11359.828       16.489        4.864      482.192      125.238        0.067      348.822       28.796      859.921
09/03/2013  17:31:00     -472.046      -91.976      -26.941      210.103      152.167       84.163    44143.331    23154.665     7083.404       15.318        3.719      480.924       93.479        0.038      348.859       28.858      859.931
09/03/2013  17:32:00     -387.715     -217.798      -20.239      213.122      162.785       91.916    45420.841    26499.060     8448.490       13.925        4.018      444.701       94.926        0.046      348.842       28.829      859.938
09/03/2013  17:33:00     -542.240     -216.269      -31.660      170.301      160.136       80.934    29002.291    25643.426     6550.262       20.148        3.060      583.778       66.061        0.013      348.731       28.636      859.942
09/03/2013  17:34:00     -378.139     -196.808        4.003      239.176      197.624       77.791    57205.397    39055.064     6051.398       14.200        5.116      426.290       86.524        0.041      348.766       28.697      859.936
09/03/2013  17:35:00     -324.641     -140.744      -12.154      151.794      135.494       84.503    23041.321    18358.606     7140.705        8.693        2.427      353.837       93.549        0.070      348.772       28.708      859.947
09/03/2013  17:36:00     -516.659     -292.929      -30.821      215.687      200.365      110.813    46521.018    40146.271    12279.430       22.630        4.947      593.923      113.917        0.037      348.682       28.553      859.931
09/03/2013  17:37:00     -607.143     -248.854      -38.655      192.895      198.117       89.004    37208.583    39250.534     7921.771       25.820        4.219      656.164       87.335        0.018      348.592       28.396      859.919
09/03/2013  17:38:00     -445.023     -105.771       -9.493      255.768      156.014       84.355    65417.040    24340.380     7115.826       15.308        4.844      457.420       98.416        0.046      348.632       28.466      859.930
09/03/2013  17:39:00     -325.633      -91.421      -27.219      231.054      186.632       87.060    53385.798    34831.578     7579.406       10.545        4.790      338.223       81.784        0.058      348.708       28.598      859.899
09/03/2013  17:40:00     -372.432      -42.556      -22.295      167.031      230.333       91.801    27899.352    53053.409     8427.359       11.518        4.469      374.856       86.589        0.053      348.721       28.620      859.905
09/03/2013  17:41:00     -513.605     -118.537      -36.226      198.495      133.967       92.317    39400.250    17947.258     8522.446       17.250        3.293      527.107      101.504        0.037      348.688       28.564      859.912
09/03/2013  17:42:00     -536.236     -156.574      -16.190      207.826      169.170       96.214    43191.770    28618.551     9257.181       19.668        4.053      558.628      106.294        0.036      348.628       28.459      859.899
09/03/2013  17:43:00     -434.803     -191.443        1.672      308.056      215.986       97.406    94898.678    46649.969     9487.872       18.834        7.552      475.083      133.547        0.079      348.543       28.314      859.905
09/03/2013  17:44:00     -335.856      -60.180       -7.237      184.539      119.515       76.675    34054.573    14283.920     5879.051        8.533        2.711      341.205       72.420        0.045      348.695       28.575      859.909
09/03/2013  17:45:00     -374.559     -111.081       -0.688      188.985      100.871       74.828    35715.385    10174.878     5599.260       10.205        2.574      390.683       90.361        0.053      348.660       28.515      859.949
09/03/2013  17:46:00     -356.308      -79.332       -7.647      178.171      167.438       80.736    31744.741    28035.491     6518.284        9.979        3.315      365.033       94.418        0.067      348.720       28.618      859.940
09/03/2013  17:47:00     -388.395     -221.881      -12.767      232.989      196.181       92.116    54283.874    38487.013     8485.421       15.073        5.063      447.305      100.812        0.051      348.632       28.466      859.929
09/03/2013  17:48:00     -503.841      -85.618       -4.660      198.913      134.446       80.964    39566.338    18075.800     6555.144       16.269        3.210      511.064       91.280        0.032      348.634       28.470      859.939
09/03/2013  17:49:00     -531.752      -80.299      -29.548      198.060      126.463       83.774    39227.812    15992.845     7018.070       17.615        3.112      537.781       84.860        0.025      348.572       28.361      859.929
09/03/2013  17:50:00     -438.626     -110.267      -26.795      206.131      196.802       73.419    42489.848    38730.880     5390.307       14.592        4.331      452.274       82.813        0.034      348.585       28.385      859.934
09/03/2013  17:51:00     -294.454        8.010        2.185      197.964      102.755       68.092    39189.821    10558.618     4636.495        7.057        2.719      294.563       79.699        0.073      348.711       28.605      859.927
09/03/2013  17:52:00     -229.673      -52.465       12.111      160.088      139.696       82.367    25628.097    19515.041     6784.284        5.378        2.596      235.590       89.219        0.143      348.718       28.616      859.946
09/03/2013  17:53:00     -262.746     -121.928       -0.273      222.944      126.943       62.570    49703.933    16114.510     3914.958        7.680        3.487      289.659       75.427        0.068      348.725       28.629      859.967
09/03/2013  17:54:00     -379.636     -253.879      -20.270      266.345      184.808      104.974    70939.769    34153.991    11019.599       16.253        5.806      456.703      109.108        0.057      348.518       28.269      859.922
09/03/2013  17:55:00     -397.957     -102.241      -20.517      162.320      130.901       84.073    26347.935    17135.060     7068.294       10.989        2.528      410.880       87.129        0.045      348.533       28.295      859.929
09/03/2013  17:56:00     -483.242     -105.194       -9.085      232.462      164.641       97.919    54038.785    27106.517     9588.211       16.768        4.537      494.559      107.029        0.047      348.527       28.284      859.933
09/03/2013  17:57:00     -266.412     -119.440       17.208      225.802      185.974      101.899    50986.657    34586.502    10383.375        9.073        4.798      291.961       95.880        0.108      348.590       28.394      859.939
09/03/2013  17:58:00     -322.355      -67.132       14.694      247.371      142.441       87.689    61192.507    20289.338     7689.358        9.889        4.459      329.271      107.827        0.107      348.570       28.359      859.921
09/03/2013  17:59:00     -217.994      -82.744      -10.600      154.379      134.848       63.948    23832.991    18183.907     4089.324        5.028        2.305      233.169       65.387        0.079      348.601       28.413      859.929
09/03/2013  18:00:00     -486.648     -150.516      -10.514      220.695      168.620       84.511    48706.279    28432.838     7142.163       17.192        4.214      509.393       91.292        0.032      348.595       28.401      859.890
09/03/2013  18:01:00     -360.896      -64.552      -12.564      172.626      157.410       70.267    29799.903    24777.870     4937.429        9.703        2.976      366.624       80.764        0.049      348.602       28.414      859.937
09/03/2013  18:02:00     -422.090      -50.739       -6.463      225.013      157.801       98.074    50630.854    24901.076     9618.434       13.295        4.258      425.129      117.594        0.077      348.565       28.350      859.922
09/03/2013  18:03:00     -315.643      -38.823       -5.856      171.723      164.179       69.986    29488.811    26954.747     4898.089        8.124        3.067      318.022       77.447        0.059      348.623       28.452      859.926
09/03/2013  18:04:00     -449.581      -70.869      -10.118      193.720      154.468       84.199    37527.457    23860.244     7089.489       13.785        3.424      455.132       92.795        0.042      348.553       28.331      859.918
09/03/2013  18:05:00     -455.743     -103.175       -0.254      197.340      151.223       85.435    38943.157    22868.412     7299.068       14.371        3.456      467.276       93.449        0.040      348.485       28.212      859.900
09/03/2013  18:06:00     -320.549     -162.713      -14.300      163.724      165.236       78.526    26805.709    27302.815     6166.278        9.484        3.014      359.482       64.690        0.032      348.460       28.168      859.900
09/03/2013  18:07:00     -316.050     -121.749      -32.973      131.401      113.047       55.199    17266.302    12779.674     3046.876        7.444        1.655      338.689       40.534        0.014      348.543       28.312      859.914
09/03/2013  18:08:00     -366.535      -58.490      -18.318      155.840      146.399       75.928    24286.114    21432.740     5765.004        9.478        2.574      371.172       75.558        0.041      348.467       28.180      859.938
09/03/2013  18:09:00     -196.240       -8.661        9.627      134.751      122.430       73.251    18157.853    14989.120     5365.684        3.859        1.926      196.431       77.792        0.157      348.518       28.268      859.943
09/03/2013  18:10:00     -192.075      -98.649       22.802      189.388      140.990       72.570    35867.844    19878.110     5266.399        5.407        3.051      215.926       92.361        0.183      348.478       28.201      859.945
09/03/2013  18:11:00      -86.916      -58.181       21.196      131.877      112.935       65.574    17391.531    12754.245     4299.983        2.291        1.722      104.592       57.698        0.304      348.474       28.197      859.954
09/03/2013  18:12:00     -228.404      -46.465       -1.632      198.006      140.060       60.960    39206.242    19616.837     3716.150        5.842        3.127      233.082       77.653        0.111      348.471       28.187      859.959
09/03/2013  18:13:00     -481.181     -124.239      -30.588      173.520      142.431       74.858    30109.325    20286.710     5603.740       15.194        2.800      496.961       80.407        0.026      348.382       28.033      859.942
09/03/2013  18:14:00     -218.019      -97.978       -3.254      136.093       93.388       55.038    18521.175     8721.392     3029.199        4.370        1.514      239.023       51.020        0.046      348.464       28.175      859.948
09/03/2013  18:15:00     -193.612      -77.123       21.014      159.370       98.232       64.462    25398.747     9649.439     4155.373        4.153        1.960      208.407       82.395        0.156      348.450       28.153      859.961
09/03/2013  18:16:00      -98.305      -99.203        1.132      126.455       94.286       64.897    15990.901     8889.756     4211.593        2.429        1.455      139.660       59.175        0.180      348.445       28.144      859.958
09/03/2013  18:17:00     -208.710     -137.656        5.134      171.421      141.474       71.210    29385.027    20014.772     5070.845        5.849        2.724      250.018       87.415        0.122      348.427       28.111      859.974
09/03/2013  18:18:00     -360.982     -179.515       -2.859      208.369      179.343       81.681    43417.702    32163.752     6671.745       12.238        4.113      403.155       99.596        0.061      348.340       27.961      859.969
09/03/2013  18:19:00     -296.399      -93.593       12.289      170.563      101.202       62.251    29091.741    10241.804     3875.125        6.998        2.160      310.825       67.956        0.048      348.422       28.103      859.945
09/03/2013  18:20:00     -231.781      -75.585        0.374      101.140       99.322       52.624    10229.392     9864.872     2769.332        4.115        1.143      243.794       52.652        0.047      348.416       28.093      859.959
09/03/2013  18:21:00     -315.146     -133.814       16.640      185.037      134.459       68.426    34238.824    18079.212     4682.174        8.724        2.850      342.379       73.677        0.046      348.341       27.964      859.947
09/03/2013  18:22:00     -246.740      -93.488       -9.008      114.988      107.750       58.493    13222.235    11610.004     3421.413        4.897        1.413      263.857       37.250        0.020      348.338       27.955      859.932
09/03/2013  18:23:00     -367.495       -9.029      -28.242      148.169      128.091       76.075    21954.113    16407.193     5787.410        9.003        2.207      367.606       77.607        0.045      348.294       27.880      859.928
09/03/2013  18:24:00     -269.672      -28.225      -21.443      136.638      121.960       63.720    18669.947    14874.218     4060.182        5.578        1.880      271.145       67.061        0.061      348.362       28.001      859.948
09/03/2013  18:25:00     -164.701       22.963       -2.975       77.919       64.487       46.617     6071.439     4158.622     2173.141        2.003        0.620      166.294       37.360        0.050      348.361       28.000      859.954
09/03/2013  18:26:00     -198.624      -90.433       -6.452      131.771       84.511       42.287    17363.675     7142.163     1788.221        3.698        1.315      218.242       55.229        0.064      348.350       27.978      859.930
09/03/2013  18:27:00     -168.459      -26.240       12.166      125.871      127.476       66.177    15843.565    16250.161     4379.354        3.284        1.824      170.490       66.287        0.151      348.378       28.030      859.944
09/03/2013  18:28:00     -235.640      -55.328       -3.949      200.041      105.760       68.918    40016.373    11185.182     4749.637        5.727        2.798      242.048       93.438        0.149      348.309       27.909      859.887
09/03/2013  18:29:00     -345.946     -109.513        8.097      238.649      158.501       83.239    56953.180    25122.573     6928.727       11.035        4.450      362.866      113.599        0.098      348.221       27.756      859.891
09/03/2013  18:30:00     -260.920      -40.958       -5.576      101.117      120.090       54.970    10224.715    14421.551     3021.731        4.872        1.383      264.115       45.602        0.030      348.289       27.872      859.900
09/03/2013  18:31:00     -287.390      -80.602       -2.866      168.334      101.595       66.454    28336.413    10321.630     4416.103        6.608        2.154      298.479       80.453        0.073      348.286       27.866      859.900
09/03/2013  18:32:00     -214.687      -84.477       28.445      163.797      115.134       69.796    26829.526    13255.906     4871.550        4.949        2.248      230.710       82.936        0.129      348.251       27.808      859.880
09/03/2013  18:33:00     -487.961      -84.274      -17.096      202.889      121.927       75.137    41163.934    14866.137     5645.559       15.358        3.084      495.185       85.109        0.030      348.138       27.612      859.870
09/03/2013  18:34:00     -248.063      -11.940        6.249      177.111       94.390       59.082    31368.369     8909.416     3490.631        5.273        2.188      248.350       69.586        0.079      348.175       27.676      859.867
09/03/2013  18:35:00     -208.099       -0.481      -18.399      106.463       69.517       54.278    11334.269     4832.668     2946.106        3.137        0.956      208.100       46.128        0.049      348.219       27.752      859.866
09/03/2013  18:36:00     -358.880      -55.207      -21.472      168.508      114.511       57.403    28394.896    13112.675     3295.141        8.854        2.240      363.101       42.153        0.013      348.156       27.644      859.852
09/03/2013  18:37:00     -293.946     -120.698       -3.857      148.358      145.169       64.973    22010.153    21074.110     4221.464        7.414        2.365      317.762       69.349        0.048      348.155       27.643      859.836
09/03/2013  18:38:00     -305.060      -23.213       -1.316      118.075      107.034       61.493    13941.667    11456.185     3781.338        6.138        1.459      305.941       58.083        0.036      348.134       27.605      859.867
09/03/2013  18:39:00     -267.270      -82.756      -16.853      146.192      121.435       56.781    21372.232    14746.421     3224.065        5.895        1.967      279.789       47.521        0.029      348.156       27.644      859.880
09/03/2013  18:40:00     -273.459       -4.834       -9.665      147.797      115.221       57.364    21843.988    13275.952     3290.639        5.665        1.921      273.502       71.160        0.068      348.106       27.556      859.889
09/03/2013  18:41:00     -402.077      -30.140      -23.748      173.349      136.791       73.530    30049.969    18711.833     5406.591       10.864        2.708      403.205       85.170        0.045      348.079       27.511      859.891
09/03/2013  18:42:00     -277.752     -146.093       -5.767      135.485      110.313       61.491    18356.096    12169.019     3781.175        6.641        1.715      313.830       68.780        0.048      348.079       27.510      859.885
09/03/2013  18:43:00     -279.221     -114.080       -5.935      115.092       86.773       44.782    13246.232     7529.476     2005.468        5.689        1.139      301.627       36.443        0.015      348.093       27.534      859.914
09/03/2013  18:44:00     -220.708      -51.913       -4.489      126.136       86.900       51.727    15910.168     7551.663     2675.684        3.878        1.307      226.732       53.945        0.057      348.072       27.498      859.908
09/03/2013  18:45:00     -177.874      -57.848       -5.490      107.616      105.630       57.717    11581.252    11157.640     3331.234        3.054        1.304      187.044       52.462        0.079      348.099       27.545      859.911
09/03/2013  18:46:00     -330.332      -47.981      -14.864      170.676      117.236       69.565    29130.201    13744.337     4839.292        7.967        2.386      333.798       82.674        0.061      348.069       27.493      859.899
09/03/2013  18:47:00     -338.632     -123.681       -5.412      145.948      115.576       63.890    21300.928    13357.885     4081.950        8.436        1.937      360.512       58.684        0.026      347.997       27.368      859.903
09/03/2013  18:48:00     -363.822       13.644      -17.609      158.426      139.780       66.981    25098.952    19538.485     4486.487        9.098        2.456      364.078       57.721        0.025      348.021       27.410      859.900
09/03/2013  18:49:00     -266.495     -157.556      -21.598      194.129      122.533       89.963    37686.168    15014.348     8093.403        7.854        3.040      309.586      101.630        0.108      347.974       27.330      859.921
09/03/2013  18:50:00     -162.875     -112.302        5.331      146.720      132.635       65.519    21526.893    17591.931     4292.765        4.128        2.171      197.839       74.486        0.142      347.997       27.372      859.933
09/03/2013  18:51:00     -125.222      -49.139        9.716      147.085      105.095       53.838    21633.936    11045.026     2898.569        2.688        1.779      134.518       77.514        0.332      347.986       27.351      859.939
09/03/2013  18:52:00     -221.463      -94.757        8.722      138.004      129.177       72.019    19044.975    16686.610     5186.719        4.950        2.046      240.883       73.891        0.094      347.979       27.337      859.918
09/03/2013  18:53:00     -170.438      -57.303       -2.804       84.290       84.006       42.673     7104.848     7056.946     1820.964        2.416        0.799      179.813       32.853        0.033      347.992       27.362      859.934
09/03/2013  18:54:00     -184.243      -69.400       10.406      119.961      121.374       64.941    14390.607    14731.739     4217.329        3.610        1.667      196.881       64.614        0.108      347.992       27.362      859.959
09/03/2013  18:55:00     -298.343      -47.883      -13.282      146.548      127.729       58.115    21476.317    16314.667     3377.345        6.631        2.058      302.161       66.484        0.048      347.905       27.210      859.958
09/03/2013  18:56:00     -255.869     -154.255       -0.141      153.088      117.646       69.531    23435.905    13840.500     4834.586        6.568        2.106      298.770       72.523        0.059      347.916       27.229      859.948
09/03/2013  18:57:00     -194.001      -87.050        5.811      106.257       85.652       51.478    11290.510     7336.316     2649.942        3.326        1.064      212.636       54.878        0.067      347.923       27.240      859.953
09/03/2013  18:58:00     -149.000       12.580        1.216       99.804       89.015       49.813     9960.759     7923.688     2481.300        2.136        1.018      149.530       52.001        0.121      347.846       27.110      859.958
09/03/2013  18:59:00     -237.039      -50.293       -2.304      164.295      138.152       64.768    26992.765    19086.066     4194.883        5.449        2.514      242.316       59.797        0.061      347.854       27.122      859.954
09/03/2013  19:00:00     -333.190      -43.814      -18.645      107.429       89.569       53.927    11540.934     8022.589     2908.102        6.787        1.124      336.058       54.528        0.026      347.852       27.117      859.971
09/03/2013  19:01:00     -170.166      -59.366      -16.535       70.480       64.448       36.054     4967.489     4153.561     1299.876        2.159        0.521      180.225       29.695        0.027      347.876       27.160      859.999
09/03/2013  19:02:00     -193.984     -115.893        4.917      149.048      123.546       70.901    22215.320    15263.692     5026.962        4.679        2.125      225.967       74.067        0.107      347.851       27.116      860.002
09/03/2013  19:03:00     -257.087      -19.575      -15.431      132.156      107.524       62.577    17465.082    11561.402     3915.901        4.982        1.647      257.831       69.085        0.072      347.784       27.002      860.001
09/03/2013  19:04:00     -386.590      -62.860      -10.703      157.306      114.787       72.734    24745.225    13176.046     5290.289        9.836        2.161      391.667       81.774        0.044      347.747       26.937      859.980
09/03/2013  19:05:00     -279.913      -58.917      -11.337      191.558      134.725       78.858    36694.506    18150.710     6218.517        7.149        3.053      286.046       87.846        0.094      347.769       26.975      859.985
09/03/2013  19:06:00     -287.981      -85.204      -10.930      125.488      105.708       70.298    15747.296    11174.182     4941.823        6.108        1.593      300.321       60.415        0.040      347.723       26.896      860.007
09/03/2013  19:07:00     -238.459      -57.134        8.332      166.485      123.613       65.961    27717.225    15280.144     4350.862        5.376        2.367      245.208       74.899        0.093      347.708       26.871      860.029
09/03/2013  19:08:00     -328.440      -85.943      -19.495      146.599      114.142       68.472    21491.256    13028.489     4688.442        7.742        1.960      339.498       60.406        0.032      347.708       26.870      860.048
09/03/2013  19:09:00      -99.345      -28.741       17.387       74.385       66.113       47.857     5533.115     4370.968     2290.273        1.159        0.610      103.419       42.552        0.169      347.685       26.832      860.065
09/03/2013  19:10:00     -239.856        5.887      -14.160      102.795       84.115       45.809    10566.789     7075.305     2098.465        3.875        0.987      239.928       43.373        0.033      347.645       26.760      860.078
09/03/2013  19:11:00     -253.513      -43.132       -6.728      115.227      119.209       49.700    13277.187    14210.823     2470.129        4.806        1.498      257.156       54.711        0.045      347.627       26.729      860.088
09/03/2013  19:12:00     -154.282      -87.497        7.848      128.649       98.319       49.320    16550.535     9666.601     2432.447        3.008        1.432      177.366       56.294        0.101      347.579       26.646      860.091
09/03/2013  19:13:00     -254.148      -63.065      -17.734      129.225      112.028       56.421    16699.163    12550.292     3183.352        5.065        1.622      261.855       57.645        0.048      347.621       26.721      860.111
09/03/2013  19:14:00     -338.875      -74.329      -26.157      137.760      146.536       56.383    18977.861    21472.839     3179.022        8.233        2.181      346.931       55.755        0.026      347.651       26.770      860.106
09/03/2013  19:15:00     -227.647     -118.075       -8.734      119.156      112.335       60.148    14198.041    12619.084     3617.724        4.813        1.522      256.447       62.306        0.059      347.604       26.690      860.114
09/03/2013  19:16:00     -261.184     -114.460      -11.803      136.179      112.765       55.160    18544.829    12715.971     3042.665        5.787        1.715      285.163       62.204        0.048      347.610       26.702      860.124
09/03/2013  19:17:00     -347.728      -66.325      -13.323      156.881       91.663       55.804    24611.511     8402.043     3114.110        8.080        1.806      353.996       53.285        0.023      347.608       26.698      860.121
09/03/2013  19:18:00     -389.319     -141.863      -10.575      134.531      108.239       59.637    18098.514    11715.738     3556.598       10.258        1.669      414.360       64.968        0.025      347.586       26.659      860.142
09/03/2013  19:19:00     -237.638      -25.320        7.580      165.134       98.669       71.437    27269.285     9735.513     5103.180        4.963        2.105      238.984       87.726        0.135      347.529       26.562      860.151
09/03/2013  19:20:00     -290.607       -3.466      -11.874      149.239      114.025       77.769    22272.326    13001.685     6048.018        6.296        2.066      290.628       73.740        0.064      347.545       26.588      860.172
09/03/2013  19:21:00     -422.364     -100.189      -11.561      130.140       95.835       57.863    16936.365     9184.289     3348.140       10.901        1.473      434.085       50.766        0.014      347.581       26.651      860.184
09/03/2013  19:22:00     -246.575      -74.223       -0.770      148.612       93.036       67.170    22085.429     8655.697     4511.781        5.077        1.763      257.504       79.450        0.095      347.527       26.557      860.165
09/03/2013  19:23:00     -341.724      -91.483       -7.589      110.577       98.903       51.044    12227.337     9781.725     2605.467        7.490        1.231      353.757       54.457        0.024      347.512       26.531      860.184
09/03/2013  19:24:00     -265.333      -87.935       -6.152      132.169       85.641       46.158    17468.624     7334.423     2130.553        5.255        1.347      279.525       63.452        0.052      347.483       26.482      860.197
09/03/2013  19:25:00     -310.484      -94.674       -0.899      130.292      107.954       66.115    16975.930    11654.118     4371.165        6.918        1.650      324.597       69.195        0.045      347.495       26.502      860.184
09/03/2013  19:26:00     -374.203     -132.500      -12.260      107.609      120.480       60.291    11579.727    14515.458     3635.037        9.373        1.487      396.968       44.158        0.012      347.493       26.498      860.179
09/03/2013  19:27:00     -467.063      -76.282      -35.128      106.676      144.041       52.289    11379.739    20747.683     2734.118       13.002        1.743      473.251       50.384        0.011      347.504       26.517      860.192
09/03/2013  19:28:00     -369.347     -106.135      -13.831      134.731      130.663       63.817    18152.511    17072.847     4072.554        9.358        1.965      384.295       59.503        0.024      347.457       26.435      860.201
09/03/2013  19:29:00     -312.524      -61.505      -17.152      129.471      105.187       55.558    16762.755    11064.241     3086.702        6.632        1.546      318.519       58.916        0.034      347.439       26.406      860.206
09/03/2013  19:30:00     -191.714      -45.427      -11.167      115.612       72.507       51.237    13366.143     5257.293     2625.224        3.009        1.062      197.023       54.702        0.077      347.384       26.311      860.225
09/03/2013  19:31:00     -121.635       11.327       14.010       85.733       88.473       50.124     7350.218     7827.452     2512.425        1.640        0.885      122.161       42.376        0.120      347.385       26.315      860.234
09/03/2013  19:32:00     -294.293      -66.703        4.767      126.004       97.973       59.955    15876.945     9598.712     3594.611        6.007        1.454      301.758       60.544        0.040      347.376       26.298      860.271
09/03/2013  19:33:00     -245.618      -28.540        0.175      118.562      101.359       41.183    14057.026    10273.632     1696.067        4.358        1.301      247.270       39.684        0.026      347.382       26.308      860.283
09/03/2013  19:34:00     -344.358      -34.186      -22.556      128.870       93.852       54.168    16607.444     8808.285     2934.177        7.430        1.417      346.051       64.866        0.035      347.377       26.300      860.292
09/03/2013  19:35:00     -296.364       -8.399      -24.174       91.777       94.066       47.319     8423.072     8848.473     2239.117        5.399        0.976      296.483       38.275        0.017      347.373       26.291      860.300
09/03/2013  19:36:00     -332.551      -73.810      -27.656      134.689       97.358       55.929    18141.019     9478.657     3128.033        7.377        1.537      340.644       54.422        0.026      347.369       26.284      860.309
09/03/2013  19:37:00     -278.660      -98.540      -10.960      113.838      109.338       62.786    12959.137    11954.869     3942.122        5.816        1.443      295.570       59.644        0.041      347.377       26.300      860.326
09/03/2013  19:38:00     -260.012      -55.710      -11.923      111.078       79.208       50.870    12338.419     6273.830     2587.805        4.602        1.060      265.913       43.107        0.026      347.395       26.330      860.333
09/03/2013  19:39:00     -223.023      -46.681      -13.585       66.897       50.583       39.643     4475.223     2558.610     1571.600        3.035        0.430      227.856       34.762        0.023      347.353       26.258      860.334
09/03/2013  19:40:00     -205.915      -25.675      -14.585       55.499       82.810       37.889     3080.114     6857.556     1435.595        2.732        0.569      207.510       31.801        0.023      347.315       26.192      860.354
09/03/2013  19:41:00     -158.265       58.859      -30.271       85.983       68.197       32.275     7392.996     4650.894     1041.660        2.125        0.654      168.856       26.448        0.025      347.296       26.162      860.340
09/03/2013  19:42:00     -266.213      -60.955      -16.813      108.462       83.056       50.757    11764.049     6898.302     2576.240        4.805        1.062      273.102       56.762        0.043      347.268       26.110      860.316
09/03/2013  19:43:00     -270.584      -27.856      -12.779      128.614      107.664       56.010    16541.685    11591.573     3137.164        5.271        1.564      272.014       55.414        0.042      347.282       26.135      860.321
09/03/2013  19:44:00     -271.964      -91.074      -25.480      104.993      109.940       48.797    11023.624    12086.790     2381.104        5.419        1.275      286.808       52.490        0.033      347.256       26.090      860.338
09/03/2013  19:45:00     -231.095        4.281      -12.576      107.635       84.470       47.397    11585.213     7135.195     2246.455        3.727        1.048      231.135       34.054        0.022      347.246       26.072      860.370
09/03/2013  19:46:00     -228.736      -34.713        6.624      103.426      115.015       49.677    10697.020    13228.422     2467.790        3.998        1.320      231.356       46.271        0.040      347.181       25.960      860.378
09/03/2013  19:47:00     -279.052      -47.537      -20.321      106.621       98.184       57.531    11368.007     9640.027     3309.778        5.243        1.216      283.072       56.912        0.040      347.244       26.071      860.374
09/03/2013  19:48:00     -207.845      -40.620       -8.681       82.062      100.757       50.935     6734.161    10152.061     2594.369        3.220        0.974      211.777       41.672        0.039      347.222       26.030      860.379
09/03/2013  19:49:00     -347.134      -86.368      -18.335      168.989      137.264       70.344    28557.349    18841.489     4948.228        9.031        2.617      357.717       68.409        0.037      347.224       26.035      860.396
09/03/2013  19:50:00     -362.503      -95.323      -18.134      161.971      131.941       72.595    26234.759    17408.417     5270.060        9.486        2.446      374.826       75.156        0.040      347.218       26.024      860.385
09/03/2013  19:51:00     -326.326      -66.312      -11.263      155.565      104.097       68.924    24200.597    10836.152     4750.486        7.539        1.989      332.995       70.741        0.045      347.190       25.978      860.387
09/03/2013  19:52:00     -318.992     -104.251      -17.625      120.782      109.670       59.022    14588.396    12027.564     3483.612        7.151        1.505      335.595       56.965        0.029      347.161       25.926      860.385
09/03/2013  19:53:00     -283.116      -64.218       -3.689      151.494      127.989       66.508    22950.529    16381.305     4423.316        6.401        2.188      290.308       75.906        0.068      347.199       25.992      860.386
09/03/2013  19:54:00     -321.695     -144.507        2.200      139.271      112.522       70.408    19396.393    12661.194     4957.262        8.069        1.851      352.661       73.406        0.043      347.174       25.948      860.390
09/03/2013  19:55:00     -460.133      -74.077      -26.362      204.530      129.807       86.258    41832.573    16849.893     7440.513       14.200        3.306      466.057      105.321        0.051      347.181       25.961      860.405
09/03/2013  19:56:00     -396.899     -148.816      -20.955      106.022      103.979       53.009    11240.616    10811.691     2810.001       10.248        1.243      423.881       45.321        0.011      347.212       26.014      860.420
09/03/2013  19:57:00     -159.880        1.669        0.359      107.513       98.448       45.962    11559.055     9691.915     2112.485        2.446        1.168      159.889       37.631        0.055      347.165       25.933      860.419
09/03/2013  19:58:00     -283.851       -9.834      -14.130      168.867       71.072       52.039    28516.024     5051.256     2708.043        5.856        1.814      284.021       67.884        0.057      347.173       25.948      860.430
09/03/2013  19:59:00     -369.630     -115.166       -3.949      186.401      124.926       72.536    34745.277    15606.392     5261.480       10.275        2.781      387.156       87.332        0.051      347.157       25.920      860.431
09/03/2013  20:00:00     -251.014     -142.128       -2.291      155.583      126.571       71.166    24206.209    16020.271     5064.552        6.424        2.265      288.459       70.430        0.060      347.125       25.864      860.420
09/03/2013  20:01:00     -231.446      -48.734      -16.258      149.017       97.258       56.447    22205.988     9459.056     3186.227        4.552        1.743      236.521       57.139        0.058      347.126       25.868      860.422
09/03/2013  20:02:00     -366.893      -37.134      -13.805      195.624      114.091       77.913    38268.711    13016.810     6070.409        9.676        2.868      368.767       92.626        0.063      347.119       25.854      860.407
09/03/2013  20:03:00     -318.231      -60.177       -3.400      183.429      115.840       66.226    33646.306    13418.911     4385.904        7.817        2.573      323.870       79.001        0.060      347.124       25.864      860.439
09/03/2013  20:04:00     -253.648      -50.195      -21.510      121.371       97.648       52.890    14730.864     9535.142     2797.379        4.719        1.353      258.566       49.154        0.036      347.147       25.902      860.439
09/03/2013  20:05:00     -375.207      -15.481      -34.425      117.513      110.536       57.308    13809.231    12218.140     3284.209        8.575        1.466      375.526       34.583        0.008      347.175       25.950      860.455
09/03/2013  20:06:00     -298.941     -146.930      -14.839      163.223      122.329       69.849    26641.841    14964.283     4878.888        7.882        2.324      333.097       65.756        0.039      347.127       25.867      860.439
09/03/2013  20:07:00     -338.328     -113.725      -15.739       86.653       89.660       47.776     7508.804     8038.874     2282.523        7.274        0.892      356.930       41.516        0.014      347.110       25.838      860.478
09/03/2013  20:08:00     -322.926      -98.187      -20.301      112.524       90.979       62.392    12661.569     8277.102     3892.725        6.958        1.242      337.523       55.318        0.027      347.104       25.828      860.491
09/03/2013  20:09:00     -264.480       -8.951       -9.101       96.624       81.171       44.236     9336.182     6588.717     1956.844        4.399        0.894      264.631       45.711        0.030      347.085       25.795      860.538
09/03/2013  20:10:00     -142.636       -0.509        6.592       88.981       80.690       48.527     7917.585     6510.868     2354.906        1.858        0.839      142.637       49.102        0.119      347.074       25.780      860.552
09/03/2013  20:11:00     -312.837       46.509      -16.673      104.359      101.611       49.692    10890.802    10324.771     2469.280        6.199        1.184      316.276       36.004        0.013      347.093       25.807      860.574
09/03/2013  20:12:00     -429.893      -26.415      -27.403      173.791      148.202       80.710    30203.377    21963.769     6514.117       12.246        2.934      430.704       92.304        0.046      347.084       25.795      860.558
09/03/2013  20:13:00     -404.623      -96.080       -7.573      199.777      115.939       82.411    39910.748    13441.820     6791.616       11.656        3.007      415.874       92.083        0.049      347.047       25.730      860.597
09/03/2013  20:14:00     -371.850     -114.608      -14.624      196.861      156.414       79.192    38754.141    24465.386     6271.298       11.054        3.475      389.111       99.649        0.066      347.069       25.767      860.634
09/03/2013  20:15:00     -407.149     -111.965      -23.123      219.083      108.363       69.638    47997.491    11742.461     4849.466       12.170        3.229      422.263       83.733        0.039      347.102       25.824      860.686
09/03/2013  20:16:00     -312.559     -175.130       -9.212      135.837      103.218       55.392    18451.692    10653.943     3068.235        8.030        1.609      358.279       65.257        0.033      347.123       25.860      860.713
09/03/2013  20:17:00     -156.839     -100.769        9.501      125.078       94.273       62.537    15644.508     8887.407     3910.887        3.164        1.422      186.421       59.054        0.100      347.118       25.852      860.714
09/03/2013  20:18:00     -182.423      -33.406        8.023      129.538       88.966       51.326    16780.088     7914.956     2634.314        3.089        1.366      185.456       39.643        0.046      347.092       25.809      860.731
09/03/2013  20:19:00     -265.578      -26.843      -23.572      115.019       85.015       49.789    13229.322     7227.631     2478.921        4.737        1.147      266.931       49.370        0.034      347.074       25.775      860.743
09/03/2013  20:20:00     -169.706      -72.462       13.711       82.884       97.831       49.758     6869.814     9570.856     2475.878        2.657        0.946      184.529       35.042        0.036      347.018       25.683      860.766
09/03/2013  20:21:00     -351.216      -63.784      -33.730      118.901      104.715       55.980    14137.402    10965.219     3133.748        7.839        1.412      356.961       62.667        0.031      347.072       25.772      860.757
09/03/2013  20:22:00     -167.223      -11.052       -6.509      122.505       73.943       44.152    15007.475     5467.517     1949.366        2.527        1.121      167.587       48.256        0.083      347.036       25.713      860.755
09/03/2013  20:23:00     -367.929       -6.072      -35.756      144.815       99.147       52.905    20971.365     9830.143     2798.944        8.514        1.680      367.979       62.981        0.029      347.050       25.736      860.724
09/03/2013  20:24:00     -282.668     -105.773      -21.341      138.140       95.765       67.388    19082.677     9170.957     4541.092        6.216        1.640      301.810       65.070        0.046      347.002       25.651      860.744
09/03/2013  20:25:00     -318.157      -58.929      -22.545      129.772      100.228       56.167    16840.805    10045.598     3154.683        6.762        1.502      323.568       48.453        0.022      347.013       25.672      860.790
09/03/2013  20:26:00     -345.695      -24.075       -7.930      123.120      141.070       54.962    15158.463    19900.613     3020.833        7.911        1.904      346.532       57.817        0.028      347.002       25.652      860.795
09/03/2013  20:27:00     -325.184      -74.340      -11.971      114.272       97.535       61.166    13058.066     9513.105     3741.304        6.886        1.316      333.573       58.715        0.031      346.980       25.614      860.796
09/03/2013  20:28:00     -419.152      -27.156      -22.618      160.012      158.423       62.326    25603.693    25097.954     3884.542       11.575        2.729      420.031       56.634        0.018      346.979       25.613      860.799
09/03/2013  20:29:00     -357.576      -25.241      -14.059      139.628      108.349       56.372    19496.029    11739.562     3177.750        8.155        1.721      358.465       65.607        0.033      346.995       25.642      860.812
09/03/2013  20:30:00     -283.394      -76.752       -7.361      107.437       87.944       53.970    11542.795     7734.073     2912.713        5.422        1.109      293.604       54.991        0.035      346.953       25.571      860.851
09/03/2013  20:31:00     -236.674       -5.040      -16.626       71.892       75.207       37.917     5168.497     5656.068     1437.685        3.429        0.613      236.728       32.345        0.019      346.936       25.536      860.862
09/03/2013  20:32:00     -278.127      -79.809       -9.529      129.414      105.829       59.556    16747.954    11199.700     3546.904        5.765        1.575      289.351       71.415        0.061      346.940       25.546      860.877
09/03/2013  20:33:00     -297.931      -99.381       -7.279      126.344       91.512       60.272    15962.768     8374.455     3632.690        6.333        1.398      314.069       67.978        0.047      346.940       25.544      860.892
09/03/2013  20:34:00     -185.812       10.767       -4.130       99.583       82.815       35.685     9916.700     6858.294     1273.437        2.635        0.902      186.124       42.347        0.052      346.909       25.493      860.912
09/03/2013  20:35:00     -139.904      -57.800      -10.538       87.917       66.399       40.026     7729.377     4408.863     1602.047        1.838        0.687      151.374       46.434        0.094      346.932       25.535      860.918
09/03/2013  20:36:00     -255.575      -27.264      -17.025      113.041       80.424       51.540    12778.313     6468.051     2656.361        4.412        1.095      257.025       56.406        0.048      346.898       25.472      860.948
09/03/2013  20:37:00     -315.082       -9.539      -17.803      116.100       89.406       48.735    13479.268     7993.481     2375.056        6.176        1.192      315.227       50.578        0.026      346.917       25.505      860.971
09/03/2013  20:38:00     -184.327      -22.696      -10.224      125.717       77.176       47.850    15804.660     5956.135     2289.587        2.932        1.203      185.719       54.724        0.087      346.891       25.464      860.974
09/03/2013  20:39:00     -320.149     -101.271      -17.595      118.197       92.382       45.228    13970.425     8534.455     2045.565        6.880        1.228      335.784       40.093        0.014      346.917       25.505      861.013
09/03/2013  20:40:00     -188.619      -91.541        1.772      123.944       91.982       55.538    15362.051     8460.600     3084.420        3.543        1.345      209.659       53.018        0.064      346.880       25.442      861.038
09/03/2013  20:41:00     -331.942      -59.483      -10.557      126.195       99.717       70.366    15925.251     9943.561     4951.368        7.232        1.541      337.230       74.345        0.049      346.927       25.523      861.053
09/03/2013  20:42:00     -326.198       -8.395      -20.666      123.819       88.679       63.443    15331.212     7863.891     4024.967        6.706        1.361      326.306       54.216        0.028      346.916       25.504      861.081
09/03/2013  20:43:00     -297.113      -83.596      -21.500      117.186       80.737       48.578    13732.559     6518.441     2359.787        5.916        1.131      308.650       46.231        0.022      346.922       25.515      861.095
09/03/2013  20:44:00     -332.339        1.281       -3.684      161.054       89.522       62.617    25938.540     8014.229     3920.939        7.416        1.894      332.342       68.422        0.042      346.912       25.498      861.111
09/03/2013  20:45:00     -319.390      -69.236      -20.966      114.905       80.810       48.422    13203.111     6530.307     2344.693        6.466        1.104      326.808       50.652        0.024      346.929       25.526      861.139
09/03/2013  20:46:00     -158.685      -42.056        0.420       84.327       50.779       34.753     7111.038     2578.520     1207.796        1.892        0.545      164.164       37.690        0.053      346.916       25.506      861.133
09/03/2013  20:47:00      -73.294      -16.692       17.089       61.452       44.834       31.259     3776.340     2010.055      977.122        0.635        0.338       75.170       40.543        0.291      346.790       25.291      861.125
09/03/2013  20:48:00      -93.347      -55.693       -6.489       69.272       57.720       29.330     4798.630     3331.631      860.252        1.042        0.450      108.698       25.963        0.057      346.926       25.525      861.131
09/03/2013  20:49:00     -185.287     -116.203       -6.909      100.635       80.153       48.893    10127.380     6424.457     2390.537        3.341        0.947      218.711       50.221        0.053      346.878       25.440      861.133
09/03/2013  20:50:00     -137.131      -45.873       -1.444       78.986       66.312       38.307     6238.792     4397.221     1467.427        1.650        0.605      144.600       35.742        0.061      346.886       25.455      861.131
09/03/2013  20:51:00     -186.111      -78.118      -13.351      103.895       72.796       43.291    10794.071     5299.313     1874.129        2.944        0.898      201.841       51.846        0.066      346.887       25.455      861.120
09/03/2013  20:52:00     -145.209      -44.717       13.749      125.957       72.929       52.750    15865.177     5318.677     2782.588        2.362        1.198      151.938       67.253        0.196      346.878       25.440      861.101
09/03/2013  20:53:00     -222.646      -24.233        0.397      111.593       73.671       50.878    12452.897     5427.357     2588.534        3.531        1.023      223.961       57.126        0.065      346.853       25.394      861.106
09/03/2013  20:54:00     -119.596       -9.868       -6.682       89.995       77.754       65.181     8099.019     6045.664     4248.554        1.642        0.920      120.003       53.237        0.197      346.857       25.406      861.101
09/03/2013  20:55:00     -145.248      -64.234        4.829      103.603       80.253       45.240    10733.585     6440.516     2046.701        2.223        0.961      158.818       25.329        0.025      346.865       25.419      861.083
09/03/2013  20:56:00     -365.395      -52.308      -11.466      179.057      135.119       75.126    32061.487    18257.061     5643.969        9.616        2.798      369.120       81.098        0.048      346.866       25.418      861.075
09/03/2013  20:57:00     -386.566      -77.849      -11.312      161.333      100.350       60.944    26028.232    10070.205     3714.119        9.771        1.991      394.326       61.385        0.024      346.865       25.417      861.077
09/03/2013  20:58:00     -280.612        9.706      -12.106      107.098      100.827       52.965    11470.039    10166.104     2805.286        5.171        1.222      280.780       52.587        0.035      346.847       25.386      861.108
09/03/2013  20:59:00     -340.700      -25.696      -13.430      120.149      117.129       50.738    14435.799    13719.304     2574.364        7.382        1.536      341.667       51.486        0.023      346.824       25.346      861.104
09/03/2013  21:00:00     -397.246      -26.731      -22.128      144.036      106.281       63.986    20746.412    11295.548     4094.206        9.756        1.807      398.144       63.374        0.025      346.852       25.393      861.094
09/03/2013  21:01:00     -305.960      -57.814      -17.807      123.352       84.450       52.008    15215.677     7131.884     2704.844        6.116        1.253      311.375       49.703        0.025      346.842       25.377      861.102
09/03/2013  21:02:00     -279.296      -64.608      -14.171       68.676       70.377       40.980     4716.440     4952.871     1679.394        4.686        0.567      286.671       33.609        0.014      346.870       25.422      861.128
09/03/2013  21:03:00     -176.838      -80.169        3.266       96.969       66.721       45.697     9402.953     4451.642     2088.180        2.682        0.797      194.162       50.316        0.067      346.808       25.321      861.139
09/03/2013  21:04:00      -91.740      -43.997       10.090       75.359       53.160       38.191     5678.914     2825.981     1458.568        1.021        0.498      101.745       41.883        0.169      346.840       25.378      861.169
09/03/2013  21:05:00      -65.068      -51.381        7.698       42.405       70.514       21.724     1798.165     4972.280      471.918        0.709        0.362       82.908       18.824        0.052      346.849       25.392      861.188
09/03/2013  21:06:00     -116.673        2.339       -6.152       51.136       43.880       21.232     2614.856     1925.414      450.814        0.932        0.250      116.696       21.688        0.035      346.814       25.333      861.206
09/03/2013  21:07:00     -120.586      -93.086       -0.834      105.433       65.183       46.146    11116.089     4248.798     2129.486        2.035        0.875      152.335       54.941        0.130      346.785       25.282      861.220
09/03/2013  21:08:00     -172.864       -8.260        0.548       79.297       49.749       37.152     6288.028     2474.990     1380.269        2.004        0.507      173.061       31.019        0.032      346.752       25.224      861.239
09/03/2013  21:09:00     -234.361     -131.963        0.896       89.861       85.461       43.043     8074.971     7303.629     1852.733        4.478        0.862      268.960       42.455        0.025      346.750       25.218      861.267
09/03/2013  21:10:00     -152.317      -85.410        6.266      116.382       66.998       44.398    13544.769     4488.666     1971.225        2.527        1.000      174.629       50.423        0.083      346.727       25.180      861.283
09/03/2013  21:11:00     -213.090      -53.111      -15.360       68.457       64.810       34.013     4686.338     4200.296     1156.869        2.925        0.502      219.609       33.030        0.023      346.754       25.227      861.300
09/03/2013  21:12:00     -272.460      -76.495      -20.385       72.267       73.164       40.832     5222.543     5352.998     1667.237        4.637        0.612      282.994       35.628        0.016      346.721       25.168      861.294
09/03/2013  21:13:00     -227.398       -3.079      -10.704       88.279       87.482       42.116     7793.238     7653.076     1773.791        3.452        0.861      227.419       38.817        0.029      346.683       25.103      861.286
09/03/2013  21:14:00     -255.118      -76.922       -7.745      112.819       63.656       39.771    12728.228     4052.060     1581.752        4.471        0.918      266.462       42.701        0.026      346.719       25.164      861.288
09/03/2013  21:15:00     -149.796       -3.034       -8.365       54.660       48.754       32.841     2987.705     2376.946     1078.548        1.448        0.322      149.827       31.619        0.045      346.694       25.126      861.285
09/03/2013  21:16:00      -81.160       -9.952       -1.746       35.518       55.893       25.729     1261.520     3124.031      661.961        0.587        0.252       81.768       23.051        0.079      346.678       25.096      861.271
09/03/2013  21:17:00     -203.571      -21.050      -10.811       71.813       50.230       39.076     5157.155     2523.027     1526.955        2.560        0.460      204.657       32.248        0.025      346.663       25.071      861.259
09/03/2013  21:18:00     -149.439       -4.402       -6.569       69.074       51.879       37.406     4771.165     2691.424     1399.175        1.563        0.443      149.504       38.676        0.067      346.652       25.052      861.273
09/03/2013  21:19:00     -115.504      -54.061      -11.381       79.994       29.571       24.038     6398.968      874.430      577.813        1.212        0.393      127.529       29.987        0.055      346.725       25.178      861.273
09/03/2013  21:20:00      -68.838      -63.072       -1.999       46.144       53.482       22.650     2129.297     2860.350      513.012        0.711        0.275       93.363       24.235        0.067      346.735       25.197      861.274
09/03/2013  21:21:00      -30.698       -6.470      -17.515       43.709       44.034       22.912     1910.469     1938.979      524.946        0.283        0.219       31.372       18.521        0.349      346.404       24.628      861.272
09/03/2013  21:22:00      -52.335      -67.357        0.595       30.279       55.155       22.933      916.810     3042.112      525.912        0.588        0.224       85.299       21.796        0.065      346.662       25.069      861.272
09/03/2013  21:23:00      -87.856      -64.267       -5.626       52.058       44.119       21.500     2710.010     1946.445      462.249        0.850        0.256      108.853       26.579        0.060      346.704       25.141      861.274
09/03/2013  21:24:00     -134.248      -89.529       -1.352       71.649       50.112       33.694     5133.540     2511.177     1135.281        1.741        0.439      161.363       36.066        0.050      346.698       25.132      861.280
09/03/2013  21:25:00     -148.094      -55.432        2.480       89.334       54.304       30.829     7980.515     2948.974      950.450        1.844        0.594      158.128       42.977        0.074      346.678       25.097      861.281
09/03/2013  21:26:00      -73.968      -21.992       -0.014       74.521       42.601       22.713     5553.447     1814.839      515.890        0.692        0.394       77.168       22.920        0.088      346.694       25.126      861.280
09/03/2013  21:27:00      -83.962      -33.600       -4.500       30.727       46.036       21.337      944.166     2119.321      455.263        0.586        0.176       90.436       17.242        0.036      346.803       25.313      861.277
09/03/2013  21:28:00      -33.310      -21.809       12.825       39.998       26.933       19.935     1599.814      725.395      397.410        0.224        0.136       39.814       24.480        0.378      346.702       25.140      861.277
09/03/2013  21:29:00      -78.945      -12.064        2.158       50.866       33.987       25.360     2587.340     1155.131      643.131        0.538        0.219       79.861       25.930        0.105      346.684       25.108      861.282
09/03/2013  21:30:00      -28.925      -14.371        7.209       28.906       28.363       19.454      835.535      804.441      378.456        0.156        0.101       32.298       15.093        0.218      346.536       24.854      861.303
09/03/2013  21:31:00       34.000      -11.282        8.558       19.392       17.813       21.710      376.068      317.311      471.325        0.126        0.058       35.823       15.315        0.183      345.998       23.928      861.331
09/03/2013  21:32:00       31.488       -6.764       22.512       32.488       24.836       21.961     1055.485      616.821      482.302        0.185        0.108       32.206       17.057        0.281      345.635       23.305      861.359
09/03/2013  21:33:00       13.448       -3.875       17.830       28.379       23.554       16.011      805.345      554.778      256.367        0.106        0.081       13.996       13.440        0.922      345.538       23.140      861.379
09/03/2013  21:34:00       50.486       -3.977       18.794       28.405       27.817       17.933      806.826      773.766      321.590        0.241        0.095       50.642       15.868        0.098      345.515       23.100      861.378
09/03/2013  21:35:00       53.371      -19.771        3.922       31.805       33.312       26.366     1011.540     1109.719      695.161        0.304        0.141       56.916       20.591        0.131      345.399       22.901      861.387
09/03/2013  21:36:00       60.318      -45.224      -10.648       26.396       39.117       24.773      696.735     1530.152      613.724        0.432        0.142       75.389       15.564        0.043      345.385       22.876      861.403
09/03/2013  21:37:00       81.009      -47.128        2.301       27.187       30.082       22.402      739.130      904.948      501.862        0.547        0.107       93.720       14.992        0.026      345.748       23.501      861.417
09/03/2013  21:38:00       46.548       32.639       10.269       19.605       37.315       23.413      384.348     1392.423      548.175        0.283        0.116       56.851       12.430        0.048      345.553       23.168      861.423
09/03/2013  21:39:00       56.357       17.893       22.017       25.271       27.076       23.486      638.636      733.096      551.578        0.295        0.096       59.129       20.705        0.123      345.889       23.741      861.432
09/03/2013  21:40:00       62.564       32.271       28.734       27.866       22.029       23.352      776.511      485.256      545.323        0.379        0.090       70.396       14.682        0.043      346.249       24.362      861.450
09/03/2013  21:41:00       46.028       34.803       29.332       19.429       16.882       17.693      377.488      284.996      313.054        0.258        0.049       57.704        9.593        0.028      346.322       24.485      861.462
09/03/2013  21:42:00       18.083       34.064       37.816       26.988       20.516       27.353      728.358      420.907      748.204        0.241        0.095       38.566       24.894        0.417      346.407       24.632      861.470
09/03/2013  21:43:00       19.543       29.464       36.601       16.224       15.194        9.976      263.232      230.851       99.515        0.159        0.030       35.357        6.709        0.036      346.411       24.638      861.486
09/03/2013  21:44:00       -2.350      -11.562       29.081       11.718       38.089       24.091      137.319     1450.734      580.367        0.158        0.108       11.798       26.873        5.188      346.454       24.715      861.505
09/03/2013  21:45:00        2.577       -4.809       33.368       13.388       25.444       15.920      179.251      647.418      253.454        0.111        0.054        5.457       13.859        6.451      346.529       24.842      861.519
09/03/2013  21:46:00       -8.039      -65.382        0.225       33.234       25.849       19.497     1104.518      668.193      380.149        0.325        0.108       65.875       10.041        0.023      346.491       24.777      861.527
09/03/2013  21:47:00      -52.764      -39.532       -1.103       28.388       17.606       16.236      805.897      309.977      263.595        0.286        0.069       65.931       17.525        0.071      346.261       24.380      861.540
09/03/2013  21:48:00      -40.419      -17.904        9.627       37.766       26.049       17.391     1426.275      678.557      302.431        0.223        0.120       44.207       21.544        0.238      346.343       24.522      861.547
09/03/2013  21:49:00      -52.139      -20.010        1.037       37.379       26.964        9.654     1397.196      727.072       93.194        0.267        0.111       55.847       13.066        0.055      346.356       24.544      861.552
09/03/2013  21:50:00      -85.722      -23.459       -9.009       12.310       12.121       10.092      151.536      146.930      101.852        0.419        0.020       88.874        6.137        0.005      346.374       24.577      861.543
09/03/2013  21:51:00      -36.364      -29.836       -8.994       25.805       10.374        5.799      665.902      107.624       33.634        0.155        0.040       47.037        2.689        0.003      346.490       24.774      861.537
09/03/2013  21:52:00      -10.292      -29.085        2.992       13.628       15.309        9.882      185.714      234.362       97.656        0.074        0.026       30.853        4.319        0.020      346.467       24.734      861.552
09/03/2013  21:53:00      -18.111      -42.341        0.716       30.848       23.795       15.311      951.601      566.223      234.440        0.194        0.088       46.052       15.652        0.116      346.612       24.984      861.580
09/03/2013  21:54:00      -69.233      -77.588       -1.778       46.359       37.254       24.702     2149.167     1387.827      610.212        0.748        0.207      103.986       23.927        0.053      346.541       24.864      861.605
09/03/2013  21:55:00      -64.607      -73.473       -0.227       46.116       53.043       27.618     2126.716     2813.571      762.745        0.764        0.285       97.838       29.989        0.094      346.545       24.869      861.626
09/03/2013  21:56:00      -30.325      -62.408        6.899       29.641       48.755       21.366      878.596     2377.060      456.516        0.429        0.186       69.386       19.108        0.076      346.499       24.791      861.650
09/03/2013  21:57:00      -39.648      -88.967        6.634       34.345       49.091       22.270     1179.601     2409.940      495.940        0.681        0.204       97.402       11.495        0.014      346.577       24.925      861.670
09/03/2013  21:58:00      -31.014      -58.520        2.914       35.108       43.277       21.483     1232.591     1872.900      461.523        0.398        0.178       66.230       17.542        0.070      346.579       24.929      861.681
09/03/2013  21:59:00      -33.381     -125.831        2.381       26.510       51.984       19.090      702.771     2702.324      364.431        1.036        0.188      130.183       19.383        0.022      346.716       25.165      861.678
09/03/2013  22:00:00      -28.672      -16.309      -13.385       39.458       21.542       31.094     1556.916      464.076      966.839        0.213        0.149       32.986       31.755        0.927      346.748       25.217      861.660
09/03/2013  22:01:00      -35.640        9.145        7.504       36.026       16.945       16.362     1297.890      287.132      267.726        0.163        0.093       36.795       13.464        0.134      346.581       24.931      861.644
09/03/2013  22:02:00      -96.888       57.443      -17.779       31.635       32.619       23.650     1000.793     1064.020      559.341        0.781        0.131      112.636       19.348        0.030      346.695       25.128      861.627
09/03/2013  22:03:00      -16.795        0.426        7.967       23.199       13.778        8.411      538.197      189.833       70.752        0.057        0.040       16.801       10.621        0.400      346.707       25.149      861.622
09/03/2013  22:04:00      -68.142       36.300       -2.792       49.050       25.639       24.685     2405.947      657.359      609.367        0.482        0.184       77.207       23.821        0.095      346.633       25.020      861.628
09/03/2013  22:05:00      -58.183       22.079        0.116       23.957       16.676       13.448      573.941      278.097      180.845        0.245        0.052       62.231        5.640        0.008      346.583       24.935      861.640
09/03/2013  22:06:00      -44.757       15.407        0.488       28.759       17.760       14.032      827.079      315.406      196.889        0.179        0.067       47.335       12.656        0.071      346.577       24.926      861.653
09/03/2013  22:07:00      -22.347      -19.029        1.481       33.282       15.709       13.103     1107.662      246.773      171.697        0.119        0.076       29.351       17.061        0.338      346.589       24.944      861.669
09/03/2013  22:08:00       -6.526      -14.506        3.018       15.987       11.661       10.653      255.594      135.974      113.480        0.038        0.025       15.907        7.464        0.220      346.467       24.735      861.687
09/03/2013  22:09:00      -24.338      -30.609       -0.879       29.043       20.956       16.018      843.494      439.138      256.584        0.153        0.077       39.106       10.353        0.070      346.456       24.715      861.701
09/03/2013  22:10:00      -44.631      -62.758       -0.091       32.838       28.803       16.902     1078.334      829.625      285.662        0.406        0.110       77.010       17.825        0.054      346.597       24.957      861.714
09/03/2013  22:11:00      -24.995      -67.810        6.496       38.321       46.401       18.842     1468.494     2153.084      355.028        0.462        0.199       72.270       20.827        0.083      346.643       25.038      861.718
09/03/2013  22:12:00       13.957      -32.415       22.692       21.324       21.947       15.376      454.714      481.686      236.417        0.147        0.059       35.292        9.305        0.070      346.559       24.897      861.715
09/03/2013  22:13:00       -3.792      -95.515        4.600       23.766       27.795       20.117      564.813      772.551      404.685        0.545        0.087       95.590       10.351        0.012      346.512       24.814      861.719
09/03/2013  22:14:00       12.950      -33.614      -11.595       28.498       27.363       26.078      812.164      748.740      680.064        0.184        0.112       36.022       19.897        0.305      346.212       24.297      861.722
09/03/2013  22:15:00       26.655      -26.214        4.833       27.558       32.018       29.811      759.460     1025.125      888.704        0.205        0.134       37.385       17.040        0.208      346.086       24.080      861.731
09/03/2013  22:16:00      -13.188      -73.121       -4.736       24.242       21.391       22.699      587.657      457.569      515.240        0.355        0.078       74.300       14.118        0.036      346.172       24.226      861.743
09/03/2013  22:17:00       -9.825      -72.954       11.896       18.403       28.969       13.015      338.686      839.185      169.391        0.345        0.067       73.613        9.496        0.017      346.487       24.769      861.753
09/03/2013  22:18:00      -26.543      -31.875        9.104       22.140       25.216       14.613      490.177      635.849      213.536        0.157        0.067       41.480        8.051        0.038      346.420       24.653      861.770
09/03/2013  22:19:00       13.670      -40.089        7.284       35.778       39.693       21.184     1280.053     1575.503      448.761        0.258        0.165       42.356       25.619        0.366      346.246       24.356      861.786
09/03/2013  22:20:00      -20.685      -50.079      -12.861       33.529       23.156       10.946     1124.192      536.211      119.825        0.244        0.089       54.183        8.509        0.025      346.336       24.511      861.806
09/03/2013  22:21:00      -34.234      -33.630        1.447       30.753       24.611       20.399      945.732      605.716      416.130        0.214        0.098       47.989       16.421        0.117      346.365       24.561      861.811
09/03/2013  22:22:00      -51.874      -40.899        3.090       31.834       26.721       14.966     1013.417      714.032      223.970        0.316        0.098       66.058       14.628        0.049      346.389       24.602      861.813
09/03/2013  22:23:00      -75.596      -73.551        0.237       37.974       39.563       19.320     1441.990     1565.200      373.253        0.725        0.169      105.473       21.667        0.042      346.377       24.580      861.809
09/03/2013  22:24:00     -111.106      -83.862       -7.906       28.059       36.316       18.630      787.318     1318.817      347.091        1.095        0.123      139.203        8.573        0.004      346.302       24.452      861.803
09/03/2013  22:25:00      -67.264      -69.658        5.150       44.611       29.114       21.275     1990.139      847.600      452.625        0.635        0.165       96.834       18.335        0.036      346.310       24.466      861.795
09/03/2013  22:26:00      -64.678      -57.531        2.563       26.006       16.622       14.987      676.335      276.289      224.625        0.434        0.059       86.563       13.253        0.023      346.351       24.536      861.791
09/03/2013  22:27:00      -73.352      -55.980       -1.752       38.229       24.365       13.861     1461.428      593.669      192.117        0.538        0.112       92.273       11.070        0.014      346.405       24.628      861.797
09/03/2013  22:28:00      -75.669      -28.816        5.035       36.790       20.155       21.213     1353.520      406.213      450.006        0.440        0.110       80.970       17.031        0.044      346.310       24.465      861.806
09/03/2013  22:29:00      -86.593       -0.736       -4.863       27.413       31.586       17.531      751.496      997.686      307.326        0.479        0.103       86.596       16.046        0.034      346.182       24.245      861.814
09/03/2013  22:30:00      -82.126       26.972       -5.044       54.826       22.632       22.510     3005.931      512.193      506.719        0.576        0.201       86.442       23.804        0.076      346.034       23.990      861.823
09/03/2013  22:31:00     -208.172      -49.338      -16.143       42.455       40.386       24.755     1802.436     1631.005      612.808        2.504        0.202      213.939       19.804        0.009      346.031       23.982      861.831
09/03/2013  22:32:00     -171.720      -26.809      -10.441       51.353       44.573       30.820     2637.141     1986.742      949.897        1.794        0.279      173.800       15.625        0.008      346.001       23.934      861.843
09/03/2013  22:33:00     -176.537      -69.464      -10.810       58.520       40.079       24.529     3424.641     1606.343      601.651        2.087        0.282      189.711       21.891        0.013      345.961       23.864      861.860
09/03/2013  22:34:00     -197.876      -50.355      -11.803       39.592       37.038       22.065     1567.512     1371.808      486.879        2.263        0.171      204.182       17.506        0.007      345.942       23.831      861.880
09/03/2013  22:35:00     -137.341      -33.663       -3.900       70.098       46.072       25.064     4913.671     2122.672      628.193        1.384        0.383      141.406       33.658        0.057      345.872       23.714      861.906
09/03/2013  22:36:00     -129.298      -15.705       -4.112       51.972       30.118       25.174     2701.111      907.070      633.755        1.061        0.212      130.248       26.711        0.042      345.873       23.715      861.927
09/03/2013  22:37:00      -92.769      -19.966       -5.051       42.464       46.569       18.487     1803.227     2168.633      341.767        0.667        0.216       94.893       17.495        0.034      345.847       23.671      861.946
09/03/2013  22:38:00      -85.634      -40.981       -1.882       43.860       30.973       16.326     1923.673      959.355      266.524        0.608        0.157       94.935       21.174        0.050      345.844       23.665      861.957
09/03/2013  22:39:00      -38.873      -31.724        5.819       42.456       25.468       25.919     1802.526      648.615      671.796        0.284        0.156       50.175       25.057        0.249      345.910       23.778      861.963
09/03/2013  22:40:00      -68.312      -35.713        1.334       28.194       31.230       25.631      794.877      975.309      656.968        0.418        0.121       77.084       20.113        0.068      345.850       23.675      861.967
09/03/2013  22:41:00      -52.560      -25.596       -6.269       15.283       11.921        8.115      233.574      142.099       65.859        0.195        0.022       58.461        4.834        0.007      345.863       23.697      861.960
09/03/2013  22:42:00      -80.819      -32.853       -5.394       15.617       15.777       10.163      243.905      248.926      103.287        0.412        0.030       87.241        9.127        0.011      345.886       23.738      861.961
09/03/2013  22:43:00       -8.795      -25.596        4.019       29.858       16.747       12.789      891.510      280.464      163.566        0.104        0.067       27.065       12.773        0.223      345.870       23.710      861.969
09/03/2013  22:44:00      -19.746      -33.945        1.905       37.336       22.317       22.970     1393.996      498.065      527.628        0.198        0.121       39.271       18.356        0.218      345.871       23.712      861.973
09/03/2013  22:45:00      -17.137      -13.328       10.096       34.864       23.393       18.116     1215.469      547.235      328.194        0.133        0.105       21.710       21.024        0.938      345.817       23.618      861.974
09/03/2013  22:46:00      -63.034      -55.950        6.505       43.477       31.537       23.414     1890.229      994.558      548.198        0.529        0.172       84.284       24.548        0.085      345.811       23.609      861.971
09/03/2013  22:47:00      -37.074      -36.489        8.373       42.294       36.965       20.990     1788.743     1366.416      440.574        0.319        0.180       52.018       19.197        0.136      345.808       23.602      861.969
09/03/2013  22:48:00      -65.454      -61.567        2.529       48.178       31.317       20.447     2321.119      980.735      418.090        0.590        0.186       89.859       23.246        0.067      345.846       23.668      861.968
09/03/2013  22:49:00     -106.563      -84.769       -6.440       45.348       33.441       26.527     2056.418     1118.285      703.661        1.123        0.194      136.167       21.502        0.025      345.809       23.606      861.976
09/03/2013  22:50:00      -83.334      -84.664       -4.975       48.065       45.315       27.531     2310.213     2053.446      757.962        0.963        0.256      118.796       16.339        0.019      345.775       23.548      861.985
09/03/2013  22:51:00     -108.374      -94.810      -11.210       64.358       42.328       28.312     4141.994     1791.680      801.585        1.380        0.337      143.993       17.943        0.016      345.748       23.499      861.981
09/03/2013  22:52:00      -79.949      -84.432       12.991       64.177       29.715       36.312     4118.738      882.953     1318.527        1.000        0.316      116.278       38.948        0.112      345.715       23.443      861.978
09/03/2013  22:53:00     -104.542      -93.389        4.505       67.275       51.332       32.645     4525.913     2634.988     1065.724        1.395        0.411      140.181       31.349        0.050      345.685       23.390      861.970
09/03/2013  22:54:00     -137.132     -106.092       -8.351       53.755       50.245       32.194     2889.641     2524.567     1036.455        1.829        0.323      173.380       27.929        0.026      345.577       23.204      861.965
09/03/2013  22:55:00     -152.859     -127.357       -7.573       41.798       42.865       24.538     1747.073     1837.451      602.117        2.191        0.209      198.961       22.781        0.013      345.614       23.267      861.971
09/03/2013  22:56:00     -136.395      -75.729       -5.840       43.070       40.615       24.167     1855.006     1649.617      584.059        1.423        0.204      156.008       28.262        0.033      345.586       23.221      861.972
09/03/2013  22:57:00     -119.854      -76.105        5.945       51.600       29.955       26.562     2662.561      897.293      705.529        1.223        0.213      141.976       30.289        0.046      345.630       23.297      861.973
09/03/2013  22:58:00     -125.024      -48.612       -4.017       39.350       25.782       19.856     1548.412      664.725      394.279        1.031        0.130      134.142       21.021        0.025      345.616       23.273      861.970
09/03/2013  22:59:00     -174.086      -51.862       -1.501       54.531       36.087       24.971     2973.593     1302.293      623.539        1.895        0.245      181.647       23.990        0.017      345.650       23.331      861.962
09/03/2013  23:00:00     -202.555      -46.377       -9.865       52.625       43.901       24.735     2769.411     1927.289      611.822        2.429        0.265      207.796       24.644        0.014      345.696       23.409      861.960
09/03/2013  23:01:00     -130.822      -46.249       -4.675       41.606       49.312       29.032     1731.022     2431.675      842.862        1.214        0.250      138.756       23.745        0.029      345.683       23.389      861.958
09/03/2013  23:02:00     -144.286      -42.636        1.414       34.748       39.131       21.615     1207.389     1531.262      467.188        1.292        0.160      150.453       11.992        0.006      345.614       23.270      861.968
09/03/2013  23:03:00     -169.206        3.939      -14.937       44.813       38.389       27.834     2008.192     1473.685      774.745        1.656        0.213      169.252       21.916        0.017      345.487       23.051      861.974
09/03/2013  23:04:00     -148.682       -7.696      -14.033       41.364       44.303       26.347     1710.998     1962.779      694.150        1.336        0.218      148.881       21.231        0.020      345.442       22.973      861.982
09/03/2013  23:05:00     -129.954      -12.349      -10.464       45.689       37.471       22.267     2087.472     1404.091      495.813        1.057        0.199      130.539       19.327        0.022      345.447       22.983      861.987
09/03/2013  23:06:00     -100.880       18.775      -21.973       46.855       27.987       18.578     2195.402      783.271      345.140        0.717        0.166      102.612       24.153        0.055      345.542       23.146      862.014
09/03/2013  23:07:00      -61.570       52.354      -13.192       43.438       42.363       23.620     1886.878     1794.624      557.925        0.547        0.212       80.819       21.117        0.068      345.545       23.152      862.025
09/03/2013  23:08:00      -69.291       -6.871      -22.644       43.076       36.173       28.812     1855.500     1308.470      830.130        0.468        0.200       69.631       23.318        0.112      345.644       23.320      862.032
09/03/2013  23:09:00      -28.950       86.256        0.399       35.809       45.741       32.812     1282.293     2092.195     1076.608        0.636        0.223       90.985       21.444        0.056      345.639       23.312      862.034
09/03/2013  23:10:00      -11.266       -4.262       21.495       38.328       21.318       20.774     1469.035      454.470      431.560        0.148        0.118       12.045       21.641        3.228      345.630       23.296      862.036
09/03/2013  23:11:00       41.348        6.269       12.112       25.700       28.103       23.046      660.501      789.756      531.138        0.194        0.099       41.821       19.914        0.227      345.623       23.287      862.048
09/03/2013  23:12:00       23.611       68.959      -26.199       28.216       28.932       17.628      796.169      837.069      310.734        0.397        0.097       72.889       14.757        0.041      345.654       23.337      862.047
09/03/2013  23:13:00       16.800       22.518       -2.064       21.434       13.647       11.597      459.436      186.244      134.483        0.079        0.039       28.094        8.392        0.089      345.655       23.342      862.045
09/03/2013  23:14:00      -34.024       24.071       -5.977       17.666       20.216       15.958      312.071      408.677      254.657        0.137        0.049       41.678       14.019        0.113      345.582       23.216      862.045
09/03/2013  23:15:00      -16.766      -15.915        6.456       10.833       22.955       16.252      117.364      526.931      264.129        0.074        0.045       23.116       14.328        0.384      345.513       23.097      862.053
09/03/2013  23:16:00      -14.343      -20.535       14.129       10.537       14.472       10.239      111.033      209.442      104.845        0.063        0.021       25.049        8.468        0.114      345.543       23.151      862.070
09/03/2013  23:17:00      -16.831        7.387        1.067        5.326        5.720        5.380       28.367       32.715       28.949        0.021        0.005       18.380        2.278        0.015      345.558       23.172      862.069
09/03/2013  23:18:00      -12.633       18.300       -2.118        9.223        5.827        7.305       85.060       33.950       53.359        0.034        0.009       22.237        2.272        0.010      345.601       23.247      862.069
09/03/2013  23:19:00      -24.121       40.503       -6.699       19.836       17.703       11.835      393.471      313.397      140.073        0.156        0.042       47.142       13.598        0.083      345.579       23.210      862.075
09/03/2013  23:20:00      -20.102       38.238       -2.558       13.658       12.638        8.224      186.541      159.711       67.630        0.114        0.021       43.200        6.681        0.024      345.456       23.000      862.087
09/03/2013  23:21:00      -26.821       16.358       -7.118       12.944       13.559        9.735      167.541      183.846       94.762        0.074        0.022       31.416        9.338        0.088      345.508       23.087      862.113
09/03/2013  23:22:00      -44.219       -4.389       -5.323       11.373       10.790        9.630      129.356      116.416       92.738        0.117        0.017       44.437        8.705        0.038      345.563       23.183      862.119
09/03/2013  23:23:00      -16.360      -14.394       -1.213       12.411       10.714        9.219      154.041      114.780       84.984        0.041        0.018       21.790        5.741        0.069      345.518       23.106      862.121
09/03/2013  23:24:00      -21.751       -8.952        2.631        9.434        9.580       12.289       89.000       91.767      151.029        0.045        0.017       23.521        5.177        0.048      345.437       22.966      862.125
09/03/2013  23:25:00      -17.862        0.836       -0.258       14.346       11.951        7.701      205.812      142.826       59.303        0.036        0.020       17.881        5.761        0.104      345.590       23.230      862.129
09/03/2013  23:26:00      -34.997       52.901       -9.418       18.804       28.080       15.579      353.595      788.478      242.720        0.275        0.069       63.430       10.119        0.025      345.649       23.329      862.132
09/03/2013  23:27:00        6.165       34.661        5.535       27.354       23.130       13.397      748.263      534.989      179.491        0.137        0.073       35.206       13.180        0.140      345.449       22.986      862.143
09/03/2013  23:28:00       43.617       24.814       14.979       16.299       19.794       12.638      265.652      391.813      159.726        0.178        0.041       50.181        5.691        0.013      345.397       22.897      862.153
09/03/2013  23:29:00       53.574       22.513        3.589       25.305       24.129       19.485      640.326      582.208      379.671        0.250        0.080       58.112       14.218        0.060      345.029       22.268      862.155
09/03/2013  23:30:00       66.395       40.540       13.214       27.660       24.553       25.184      765.061      602.826      634.254        0.411        0.100       77.794       10.249        0.017      344.995       22.209      862.160
09/03/2013  23:31:00       84.690       51.344       10.098       22.219       19.163       19.701      493.673      367.216      388.120        0.558        0.062       99.038        6.846        0.005      345.310       22.750      862.154
09/03/2013  23:32:00       95.317       61.738       14.055       22.908       24.266       28.174      524.760      588.851      793.795        0.750        0.095      113.564       12.881        0.013      345.449       22.988      862.149
09/03/2013  23:33:00       92.173       69.651       17.307       21.557       21.740       21.573      464.694      472.639      465.401        0.752        0.070      115.530        8.691        0.006      345.377       22.863      862.151
09/03/2013  23:34:00       74.928       44.155       14.283       23.045       17.382       18.209      531.093      302.141      331.576        0.447        0.058       86.971        4.500        0.003      345.428       22.951      862.162
09/03/2013  23:35:00       -1.828       34.979        1.123       29.260       22.134       17.802      856.140      489.893      316.904        0.145        0.083       35.027       18.629        0.283      345.504       23.082      862.159
09/03/2013  23:36:00      -36.754       18.596       -9.556       23.548       15.440        7.386      554.486      238.385       54.547        0.132        0.042       41.191        3.894        0.009      345.428       22.951      862.158
09/03/2013  23:37:00      -81.144       -0.280      -17.756       27.889       15.848       11.806      777.795      251.169      139.390        0.403        0.058       81.145        6.439        0.006      345.293       22.720      862.156
09/03/2013  23:38:00     -111.110       44.286      -14.786       30.490       26.386       17.089      929.625      696.241      292.017        0.822        0.096      119.610       11.885        0.010      345.512       23.094      862.158
09/03/2013  23:39:00     -102.474       71.352      -23.085       28.353       33.167       21.270      803.879     1100.046      452.412        0.924        0.118      124.868       18.092        0.021      345.596       23.240      862.159
09/03/2013  23:40:00     -111.097       93.272      -25.274       31.604       34.961       30.486      998.806     1222.289      929.417        1.242        0.158      145.059       24.276        0.028      345.617       23.275      862.159
09/03/2013  23:41:00      -92.911      101.755      -24.934       29.184       28.325       19.194      851.692      802.298      368.399        1.081        0.101      137.792       16.440        0.014      345.590       23.229      862.161
09/03/2013  23:42:00      -96.580       73.507      -21.428       31.469       43.227       19.028      990.279     1868.578      362.052        0.920        0.161      121.371       25.811        0.045      345.588       23.223      862.168
09/03/2013  23:43:00      -64.235       50.843      -15.755       26.036       35.071       18.590      677.856     1230.001      345.598        0.461        0.113       81.922       15.197        0.034      345.555       23.169      862.171
09/03/2013  23:44:00       -1.001       62.875        7.494       35.626       30.568       19.368     1269.222      934.398      375.120        0.329        0.129       62.883       20.559        0.107      345.594       23.236      862.168
09/03/2013  23:45:00      -14.839       19.846        7.407       23.957       20.827       23.806      573.943      433.756      566.721        0.112        0.079       24.781       16.554        0.446      345.611       23.265      862.167
09/03/2013  23:46:00      -14.178       12.165       -7.686       26.869       14.221       13.016      721.942      202.237      169.421        0.075        0.055       18.682       13.702        0.538      345.568       23.190      862.161
09/03/2013  23:47:00      -22.152      -49.558        2.870       29.279       34.240       21.751      857.286     1172.378      473.102        0.273        0.125       54.283       12.036        0.049      345.498       23.070      862.159
09/03/2013  23:48:00      -15.814      -88.160        9.043       39.794       57.156       28.216     1583.565     3266.823      796.150        0.687        0.282       89.567       30.902        0.119      345.382       22.872      862.161
09/03/2013  23:49:00      -37.871      -29.686        6.456       55.308       31.589       26.977     3059.028      997.838      727.770        0.357        0.239       48.119       16.881        0.123      345.306       22.741      862.172
09/03/2013  23:50:00      -82.949      -81.667       -3.881       51.798       42.921       28.212     2683.046     1842.247      795.903        0.944        0.266      116.404       26.877        0.053      345.381       22.869      862.174
09/03/2013  23:51:00     -115.365     -103.028       -3.065       47.982       36.596       27.707     2302.268     1339.272      767.674        1.417        0.220      154.673       25.285        0.027      345.399       22.903      862.172
09/03/2013  23:52:00     -108.328      -93.241        3.380       46.863       35.054       27.274     2196.135     1228.792      743.888        1.230        0.208      142.930       19.090        0.018      345.433       22.958      862.175
09/03/2013  23:53:00     -104.166      -43.337        1.377       45.007       39.101       22.656     2025.656     1528.900      513.315        0.840        0.203      112.821       21.900        0.038      345.450       22.987      862.175
09/03/2013  23:54:00     -139.921      -40.421      -19.720       25.978       17.094       16.102      674.868      292.197      259.272        1.141        0.061      145.643       12.615        0.008      345.438       22.969      862.177
09/03/2013  23:55:00     -146.707      -36.908       -9.327       24.862       23.851       12.280      618.143      568.872      150.795        1.215        0.067      151.278        8.920        0.003      345.441       22.973      862.179
09/03/2013  23:56:00     -172.023      -66.977       -7.807       25.322       34.014       17.212      641.190     1156.931      296.267        1.812        0.105      184.602       12.540        0.005      345.347       22.812      862.180
09/03/2013  23:57:00     -149.634      -65.579       -1.484       37.279       28.126       22.855     1389.714      791.092      522.371        1.470        0.135      163.373       17.570        0.012      345.287       22.710      862.176
09/03/2013  23:58:00     -123.138      -72.094        4.091       56.346       45.518       25.811     3174.888     2071.927      666.198        1.314        0.296      142.690       25.319        0.031      345.287       22.708      862.178
09/03/2013  23:59:00      -81.667      -71.178        7.221       54.096       45.120       27.315     2926.380     2035.785      746.117        0.875        0.285      108.332       30.472        0.079      345.309       22.745      862.189
